[[{"header":{"parameterUnit":"m.s-1","parameterCategory":1,"la1":30.6,"la2":29.2853,"lo1":-89.7004,"lo2":-87.6739,"dy":0.0162,"dx":0.0183,"nx":112,"ny":82,"refTime":"2023-05-09T12:00:00:Z","depth":0,"parameterNumber":2,"parameterNumberName":"U-component_of_WINDS"},"data":[0.0,0.0,0.0,0.0,0.0,0.0,0.0,0.0,0.0,0.0,0.0,0.0,0.0,0.0,0.0,0.0,0.0,0.0,0.0,0.0,0.0,0.0,0.0,0.0,0.0,0.0,0.0,0.0,0.0,0.0,0.0,0.0,0.0,0.0,0.0,0.0,0.0,0.0,0.0,0.0,0.0,0.0,0.0,0.0,0.0,0.0,0.0,0.0,0.0,0.0,0.0,0.0,0.0,0.0,0.0,0.0,0.0,0.0,0.0,0.0,0.0,0.0,0.0,0.0,0.0,0.0,0.0,0.0,0.0,0.0,0.0,0.0,0.0,0.0,0.0,0.0,0.0,0.0,0.0,0.0,0.0,0.0,0.0,0.0,0.0,0.0,0.0,0.0,0.0,0.0,-3.4335,-3.4517,-3.455,-3.455,-3.4539,-3.4439,-3.4427,-3.4528,0.0,0.0,0.0,0.0,0.0,0.0,0.0,0.0,0.0,0.0,0.0,0.0,0.0,0.0,0.0,0.0,0.0,0.0,0.0,0.0,0.0,0.0,0.0,0.0,0.0,0.0,0.0,0.0,0.0,0.0,0.0,0.0,0.0,0.0,0.0,0.0,0.0,0.0,0.0,0.0,0.0,0.0,0.0,0.0,0.0,0.0,0.0,0.0,0.0,0.0,0.0,0.0,0.0,0.0,0.0,0.0,0.0,0.0,0.0,0.0,0.0,0.0,0.0,0.0,0.0,0.0,0.0,0.0,0.0,0.0,0.0,0.0,0.0,0.0,0.0,0.0,0.0,0.0,0.0,0.0,0.0,0.0,0.0,0.0,0.0,0.0,0.0,0.0,0.0,0.0,0.0,0.0,0.0,0.0,0.0,0.0,0.0,0.0,0.0,0.0,0.0,0.0,0.0,0.0,-3.4055,-3.4264,-3.437,-3.4393,-3.4288,-3.4227,-3.4264,-3.4276,0.0,0.0,0.0,0.0,0.0,0.0,0.0,0.0,0.0,0.0,0.0,0.0,0.0,0.0,0.0,0.0,0.0,0.0,0.0,0.0,0.0,0.0,0.0,0.0,0.0,0.0,0.0,0.0,0.0,0.0,0.0,0.0,0.0,0.0,0.0,0.0,0.0,0.0,0.0,0.0,0.0,0.0,0.0,0.0,0.0,0.0,0.0,0.0,0.0,0.0,0.0,0.0,0.0,0.0,0.0,0.0,0.0,0.0,0.0,0.0,0.0,0.0,0.0,0.0,0.0,0.0,0.0,0.0,0.0,0.0,0.0,0.0,0.0,0.0,0.0,0.0,0.0,0.0,0.0,0.0,0.0,0.0,0.0,0.0,0.0,0.0,0.0,0.0,0.0,0.0,0.0,0.0,0.0,0.0,0.0,0.0,0.0,0.0,0.0,0.0,0.0,0.0,0.0,-3.3939,-3.4117,-3.4166,-3.4239,-3.4288,-3.4228,-3.4179,-3.4179,-3.4179,-3.4179,0.0,0.0,0.0,0.0,0.0,0.0,0.0,0.0,0.0,0.0,0.0,0.0,0.0,0.0,0.0,0.0,0.0,0.0,0.0,0.0,0.0,0.0,0.0,0.0,0.0,0.0,0.0,0.0,0.0,0.0,0.0,0.0,0.0,0.0,0.0,0.0,0.0,0.0,0.0,0.0,0.0,0.0,0.0,0.0,0.0,0.0,0.0,0.0,0.0,0.0,0.0,0.0,0.0,0.0,0.0,0.0,0.0,0.0,0.0,0.0,0.0,0.0,0.0,0.0,0.0,0.0,0.0,0.0,0.0,0.0,0.0,0.0,0.0,0.0,0.0,0.0,0.0,0.0,0.0,0.0,0.0,0.0,0.0,0.0,0.0,0.0,0.0,0.0,0.0,0.0,0.0,0.0,0.0,0.0,0.0,0.0,0.0,0.0,0.0,0.0,0.0,0.0,-3.381,-3.4043,-3.4043,-3.408,-3.4117,-3.4117,-3.4154,-3.4179,-3.4179,-3.4179,0.0,0.0,0.0,0.0,0.0,0.0,0.0,0.0,0.0,0.0,0.0,0.0,0.0,0.0,0.0,0.0,0.0,0.0,0.0,0.0,0.0,0.0,0.0,0.0,0.0,0.0,0.0,0.0,0.0,0.0,0.0,0.0,0.0,0.0,0.0,0.0,0.0,0.0,0.0,0.0,0.0,0.0,0.0,0.0,0.0,0.0,0.0,0.0,0.0,0.0,0.0,0.0,0.0,0.0,0.0,0.0,0.0,0.0,0.0,0.0,0.0,0.0,0.0,0.0,0.0,0.0,0.0,0.0,0.0,0.0,0.0,0.0,0.0,0.0,0.0,0.0,0.0,0.0,0.0,0.0,0.0,0.0,0.0,0.0,0.0,0.0,0.0,0.0,0.0,0.0,0.0,0.0,0.0,0.0,0.0,0.0,0.0,0.0,0.0,0.0,0.0,0.0,-3.3473,-3.3629,-3.3629,-3.382,-3.3939,-3.3939,-3.408,-3.4179,-3.4179,-3.4179,0.0,0.0,0.0,0.0,0.0,0.0,0.0,0.0,0.0,0.0,0.0,0.0,0.0,0.0,0.0,0.0,0.0,0.0,0.0,0.0,0.0,0.0,0.0,0.0,0.0,0.0,0.0,0.0,0.0,0.0,0.0,0.0,0.0,0.0,0.0,0.0,0.0,0.0,0.0,0.0,0.0,0.0,0.0,0.0,0.0,0.0,0.0,0.0,0.0,0.0,0.0,0.0,0.0,0.0,0.0,0.0,0.0,0.0,0.0,0.0,0.0,0.0,0.0,0.0,0.0,0.0,0.0,0.0,0.0,0.0,0.0,0.0,0.0,0.0,0.0,0.0,0.0,0.0,0.0,0.0,0.0,0.0,0.0,0.0,0.0,0.0,0.0,0.0,0.0,0.0,0.0,0.0,0.0,0.0,0.0,0.0,0.0,0.0,0.0,0.0,0.0,0.0,-3.3444,-3.3587,-3.3587,-3.3657,-3.3671,-3.3536,-3.3606,-3.3652,-3.3747,0.0,0.0,0.0,0.0,0.0,0.0,0.0,0.0,0.0,0.0,0.0,0.0,0.0,0.0,0.0,0.0,0.0,0.0,0.0,0.0,0.0,0.0,0.0,0.0,0.0,0.0,0.0,0.0,0.0,0.0,0.0,0.0,0.0,0.0,0.0,0.0,0.0,0.0,0.0,0.0,0.0,0.0,0.0,0.0,0.0,0.0,0.0,0.0,0.0,0.0,0.0,0.0,0.0,0.0,0.0,0.0,0.0,0.0,0.0,0.0,0.0,0.0,0.0,0.0,0.0,0.0,0.0,0.0,0.0,0.0,0.0,0.0,0.0,0.0,0.0,0.0,0.0,0.0,0.0,0.0,0.0,0.0,0.0,0.0,0.0,0.0,0.0,0.0,0.0,0.0,0.0,0.0,0.0,0.0,0.0,0.0,0.0,0.0,0.0,0.0,0.0,0.0,-3.2894,-3.3065,-3.3172,-3.3172,-3.3247,-3.3247,-3.3126,-3.3151,-3.3284,-3.3486,0.0,0.0,0.0,0.0,0.0,0.0,0.0,0.0,0.0,0.0,0.0,0.0,0.0,0.0,0.0,0.0,0.0,0.0,0.0,0.0,0.0,0.0,0.0,0.0,0.0,0.0,0.0,0.0,0.0,0.0,0.0,0.0,0.0,0.0,0.0,0.0,0.0,0.0,0.0,0.0,0.0,0.0,0.0,0.0,0.0,0.0,0.0,0.0,0.0,0.0,0.0,0.0,0.0,0.0,0.0,0.0,0.0,0.0,0.0,0.0,0.0,0.0,0.0,0.0,0.0,0.0,0.0,0.0,0.0,0.0,0.0,0.0,0.0,0.0,0.0,0.0,0.0,0.0,0.0,0.0,0.0,0.0,0.0,0.0,0.0,0.0,0.0,0.0,0.0,0.0,0.0,0.0,0.0,0.0,0.0,0.0,0.0,0.0,0.0,0.0,0.0,0.0,-3.2318,-3.2318,-3.2318,-3.2318,-3.2537,-3.2702,-3.2685,-3.289,-3.313,0.0,0.0,0.0,0.0,0.0,0.0,0.0,0.0,0.0,0.0,0.0,0.0,0.0,0.0,0.0,0.0,0.0,0.0,0.0,0.0,0.0,0.0,0.0,0.0,0.0,0.0,0.0,0.0,0.0,0.0,0.0,0.0,0.0,0.0,0.0,0.0,0.0,0.0,0.0,0.0,0.0,0.0,0.0,0.0,0.0,0.0,0.0,0.0,0.0,0.0,0.0,0.0,0.0,0.0,0.0,0.0,0.0,0.0,0.0,0.0,0.0,0.0,0.0,0.0,0.0,0.0,0.0,0.0,0.0,0.0,0.0,0.0,0.0,0.0,0.0,0.0,0.0,0.0,0.0,0.0,0.0,0.0,0.0,0.0,0.0,0.0,0.0,0.0,0.0,0.0,0.0,0.0,0.0,0.0,0.0,0.0,0.0,0.0,0.0,0.0,0.0,0.0,0.0,-3.2336,-3.2318,-3.2318,-3.2318,-3.2352,-3.2369,-3.2284,-3.2318,-3.2453,-3.2634,0.0,0.0,0.0,0.0,0.0,0.0,0.0,0.0,0.0,0.0,0.0,0.0,0.0,0.0,0.0,0.0,0.0,0.0,0.0,0.0,0.0,0.0,0.0,0.0,0.0,0.0,0.0,0.0,0.0,0.0,0.0,0.0,0.0,0.0,0.0,0.0,0.0,0.0,0.0,0.0,0.0,0.0,0.0,0.0,0.0,0.0,0.0,0.0,0.0,0.0,0.0,0.0,0.0,0.0,0.0,0.0,0.0,0.0,0.0,0.0,0.0,0.0,0.0,0.0,0.0,0.0,0.0,0.0,0.0,0.0,0.0,0.0,0.0,0.0,0.0,0.0,0.0,0.0,0.0,0.0,0.0,0.0,0.0,0.0,0.0,0.0,0.0,0.0,0.0,0.0,0.0,0.0,0.0,0.0,0.0,0.0,0.0,0.0,0.0,0.0,0.0,0.0,-3.1963,-3.1895,-3.1895,-3.1895,-3.2037,-3.2055,-3.2,-3.1982,-3.2055,-3.2301,0.0,0.0,0.0,0.0,0.0,0.0,0.0,0.0,0.0,0.0,0.0,0.0,0.0,0.0,0.0,0.0,0.0,0.0,0.0,0.0,0.0,0.0,0.0,0.0,0.0,0.0,0.0,0.0,0.0,0.0,0.0,0.0,0.0,0.0,0.0,0.0,0.0,0.0,0.0,0.0,0.0,0.0,0.0,0.0,0.0,0.0,0.0,0.0,0.0,0.0,0.0,0.0,0.0,0.0,0.0,0.0,0.0,0.0,0.0,0.0,0.0,0.0,0.0,0.0,0.0,0.0,0.0,0.0,0.0,0.0,0.0,0.0,0.0,0.0,0.0,0.0,0.0,0.0,0.0,0.0,0.0,0.0,0.0,0.0,0.0,0.0,0.0,0.0,0.0,0.0,0.0,0.0,0.0,0.0,0.0,0.0,0.0,0.0,0.0,0.0,0.0,0.0,-3.1336,-3.124,-3.1274,-3.1342,-3.1557,-3.176,-3.1866,-3.1797,-3.1893,-3.2249,0.0,0.0,0.0,0.0,0.0,0.0,0.0,0.0,0.0,0.0,0.0,0.0,0.0,0.0,0.0,0.0,0.0,0.0,0.0,0.0,0.0,0.0,0.0,0.0,0.0,0.0,0.0,0.0,0.0,0.0,0.0,0.0,0.0,0.0,0.0,0.0,0.0,0.0,0.0,0.0,0.0,0.0,0.0,0.0,0.0,0.0,0.0,0.0,0.0,0.0,0.0,0.0,0.0,0.0,0.0,0.0,0.0,0.0,0.0,0.0,-2.9251,-2.9777,0.0,0.0,0.0,0.0,0.0,0.0,0.0,0.0,0.0,0.0,0.0,0.0,0.0,0.0,0.0,0.0,0.0,0.0,0.0,0.0,0.0,0.0,0.0,0.0,0.0,0.0,0.0,0.0,0.0,0.0,0.0,0.0,0.0,0.0,0.0,0.0,0.0,0.0,0.0,0.0,-3.1073,-3.0905,-3.114,-3.1711,-3.1335,-3.134,-3.2188,-3.175,-3.156,-3.191,-3.1928,0.0,0.0,0.0,0.0,0.0,0.0,0.0,0.0,0.0,0.0,0.0,0.0,0.0,0.0,0.0,0.0,0.0,0.0,0.0,0.0,0.0,0.0,0.0,0.0,0.0,0.0,0.0,0.0,0.0,0.0,0.0,0.0,0.0,0.0,0.0,0.0,0.0,0.0,0.0,0.0,0.0,0.0,0.0,0.0,0.0,0.0,0.0,0.0,0.0,0.0,0.0,0.0,0.0,0.0,0.0,0.0,0.0,0.0,0.0,-2.8724,-2.903,0.0,0.0,0.0,0.0,0.0,0.0,0.0,0.0,0.0,0.0,0.0,0.0,0.0,0.0,0.0,0.0,0.0,0.0,0.0,0.0,0.0,0.0,0.0,0.0,0.0,0.0,0.0,0.0,0.0,0.0,0.0,0.0,0.0,0.0,0.0,0.0,0.0,0.0,0.0,0.0,-3.0705,-3.0858,-3.1224,-3.1622,-3.1471,-3.1536,-3.2103,-3.1483,-3.1181,-3.1542,-3.1408,0.0,0.0,0.0,0.0,0.0,0.0,0.0,0.0,0.0,0.0,0.0,0.0,0.0,0.0,0.0,0.0,0.0,0.0,0.0,0.0,0.0,0.0,0.0,0.0,0.0,0.0,0.0,0.0,0.0,0.0,0.0,0.0,0.0,0.0,0.0,0.0,0.0,0.0,0.0,0.0,0.0,0.0,0.0,0.0,0.0,0.0,0.0,0.0,0.0,0.0,0.0,0.0,0.0,-2.7798,-2.8248,-2.8309,-2.9371,-2.9249,-2.8257,-2.8372,-2.8317,-2.8189,-2.826,0.0,0.0,0.0,0.0,0.0,0.0,0.0,0.0,0.0,0.0,0.0,0.0,0.0,0.0,0.0,0.0,0.0,0.0,0.0,0.0,0.0,0.0,-3.0235,-3.1043,-3.1131,-3.119,-3.1851,0.0,0.0,0.0,0.0,0.0,0.0,0.0,0.0,0.0,0.0,0.0,-3.074,-3.1145,-3.1572,-3.167,-3.1813,-3.1941,-3.1983,-3.1337,-3.0999,-3.1215,-3.0945,-3.0925,0.0,0.0,0.0,0.0,0.0,0.0,0.0,0.0,0.0,0.0,0.0,0.0,0.0,0.0,0.0,0.0,0.0,0.0,0.0,0.0,0.0,0.0,0.0,0.0,0.0,0.0,0.0,0.0,0.0,0.0,0.0,0.0,-2.8035,-2.7996,0.0,0.0,0.0,0.0,0.0,0.0,0.0,0.0,0.0,0.0,0.0,0.0,0.0,-2.7896,-2.7896,-2.7896,-2.7896,-2.7896,-2.8055,-2.8142,-2.8142,-2.8326,-2.8265,-2.8142,-2.8149,0.0,-2.7571,-2.7464,0.0,0.0,0.0,0.0,0.0,0.0,0.0,0.0,0.0,0.0,0.0,0.0,0.0,0.0,0.0,0.0,0.0,0.0,0.0,0.0,0.0,0.0,-2.9929,-3.0205,-3.0264,-3.0294,-3.0385,-3.1451,-3.241,-3.2492,-3.252,-3.2683,0.0,0.0,0.0,0.0,0.0,0.0,-3.188,-3.1871,-3.2163,-3.2813,-3.234,-3.2089,-3.2385,-3.1737,-3.1182,-3.0878,-3.0825,-3.0825,-3.0865,-3.0865,0.0,0.0,0.0,0.0,0.0,0.0,0.0,0.0,0.0,0.0,0.0,0.0,0.0,0.0,0.0,0.0,0.0,0.0,0.0,0.0,0.0,0.0,0.0,0.0,0.0,0.0,0.0,0.0,0.0,-2.8662,-2.8574,-2.8574,-2.8298,-2.8097,0.0,0.0,0.0,0.0,0.0,0.0,0.0,0.0,0.0,-2.8574,-2.8875,-2.9051,-2.9051,-2.9051,-2.9051,-2.9051,-2.9377,-2.9528,-2.9528,-2.9829,-2.9804,-2.9528,-2.9528,-2.9062,-2.8262,-2.7885,-2.7694,-2.7669,0.0,0.0,0.0,0.0,-2.7921,-2.7829,-2.7438,-2.7371,-2.7404,-2.7278,0.0,0.0,0.0,0.0,0.0,0.0,0.0,-2.9156,-2.9501,-2.9777,-2.9991,-3.0174,-3.0325,-3.0385,-3.0385,-3.0925,-3.1422,-3.1564,-3.1766,-3.216,-3.2975,-3.2895,0.0,0.0,0.0,-3.2431,-3.2045,-3.2352,-3.274,-3.3064,-3.2805,-3.2683,-3.2825,-3.1772,-3.1112,-3.1127,-3.0603,-3.0351,-3.0518,-3.0539,-3.0601,0.0,0.0,0.0,0.0,0.0,0.0,0.0,0.0,0.0,0.0,0.0,0.0,0.0,0.0,0.0,0.0,0.0,0.0,0.0,0.0,0.0,0.0,0.0,0.0,0.0,0.0,0.0,0.0,-2.9364,-2.9113,-2.9113,-2.8925,-2.875,0.0,0.0,0.0,0.0,0.0,0.0,-2.895,-2.9327,-2.9553,-2.9553,-2.998,-3.0206,-3.0206,-3.0206,-3.0206,-3.0206,-3.0608,-3.0809,-3.0834,-3.121,-3.1185,-3.0809,-3.0809,-3.0331,-2.9503,-2.8674,-2.7898,-2.7326,-2.7885,-2.7745,-2.7352,-2.7772,-2.7941,-2.7874,-2.7258,-2.7085,-2.7085,-2.6921,-2.6854,-2.6925,-2.7419,0.0,0.0,0.0,0.0,-2.86,-2.9029,-2.966,-3.0224,-3.0321,-3.0602,-3.082,-3.0675,-3.0738,-3.0801,-3.0896,-3.1102,-3.1566,-3.2461,-3.2351,0.0,-3.3015,-3.2743,-3.2501,-3.2539,-3.3,-3.3356,-3.3356,-3.3356,-3.3291,-3.3097,-3.1931,-3.119,-3.1187,-3.038,-2.9968,-3.0097,-3.0161,-3.0225,-3.0309,0.0,0.0,0.0,0.0,0.0,0.0,0.0,0.0,0.0,0.0,0.0,0.0,0.0,0.0,0.0,0.0,0.0,0.0,0.0,0.0,0.0,0.0,0.0,0.0,0.0,0.0,0.0,0.0,0.0,-2.9754,-3.0181,0.0,0.0,0.0,0.0,-3.121,-3.121,-3.121,-3.121,-3.126,-3.126,-3.126,-3.1286,-3.1311,-3.1311,-3.1311,-3.1311,-3.1311,-3.1336,-3.1361,-3.1361,-3.1386,-3.1386,-3.1361,-3.1361,-3.1311,-3.1135,-2.9553,-2.8537,-2.8072,-2.8108,-2.8083,-2.8021,-2.7851,-2.7814,-2.7741,-2.7336,-2.7323,-2.7397,-2.7026,-2.7029,-2.7157,-2.7228,-2.7336,0.0,0.0,-2.8486,-2.8626,-2.9326,-2.9969,-3.05,-3.05,-3.1099,-3.1484,-3.0889,-3.1028,-3.1137,-3.0684,-3.0628,-3.0836,-3.148,0.0,-3.1934,-3.3019,-3.3177,-3.336,-3.3928,-3.4036,-3.4036,-3.4036,-3.4036,-3.3777,-3.3129,-3.2384,-3.1578,-3.0692,-3.019,-2.9792,-2.956,-2.9792,-3.0022,-3.0309,-3.033,0.0,0.0,0.0,0.0,0.0,0.0,0.0,0.0,0.0,0.0,0.0,0.0,0.0,0.0,0.0,0.0,0.0,0.0,0.0,0.0,0.0,0.0,0.0,0.0,0.0,0.0,0.0,0.0,-3.0783,-3.0984,0.0,-3.111,-3.1286,-3.1386,-3.1386,-3.1386,-3.1386,-3.1386,-3.1738,-3.1913,-3.1913,-3.229,-3.2466,-3.2466,-3.2466,-3.2466,-3.2466,-3.2466,-3.2466,-3.2466,-3.2466,-3.2466,-3.2466,-3.2466,-3.2265,-3.1863,-3.1286,-3.0493,-2.9729,-2.9729,-2.9503,-2.9151,-2.87,-2.8438,-2.8238,-2.7631,-2.736,-2.7248,-2.701,-2.694,-2.6993,-2.6993,-2.7066,-2.716,-2.7394,-2.7806,-2.8227,-2.8477,-2.9134,-2.9757,-2.9757,-3.0419,-3.1004,-3.0782,-3.1241,-3.1661,-3.1467,-3.0995,-3.0747,-3.1248,-3.1073,-3.1335,-3.2489,-3.2351,-3.2324,-3.2926,-3.3293,-3.3527,-3.3527,-3.3866,-3.4003,-3.3744,-3.3097,-3.236,-3.1555,-3.0914,-3.0232,-2.9547,-2.977,-2.9792,-2.9538,-2.9716,-2.9946,0.0,0.0,0.0,0.0,0.0,0.0,0.0,0.0,0.0,0.0,0.0,0.0,0.0,0.0,0.0,0.0,0.0,0.0,0.0,0.0,0.0,0.0,0.0,0.0,0.0,-2.9984,-3.0539,-3.0885,-3.1397,-3.1662,-3.1662,-3.1838,-3.1914,-3.1752,-3.203,-3.2189,-3.1956,-3.2432,-3.2728,-3.2728,-3.2914,-3.2974,-3.2804,-3.299,-3.2995,-3.2822,-3.3039,-3.3111,-3.3111,-3.3111,-3.3111,-3.3111,-3.3111,-3.2867,-3.2516,-3.2516,-3.2089,-3.1411,-3.1035,-3.0658,-3.0281,-2.9905,-2.9677,-2.9471,-2.893,-2.8513,-2.8242,-2.8149,-2.7912,-2.769,-2.769,-2.757,-2.7474,-2.7642,-2.8051,-2.8458,-2.8656,-2.9252,-2.9803,-2.9803,-3.0405,-3.0999,-3.1123,-3.1562,-3.1966,-3.209,-3.1533,-3.1114,-3.1391,-3.1237,-3.142,-3.2488,-3.2255,-3.2136,-3.264,-3.2936,-3.3087,-3.2922,-3.3449,-3.3764,-3.3662,-3.3304,-3.2797,-3.2144,-3.1329,-3.0587,-2.9877,-2.981,-2.9733,-2.9717,-2.9831,-2.9852,-2.9881,0.0,0.0,0.0,0.0,0.0,0.0,0.0,0.0,0.0,0.0,0.0,0.0,0.0,0.0,0.0,0.0,0.0,0.0,0.0,0.0,0.0,0.0,0.0,-2.7656,-2.9087,-3.0025,-3.0025,-3.1311,-3.2164,-3.2164,-3.2707,-3.2841,-3.2328,-3.3231,-3.3588,-3.3118,-3.3481,-3.3791,-3.3791,-3.3221,-3.27,-3.2319,-3.2771,-3.2787,-3.2354,-3.2871,-3.3101,-3.3101,-3.3119,-3.3093,-3.3093,-3.3136,-3.3111,-3.3111,-3.3111,-3.3111,-3.3011,-3.1863,-3.1436,-3.1436,-3.1411,-3.1411,-3.1345,-3.1165,-3.0794,-3.0396,-3.0396,-2.9891,-2.9316,-2.9316,-2.8955,-2.8667,-2.9172,-2.9316,-2.9436,-2.9965,-3.0417,-3.0781,-3.0781,-3.1137,-3.1592,-3.1895,-3.1965,-3.2134,-3.2429,-3.2216,-3.1927,-3.1903,-3.1903,-3.2166,-3.2961,-3.2901,0.0,-3.323,-3.3108,-3.2835,-3.2447,-3.29,-3.3108,-3.2841,-3.3003,-3.2876,-3.2317,-3.1438,-3.0831,-3.059,-2.9886,-2.9936,-3.0794,-3.0619,-3.022,-2.9585,0.0,0.0,0.0,0.0,0.0,0.0,0.0,0.0,0.0,0.0,0.0,0.0,0.0,0.0,0.0,0.0,0.0,0.0,0.0,0.0,0.0,-2.7078,-2.8082,-2.8366,-2.9148,-2.9916,-3.051,-3.1249,-3.1691,-3.1691,-3.1832,-3.1879,-3.1738,-3.1973,-3.2253,-3.2432,-3.2593,-3.3165,-3.4341,-3.3406,-3.3677,-3.5255,-3.3714,-3.3282,-3.3959,-3.3713,-3.3611,-3.3633,-3.3667,-3.3671,-3.3646,-3.3244,-3.3111,-3.3111,-3.3111,-3.3111,-3.3086,-3.2742,-3.2616,-3.2566,-3.2139,-3.1531,-3.0943,-3.0687,-3.0396,-3.017,-3.017,-3.0073,-2.9869,-2.9869,-2.9773,-2.9677,-2.9821,-2.9869,-2.9893,-3.0037,-3.0174,-3.026,-3.026,-3.0848,-3.1289,-3.0971,-3.1814,-3.2536,-3.2254,-3.2591,-3.2783,-3.24,-3.2352,-3.2417,-3.2643,-3.2515,-3.2396,-3.2505,-3.2697,-3.2856,-3.2837,-3.3367,-3.3563,-3.314,-3.3374,-3.3055,-3.1951,-3.183,-3.1272,-3.0075,-2.9959,-2.9753,-2.9297,-2.9226,-2.9132,0.0,0.0,0.0,0.0,0.0,0.0,0.0,0.0,0.0,0.0,0.0,0.0,0.0,0.0,0.0,0.0,0.0,0.0,0.0,0.0,0.0,0.0,-2.714,-2.8069,-2.8322,-2.9201,-2.9922,-3.0306,-3.1185,-3.1791,-3.1791,-3.1974,-3.1916,-3.1502,-3.1844,-3.2078,-3.195,-3.2152,-3.27,-3.3627,-3.2759,-3.2811,-3.4,-3.2841,-3.2514,-3.3004,-3.2883,-3.2934,-3.3122,-3.2977,-3.2989,-3.3182,-3.2651,-3.2333,-3.216,-3.2607,-3.266,-3.2525,0.0,0.0,0.0,0.0,-3.2027,-3.1568,-3.1314,-3.1101,-3.0888,-3.0888,-3.0845,-3.0759,-3.0759,-3.0759,-3.0759,-3.0759,-3.0759,-3.0759,-3.0759,-3.0676,-3.055,-3.055,-3.0817,-3.1082,-3.1055,-3.1811,-3.2429,-3.2203,-3.2782,0.0,-3.2642,-3.2801,-3.2996,-3.3062,-3.2996,-3.2848,-3.2753,-3.2861,-3.2889,-3.2704,-3.3183,-3.3259,-3.256,-3.3001,0.0,0.0,0.0,-3.1398,-3.0261,-3.0703,0.0,0.0,0.0,-2.9252,-2.8573,-2.8834,0.0,0.0,-2.9793,-2.9903,0.0,0.0,0.0,0.0,0.0,0.0,0.0,0.0,0.0,0.0,0.0,0.0,0.0,0.0,0.0,0.0,-2.6855,-2.7388,-2.7937,-2.9256,-3.0027,-2.9813,-3.1097,-3.2104,-3.2104,-3.2509,-3.2352,-3.1481,-3.2301,-3.2476,-3.1671,-3.2032,0.0,0.0,0.0,-3.1379,-3.1168,-3.1303,-3.1265,-3.1055,-3.1439,-3.1828,-3.2188,-3.1766,-3.1814,-3.2202,-3.17,-3.1268,-3.095,-3.1852,-3.1908,-3.1608,-3.268,-3.3068,-3.3025,-3.281,-3.268,-3.2593,-3.2444,0.0,0.0,-3.1981,-3.1849,-3.1717,-3.1717,-3.1717,-3.1717,-3.1717,-3.1717,-3.1717,-3.1717,-3.1487,-3.1234,-3.1234,-3.104,-3.0984,-3.1625,-3.1843,-3.1946,-3.2107,-3.2782,-3.3212,-3.2789,-3.3248,-3.3675,-3.3848,-3.3882,-3.3785,-3.3545,-3.3326,-3.2996,-3.24,-3.2828,0.0,-3.1733,-3.2378,-3.2433,-3.1483,-3.1384,-3.1169,-3.0788,-3.1518,-3.1165,-2.955,-3.0334,-3.0049,-2.8627,-2.879,-2.891,-2.891,-2.9038,-2.9146,0.0,0.0,0.0,0.0,0.0,0.0,0.0,0.0,0.0,0.0,0.0,0.0,0.0,0.0,0.0,-2.6894,-2.7695,-2.8351,-2.827,-2.9427,-3.0281,-3.0093,-3.071,-3.1249,-3.1538,-3.1623,-3.1632,-3.1416,-3.1578,-3.178,-3.1939,-3.1989,-3.2526,-3.3464,-3.2446,-3.2584,-3.4012,-3.2276,-3.1838,-3.2643,-3.2317,0.0,-3.231,-3.2225,-3.2302,-3.2323,-3.1748,-3.1474,-3.1382,-3.1572,-3.1366,-3.1089,-3.2567,-3.2982,-3.2766,-3.2723,-3.2463,-3.2113,-3.2069,-3.1937,-3.1761,-3.1761,-3.1717,-3.1717,-3.1717,-3.1717,0.0,-3.1717,-3.1717,-3.1717,-3.1717,-3.1621,-3.1592,-3.1592,-3.1564,-3.1414,-3.115,-3.162,-3.1921,-3.1569,-3.2304,-3.2969,-3.2898,-3.3421,-3.3848,-3.3882,-3.3744,-3.3646,-3.3573,-3.3435,-3.3255,-3.3235,-3.3343,-3.3176,-3.2595,-3.294,-3.2703,-3.1535,-3.0719,-3.0404,-3.0728,-3.0388,-3.0186,-3.0202,-3.0377,-3.0315,-3.0017,-3.0038,-3.0063,-3.0063,-2.9382,-2.9398,0.0,0.0,0.0,0.0,0.0,0.0,0.0,0.0,0.0,0.0,0.0,-2.6699,-2.6699,0.0,-2.7656,-2.7656,-2.8486,-2.9168,-2.9219,-2.9833,-3.0231,-3.0143,-3.0797,-3.1338,-3.147,-3.1864,-3.1961,-3.1733,-3.1712,-3.1712,-3.1712,-3.1712,-3.1968,-3.2551,-3.2023,-3.2171,-3.3081,-3.1761,-3.1333,-3.1881,-3.1359,-3.1274,-3.1466,-3.1278,-3.1316,-3.1534,-3.0983,-3.0634,-3.0444,-3.0692,-3.0954,-3.1202,-3.1852,-3.2126,-3.2176,-3.2463,-3.2376,-3.2157,-3.1937,-3.1805,-3.1717,-3.1717,-3.1717,-3.1717,-3.1717,-3.1717,-3.1717,-3.1717,-3.1717,-3.1717,-3.1717,-3.1717,-3.1717,-3.1717,-3.1717,-3.1645,-3.138,-3.1588,-3.1718,-3.1178,-3.1863,-3.2319,-3.1785,-3.2641,-3.3485,-3.3731,-3.3744,-3.3744,-3.3744,-3.364,-3.3567,-3.3566,-3.3571,-3.3312,-3.2651,-3.2468,-3.2243,-3.1861,-3.106,-3.0807,-3.1277,-3.0681,-3.0428,-3.0532,-3.0316,-3.0273,-3.0386,-3.0177,-3.0177,-3.0386,-2.9931,-2.9955,0.0,0.0,0.0,0.0,0.0,0.0,0.0,-2.6269,-2.6504,-2.6504,-2.6914,-2.7266,-2.7266,-2.7969,-2.8535,-2.8535,-2.918,-2.9805,-3.0156,-3.0273,-3.0329,-3.0221,-3.0987,-3.1584,-3.164,-3.2215,-3.2468,-3.2097,-3.2112,-3.2023,-3.165,-3.165,-3.1588,-3.1505,-3.1505,-3.1464,-3.1381,-3.1008,-3.0822,-3.0822,-3.0346,-3.0325,-3.0677,-3.0201,-3.0201,-3.0532,-3.016,-2.9787,-2.9466,-2.9878,-3.0482,-3.1102,-3.1054,-3.1178,-3.1376,-3.1797,-3.2039,-3.2127,-3.1697,-3.1649,-3.1761,-3.1761,-3.1717,-3.1717,-3.1717,-3.1717,-3.1717,-3.1717,-3.1717,-3.1717,-3.1717,-3.1717,-3.1717,-3.1717,-3.1717,-3.1717,-3.1717,-3.1717,-3.1573,-3.1163,-3.1631,-3.1805,-3.0944,-3.1837,-3.2806,-3.3241,-3.3605,-3.3779,-3.3779,-3.3779,-3.3709,-3.357,-3.3536,-3.3268,-3.2623,-3.2033,-3.1834,-3.2201,-3.1632,-3.1481,-3.1948,-3.1511,-3.1191,-3.1149,-3.0746,-3.0651,-3.086,-3.0506,-3.0506,-3.0891,-3.0999,-3.0891,-2.5693,-2.5693,-2.5791,-2.6211,-2.6309,-2.6406,0.0,-2.6914,-2.6953,-2.6953,-2.7578,-2.8144,-2.8144,-2.8848,-2.9434,-2.9434,-2.9824,-3.0137,-3.0195,-3.0547,-3.0801,-3.08,-3.1129,-3.1419,-3.1765,-3.2113,-3.2342,-3.2301,-3.2473,-3.2566,-3.2582,-3.2582,-3.2339,-3.1926,-3.1905,-3.1774,-3.1381,-3.1319,-3.1298,-3.1298,-3.0822,-3.0636,-3.0677,-3.0201,-3.0036,-3.0077,-3.0015,-2.9973,-2.9911,-2.9974,-2.9859,-2.9614,-3.05,-3.0619,-3.0285,-3.0341,-3.0789,-3.1296,-3.1055,-3.1427,-3.1981,-3.1981,-3.1849,-3.1717,-3.1717,-3.1717,-3.1717,-3.1717,-3.1717,-3.1717,-3.1717,-3.1717,-3.1717,-3.1717,-3.1717,-3.1717,-3.1717,-3.1717,-3.1693,-3.1621,-3.1902,-3.2056,-3.193,-3.1883,-3.1929,-3.2218,-3.2881,-3.3361,-3.3361,-3.3361,-3.3361,-3.3361,-3.3326,-3.3297,-3.3213,-3.2651,-3.232,-3.2354,-3.1824,-3.1654,-3.2141,-3.2086,-3.2251,-3.2634,-3.2603,-3.2604,-3.2638,-3.2576,-3.2576,-3.2638,-3.3096,-3.26,-2.6055,-2.6113,-2.6211,-2.6641,-2.6758,-2.6855,-2.7305,-2.7578,-2.7832,-2.8066,-2.8613,-2.9043,-2.9043,-2.9531,-2.9941,-2.9941,-3.0312,-3.0605,-3.0605,-3.0762,-3.0898,-3.0898,-3.0995,-3.117,-3.1498,-3.196,-3.2305,-3.2305,-3.2555,-3.2669,-3.2669,-3.2669,-3.2587,-3.2401,-3.238,-3.2354,-3.2168,-3.1899,-3.1754,-3.1754,-3.1298,-3.1091,-3.1091,-3.0884,-3.0657,-3.0387,-3.0118,-2.9994,-2.9994,-2.9994,-2.9766,-2.9476,-2.9715,-2.9611,-2.9362,-3.0219,-3.0701,-3.0871,-3.0232,-3.056,-3.1291,-3.1008,-3.1294,-3.1717,-3.1717,-3.1717,-3.1717,-3.1717,-3.1717,-3.1717,-3.1717,-3.1717,-3.1717,-3.1717,-3.1717,-3.1717,-3.1717,-3.1717,-3.1717,-3.1717,-3.1763,-3.1779,-3.1461,-3.1705,-3.1763,-3.1254,-3.1988,-3.2596,-3.2596,-3.3016,-3.329,-3.329,-3.329,-3.329,-3.329,-3.3101,-3.2932,-3.2932,-3.237,-3.2106,-3.2307,-3.1966,-3.2029,-3.2452,-3.2224,-3.2356,-3.2897,-3.2643,-3.2801,-3.3392,-3.3607,-3.3514,-2.6445,-2.6562,-2.6699,-2.7226,-2.7363,-2.7519,-2.8066,-2.8418,-2.873,-2.9043,-2.9434,-2.9746,-2.9746,-3.0098,-3.0391,-3.0391,-3.0664,-3.0898,-3.0898,-3.0898,-3.0898,-3.0898,-3.0898,-3.0995,-3.117,-3.1672,-3.2018,-3.2018,-3.2305,-3.2498,-3.2555,-3.2612,-3.2612,-3.2669,-3.2669,-3.2669,-3.2669,-3.2339,-3.2173,-3.2173,-3.1774,-3.1567,-3.1547,-3.1422,-3.1195,-3.0843,-3.0387,-3.018,-3.018,-3.0036,-2.9889,-2.9659,-2.9343,-2.9132,-2.9071,-2.9897,-3.028,-3.0351,-2.9531,-2.9906,-3.0597,-3.0328,-3.0765,-3.1463,-3.1463,-3.1547,-3.1717,-3.1717,-3.1717,-3.1717,-3.1717,-3.1717,-3.1717,-3.1717,-3.1717,-3.1717,-3.1717,-3.1717,-3.1717,-3.1717,-3.1717,-3.1597,-3.1211,-3.1467,-3.1497,-3.0744,-3.1345,-3.1937,-3.2092,-3.281,-3.329,-3.329,-3.329,-3.329,-3.329,-3.329,-3.329,-3.329,-3.2904,-3.2651,-3.2651,-3.223,-3.2145,-3.2511,-3.2145,-3.2345,-3.3009,-3.268,-3.2876,-3.3585,-3.3743,-3.4024,-2.6875,-2.6992,-2.7207,-2.8047,-2.8262,-2.8476,-2.9372,-2.9531,-2.9531,-2.9607,-2.9883,-3.0176,-3.0176,-3.0547,-3.0859,-3.0859,-3.0879,-3.0898,-3.0898,-3.0898,-3.0898,-3.0898,-3.0898,-3.0898,-3.0898,-3.117,-3.1325,-3.1325,-3.1614,-3.196,-3.2305,-3.2305,-3.242,-3.2669,-3.2669,-3.2669,-3.2669,-3.2669,-3.2649,-3.2649,-3.2194,-3.1967,-3.1946,-3.1567,-3.136,-3.134,-3.0864,-3.0677,-3.0636,-3.018,-2.9994,-2.9942,-2.9659,-2.9606,-2.9501,-2.8953,-2.9123,-2.9501,-2.9289,-2.971,-3.0321,-3.0321,-3.0538,-3.0835,-3.0835,-3.1222,-3.1717,-3.1717,-3.1717,-3.1717,-3.1717,-3.1717,-3.1717,-3.1717,-3.1717,-3.1717,-3.1717,-3.1717,-3.1717,-3.1717,-3.1717,-3.1693,-3.1693,-3.1259,-3.0941,-3.0874,-3.1124,-3.1482,-3.2027,-3.281,-3.329,-3.329,-3.329,-3.329,-3.329,-3.329,-3.329,-3.329,-3.3262,-3.3262,-3.3262,-3.3234,-3.3269,-3.3269,-3.3269,-3.3269,-3.3304,-3.3269,-3.3304,-3.3339,-3.3837,-3.4081,-2.7676,-2.7871,-2.8066,-2.8926,-2.9141,-2.9297,-2.9863,-2.998,-3.0078,-3.0391,-3.0566,-3.0664,-3.0664,-3.0781,-3.0898,-3.0898,-3.0898,-3.0898,-3.0898,-3.0898,-3.0898,-3.0898,-3.0898,-3.0898,-3.0898,-3.117,-3.1325,-3.1325,-3.1614,-3.1845,-3.196,-3.196,-3.2018,-3.2076,-3.2305,-3.242,-3.242,-3.2612,-3.2669,-3.2669,-3.2525,-3.2385,-3.2174,-3.1911,-3.1816,-3.1795,-3.134,-3.1153,-3.1112,-3.0636,-3.0323,-3.0069,-2.9518,-2.9132,-2.894,-2.8568,-2.8555,-2.8673,-2.8336,-2.8768,-2.9463,-2.9197,-2.9645,-3.0289,-3.0289,-3.0893,-3.1553,-3.1204,-3.1636,-3.213,-3.1813,-3.1717,-3.1717,-3.1717,-3.1717,-3.1717,-3.1717,-3.1717,-3.1717,-3.1717,-3.1717,-3.1717,-3.1717,-3.1548,-3.1332,-3.0927,-3.0836,-3.1015,-3.1724,-3.2235,-3.2497,-3.2497,-3.298,-3.329,-3.329,-3.329,-3.329,-3.329,-3.329,-3.329,-3.329,-3.329,-3.329,-3.329,-3.329,-3.329,-3.329,-3.329,-3.3472,-3.3825,-3.4031,-3.4274,-2.832,-2.8633,-2.8926,-2.9629,-2.9785,-2.9902,-3.0351,-3.0449,-3.0527,-3.082,-3.0898,-3.0898,-3.0898,-3.0898,-3.0898,-3.0898,-3.0898,-3.0898,-3.0898,-3.0898,-3.0898,-3.0898,-3.0898,-3.0898,-3.0898,-3.1054,-3.117,-3.117,-3.1344,-3.1498,-3.1614,-3.1614,-3.1672,-3.1787,-3.2018,-3.2133,-3.2133,-3.244,-3.2555,-3.2555,-3.2555,-3.2363,-3.2133,-3.2019,-3.1989,-3.2081,-3.1628,-3.1554,-3.1588,-3.1003,-3.0607,-3.0314,-2.9634,-2.9113,-2.8834,-2.8568,-2.8408,-2.8262,-2.7988,-2.8291,-2.8785,-2.8501,-2.901,-2.9664,-2.9664,-3.0324,-3.0948,-3.0586,-3.1205,-3.1779,-3.147,-3.1526,-3.1717,-3.1717,-3.1717,-3.1717,-3.1717,-3.1717,-3.1717,-3.1717,-3.1717,-3.1717,-3.1717,-3.1717,-3.1597,-3.1259,-3.0863,-3.0823,-3.1227,-3.1683,-3.1988,-3.2101,-3.2533,-3.298,-3.329,-3.329,-3.329,-3.329,-3.329,-3.329,-3.329,-3.329,-3.329,-3.329,-3.329,-3.329,-3.329,-3.329,-3.3472,-3.3825,-3.3825,-3.3997,-2.8867,-2.9277,-2.9707,-3.0137,-3.0234,-3.0351,-3.0801,-3.0898,-3.0898,-3.0898,-3.0898,-3.0898,-3.0898,-3.0898,-3.0898,-3.0898,-3.0898,-3.0898,-3.0898,-3.0898,-3.0898,-3.0898,-3.0898,-3.0898,-3.0898,-3.0898,-3.0898,-3.0898,-3.0898,-3.0995,-3.1267,-3.1267,-3.1441,-3.173,-3.1787,-3.1787,-3.1787,-3.2133,-3.2305,-3.2248,-3.2305,-3.2133,-3.1787,-3.1787,-3.196,-3.2227,-3.1799,-3.1728,-3.1932,-3.1236,-3.084,-3.0653,-3.0073,-2.9501,-2.9066,-2.882,-2.8534,-2.8301,-2.8301,-2.8301,-2.8301,-2.8301,-2.862,-2.9086,-2.9086,-2.9484,-2.9965,-2.9943,-3.0341,-3.0786,-3.0718,-3.12,-3.1653,-3.1629,-3.1649,-3.1717,-3.1717,-3.1717,-3.1717,-3.1717,-3.1717,-3.1717,-3.1717,-3.1717,-3.1717,-3.1717,-3.1284,-3.0816,-3.0558,-3.1188,-3.1765,-3.2,-3.2092,-3.2417,-3.3185,-3.329,-3.329,-3.329,-3.329,-3.329,-3.329,-3.329,-3.329,-3.329,-3.329,-3.329,-3.329,-3.329,-3.329,-3.329,-3.329,-3.329,-2.9668,-2.9961,-3.0156,-3.0605,-3.0703,-3.0742,-3.0859,-3.0898,-3.0898,-3.0898,-3.0898,-3.0898,-3.0898,-3.0898,-3.0898,-3.0898,-3.0898,-3.0898,-3.0898,-3.0898,-3.0898,-3.0898,-3.0898,-3.0898,-3.0898,-3.0898,-3.0898,-3.0898,-3.0898,-3.0957,-3.0995,-3.0995,-3.1054,-3.1112,-3.1325,-3.1441,-3.1441,-3.2018,-3.2076,-3.1556,-3.2076,-3.2018,-3.1441,-3.1672,-3.1845,-3.1903,-3.1782,-3.1799,-3.1815,-3.1236,-3.105,-3.0929,-3.0218,-2.9709,-2.9277,-2.8987,-2.8609,-2.8301,-2.8301,-2.8301,-2.8301,-2.8301,-2.8363,-2.8476,-2.8476,-2.9164,-2.9806,-2.942,-3.0035,-3.0634,-2.9906,-3.0324,-3.0927,-3.0624,-3.1137,-3.1717,-3.1717,-3.1717,-3.1717,-3.1717,-3.1717,-3.1717,-3.1717,-3.1717,-3.1717,-3.1717,-3.1597,-3.1346,-3.084,-3.1165,-3.1269,-3.0944,-3.1967,-3.2626,-3.2417,-3.298,-3.329,-3.329,-3.329,-3.329,-3.329,-3.329,-3.329,-3.329,-3.329,-3.329,-3.329,-3.329,-3.329,-3.329,-3.329,-3.329,-3.0078,-3.0351,-3.0566,-3.082,-3.0898,-3.0898,-3.0898,-3.0742,-3.0586,-3.0586,-3.0449,-3.0312,-3.0312,-3.0469,-3.0586,-3.0586,-3.0762,-3.0898,-3.0898,-3.0898,-3.0898,-3.0898,-3.0898,-3.0898,-3.0898,-3.0898,-3.0898,-3.0898,-3.0898,-3.0898,-3.0898,-3.0898,-3.0898,-3.0898,-3.1054,-3.117,-3.1325,-3.1672,-3.1672,-3.1325,-3.1672,-3.1614,-3.1112,-3.1344,-3.146,-3.1556,-3.1556,-3.1672,-3.1767,-3.1354,-3.1134,-3.1027,-3.0469,-3.0,-2.9624,-2.9439,-2.9055,-2.8574,-2.8574,-2.8437,-2.8301,-2.8301,-2.8301,-2.8301,-2.8301,-2.8708,-2.9157,-2.881,-2.9363,-2.9934,-2.9353,-2.9681,-3.0206,-3.0399,-3.0762,-3.1137,-3.1605,-3.1717,-3.1717,-3.1717,-3.1717,-3.1717,-3.1717,-3.1717,-3.1717,-3.1717,-3.1717,-3.1597,-3.1308,-3.1162,-3.1059,-3.0879,-3.1448,-3.1856,-3.1926,-3.2445,-3.2775,-3.2775,-3.3086,-3.329,-3.329,-3.329,-3.329,-3.329,-3.329,-3.329,-3.329,-3.329,-3.329,-3.329,-3.329,-3.329,-3.0025,-3.0451,-3.0898,-3.0898,-3.0898,-3.0898,-3.0898,-3.0527,-3.0195,-3.0195,-2.9863,-2.9626,-2.9626,-2.9863,-3.0137,-3.0176,-3.0527,-3.082,-3.0879,-3.0898,-3.0898,-3.0898,-3.0898,-3.0898,-3.0898,-3.0898,-3.0898,-3.0898,-3.0898,-3.0898,-3.0898,-3.0898,-3.0898,-3.0898,-3.0898,-3.0995,-3.1208,-3.1267,-3.1267,-3.1267,-3.1267,-3.117,-3.0898,-3.0898,-3.1054,-3.1267,-3.1267,-3.1383,-3.1672,-3.1383,-3.1164,-3.1034,-3.075,-3.0379,-3.0059,-3.0059,-2.9616,-2.9004,-2.9004,-2.873,-2.8359,-2.832,-2.8301,-2.8301,-2.8301,-2.8301,-2.8301,-2.8301,-2.864,-2.8973,-2.8911,-2.9097,-2.9502,-3.0292,-3.0283,-3.0376,-3.1345,-3.1632,-3.1717,-3.1717,-3.1717,-3.1717,-3.1717,-3.1717,-3.1717,-3.1717,-3.1717,-3.1717,-3.1717,-3.1308,-3.1059,-3.1249,-3.0913,-3.0987,-3.1591,-3.1905,-3.2063,-3.2063,-3.2759,-3.3122,-3.3122,-3.3255,-3.329,-3.329,-3.329,-3.329,-3.329,-3.329,-3.329,-3.329,-3.329,-3.329,-2.9325,-2.9963,-3.0898,-3.0898,-3.0898,-3.0898,-3.0898,-3.0527,-3.0195,-3.0195,-2.9863,-2.9626,-2.9626,-2.9685,-2.9785,-3.0137,-3.0273,-3.0449,-3.084,-3.0898,-3.0898,-3.0898,-3.0898,-3.0898,-3.0898,-3.0898,-3.0898,-3.0898,-3.0898,-3.0898,-3.0898,-3.0898,-3.0898,-3.0898,-3.0898,-3.0937,-3.0937,-3.1208,-3.1208,-3.0937,-3.1208,-3.117,-3.0898,-3.0898,-3.0957,-3.0937,-3.0937,-3.0995,-3.1054,-3.0995,-3.0956,-3.0955,-3.0878,-3.0546,-3.0154,-3.0154,-2.988,-2.9453,-2.9453,-2.918,-2.875,-2.8398,-2.8301,-2.8301,-2.8301,-2.8301,-2.8301,-2.8301,-2.8382,-2.8351,-2.8048,-2.8553,-2.9119,-2.8943,-2.916,-2.9717,-3.072,-3.1378,-3.1717,-3.1717,-3.1717,-3.1717,-3.1717,-3.1717,-3.1717,-3.1717,-3.1717,-3.1717,-3.1717,-3.1621,-3.1399,-3.0997,-3.1462,-3.1712,-3.1398,-3.163,-3.1753,-3.1753,-3.2088,-3.2318,-3.2318,-3.2945,-3.329,-3.329,-3.329,-3.329,-3.329,-3.329,-3.329,-3.329,-3.329,-3.329,-2.8983,-2.9353,-3.002,-3.0704,-3.0898,-3.0645,-2.9813,-2.924,-2.871,-2.786,-2.7828,-2.8009,-2.8009,-2.8677,-2.9375,-2.9805,-3.0059,-3.0351,-3.082,-3.0898,-3.0898,-3.0898,-3.0898,-3.0898,-3.0898,-3.0898,-3.0898,-3.0898,-3.0898,-3.0898,-3.0898,-3.0898,-3.0898,-3.0898,-3.0898,-3.0898,-3.0898,-3.1054,-3.1054,-3.0898,-3.1054,-3.0995,-3.0898,-3.0898,-3.0898,-3.0898,-3.0898,-3.0898,-3.0898,-3.0898,-3.0898,-3.0898,-3.0898,-3.0762,-3.0547,-3.0547,-3.0273,-2.9902,-2.9902,-2.9609,-2.918,-2.875,-2.8476,-2.8301,-2.8301,-2.8301,-2.8301,-2.8301,-2.8301,-2.8242,-2.8047,-2.8179,-2.8459,-2.8727,-2.907,-2.9423,-2.9897,-3.0491,-3.0913,-3.0913,-3.1339,-3.1717,-3.1717,-3.1717,-3.1717,-3.1717,-3.1717,-3.1717,-3.1717,-3.1717,-3.1621,-3.1356,-3.1412,-3.1374,-3.1129,-3.1342,-3.1493,-3.1493,-3.2018,-3.2364,-3.2515,-3.2882,-3.3171,-3.329,-3.329,-3.329,-3.329,-3.329,-3.329,-3.329,-3.329,-3.329,-2.823,-2.8265,-2.8801,-3.0157,-3.045,-3.0101,-2.8716,-2.8118,-2.7316,-2.5752,-2.5798,-2.6191,-2.6463,-2.7505,-2.8652,-2.93,-2.9785,-3.0215,-3.0684,-3.082,-3.0898,-3.0898,-3.0898,-3.0898,-3.0898,-3.0898,-3.0898,-3.0898,-3.0898,-3.0898,-3.0898,-3.0898,-3.0898,-3.0898,-3.0898,-3.0898,-3.0898,-3.0898,-3.0898,-3.0898,-3.0898,-3.0898,-3.0898,-3.0898,-3.0898,-3.0898,-3.0898,-3.0898,-3.0898,-3.0898,-3.0898,-3.0898,-3.0898,-3.0898,-3.0898,-3.0898,-3.0664,-3.0351,-3.0351,-3.0059,-2.9648,-2.9297,-2.8848,-2.8418,-2.832,-2.8301,-2.8301,-2.8301,-2.8301,-2.8301,-2.8301,-2.8047,-2.7983,-2.8623,-2.904,-2.9182,-2.9036,-2.954,-2.9965,-2.992,-3.0531,-3.1048,-3.1048,-3.125,-3.1383,-3.1383,-3.156,-3.1717,-3.1717,-3.1717,-3.1717,-3.1717,-3.1332,-3.1091,-3.1091,-3.1153,-3.1208,-3.1208,-3.1858,-3.2319,-3.257,-3.2695,-3.2996,-3.3398,-3.3406,-3.3541,-3.3719,-3.3719,-3.3719,-3.3719,-3.3719,-3.3719,-2.6012,-2.6277,-2.7486,-2.8742,-2.9098,-2.9006,-2.86,-2.8136,-2.7316,-2.5752,-2.5113,-2.5168,-2.63,-2.6609,-2.7212,-2.8742,-2.9336,-2.9785,-3.0195,-3.0625,-3.0898,-3.0898,-3.0898,-3.0898,-3.0898,-3.0898,-3.0898,-3.0898,-3.0898,-3.0898,-3.0898,-3.0898,-3.0898,-3.0898,-3.0898,-3.0898,-3.0898,-3.0898,-3.0898,-3.0898,-3.0898,-3.0898,-3.0898,-3.0898,-3.0898,-3.0898,-3.0898,-3.0898,-3.0898,-3.0898,-3.0898,-3.0898,-3.0898,-3.0898,-3.0898,-3.0898,-3.0859,-3.082,-3.082,-3.0527,-3.0137,-3.0098,-2.9531,-2.8789,-2.8398,-2.8301,-2.8301,-2.8301,-2.8301,-2.8301,-2.8301,-2.8262,-2.8178,-2.7911,-2.849,-2.8897,-2.8188,-2.8732,-2.9274,-2.8907,-2.8912,-2.8958,-2.8958,-2.9738,-3.0351,-3.0351,-3.1092,-3.1717,-3.1717,-3.1717,-3.1717,-3.1717,-3.1669,-3.1645,-3.1645,-3.1182,-3.0936,-3.0936,-3.1224,-3.1417,-3.1423,-3.2171,-3.2934,-3.3729,-3.3729,-3.4173,-3.502,-3.502,-3.502,-3.502,-3.502,-3.502,-2.5008,-2.5339,-2.6156,-2.7426,-2.761,-2.7151,-2.6124,-2.5575,-2.4801,-2.3203,-2.3295,-2.3799,-2.43,-2.5533,-2.6828,-2.7732,-2.8145,-2.8842,-3.0023,-2.9929,-3.002,-3.082,-3.0898,-3.0898,-3.0898,-3.0898,-3.0898,-3.0898,-3.0898,-3.0898,-3.0898,-3.0898,-3.0898,-3.0898,-3.0898,-3.0898,-3.0898,-3.0898,-3.0898,-3.0898,-3.0898,-3.0898,-3.0898,-3.0898,-3.0898,-3.0898,-3.0898,-3.0898,-3.0898,-3.0898,-3.0898,-3.0898,-3.0898,-3.0898,-3.0898,-3.0898,-3.0898,-3.0898,-3.0898,-3.0762,-3.0566,-3.0293,-2.9961,-2.9551,-2.8867,-2.8496,-2.8301,-2.8301,-2.8301,-2.8301,-2.8301,-2.8301,-2.8262,-2.8086,-2.8147,-2.8161,-2.7872,-2.8325,-2.8712,-2.8295,-2.8666,-2.8983,-2.8724,-2.951,-3.0215,-3.0215,-3.1048,-3.1717,-3.1717,-3.1717,-3.1717,-3.1717,-3.1717,-3.1717,-3.1717,-3.1524,-3.1404,-3.1404,-3.149,-3.1625,-3.178,-3.2086,-3.2504,-3.3001,-3.3001,-3.3196,-3.3584,-3.3557,-3.3557,-3.3584,-3.4083,-3.4376,-2.3954,-2.4036,-2.4527,-2.584,-2.5939,-2.5477,-2.4236,-2.3789,-2.3174,-2.1549,-2.1873,-2.2595,-2.2918,-2.4356,-2.5677,-2.6331,-2.6816,-2.7516,-2.8727,-2.8883,-2.9235,-3.0216,-3.0645,-3.0898,-3.0898,-3.0898,-3.0898,-3.0898,-3.0898,-3.0898,-3.0898,-3.0898,-3.0898,-3.0898,-3.0898,-3.0898,-3.0898,-3.0898,-3.0898,-3.0898,-3.0898,-3.0898,-3.0898,-3.0898,-3.0898,-3.0898,-3.0898,-3.0898,-3.0898,-3.0898,-3.0898,-3.0898,-3.0898,-3.0898,-3.0898,-3.0898,-3.0898,-3.0898,-3.0898,-3.0898,-3.084,-3.0508,-3.0312,-3.0078,-2.9473,-2.8906,-2.8457,-2.832,-2.8301,-2.8301,-2.8301,-2.8301,-2.8301,-2.8301,-2.8066,-2.7812,-2.7748,-2.8021,-2.8167,-2.772,-2.816,-2.8479,-2.8089,-2.8852,-2.9459,-2.9349,-3.0396,-3.125,-3.125,-3.1516,-3.1717,-3.1717,-3.1717,-3.1717,-3.1717,-3.1717,-3.1717,-3.1717,-3.1717,-3.1787,-3.1974,-3.1974,-3.2198,-3.2618,-3.2658,-3.278,-3.3022,-3.3036,-3.3036,-3.3062,-3.3661,-3.3831,-2.2453,-2.2258,-2.2543,-2.3803,-2.414,-2.4045,-2.3677,-2.3598,-2.3174,-2.1549,-2.1218,-2.1603,-2.2765,-2.303,-2.3424,-2.4561,-2.5417,-2.5915,-2.5915,-2.7646,-2.892,-2.892,-3.0079,-3.0898,-3.0898,-3.0898,-3.0898,-3.0898,-3.0898,-3.0898,-3.0898,-3.0898,-3.0898,-3.0898,-3.0898,-3.0898,-3.0898,-3.0898,-3.0898,-3.0898,-3.0898,-3.0898,-3.0898,-3.0898,-3.0898,-3.0898,-3.0898,-3.0898,-3.0898,-3.0898,-3.0898,-3.0898,-3.0898,-3.0898,-3.0898,-3.0898,-3.0898,-3.0898,-3.0898,-3.0898,-3.0898,-3.0879,-3.0566,-3.0195,-3.0176,-2.959,-2.8828,-2.8418,-2.8301,-2.8301,-2.8301,-2.8301,-2.8301,-2.8301,-2.8281,-2.8164,-2.7806,-2.7708,-2.7591,-2.709,-2.7012,-2.6926,-2.6495,-2.7239,-2.7759,-2.7309,-2.8958,-3.0215,-3.0215,-3.1092,-3.1717,-3.1717,-3.1717,-3.1717,-3.1717,-3.1717,-3.1717,-3.1717,-3.1717,-3.1693,-3.1693,-3.1693,-3.2108,-3.2968,-3.3011,-3.3411,-3.4293,-3.4293,-3.4293,-3.4293,-3.4293,-3.3979,-2.1936,-2.2008,-2.2303,-2.2707,-2.2645,-2.2449,-2.2344,-2.2133,-2.1837,-2.129,-2.1203,-2.1318,-2.1702,-2.2425,-2.3143,-2.3463,-2.4122,-2.4828,-2.5741,-2.688,-2.7907,-2.8801,-3.0079,-3.0528,-2.9608,-3.0333,-3.0898,-3.0898,-3.0898,-3.0898,-3.0898,-3.0898,-3.0898,-3.0898,-3.0898,-3.0898,-3.0898,-3.0898,-3.0898,-3.0898,-3.0898,-3.0898,-3.0898,-3.0898,-3.0898,-3.0898,-3.0898,-3.0898,-3.0898,-3.0898,-3.0898,-3.0898,-3.0898,-3.0898,-3.0898,-3.0898,-3.0898,-3.0898,-3.0898,-3.0898,-3.0898,-3.0898,-3.0801,-3.0605,-3.0293,-2.959,-2.8828,-2.8418,-2.8301,-2.8301,-2.8301,-2.8301,-2.8301,-2.8301,-2.8301,-2.8262,-2.8125,-2.8086,-2.7969,-2.7539,-2.7461,-2.7324,-2.6894,-2.7411,-2.7862,-2.7717,-2.8524,-2.9189,-2.9189,-2.9464,-2.9943,-3.0576,-3.0666,-3.0958,-3.1649,-3.1717,-3.1717,-3.1717,-3.1717,-3.1717,-3.1717,-3.1717,-3.1825,-3.2133,-3.2133,-3.2239,-3.2544,-3.2544,-3.2821,-3.3395,-3.3395,-3.363,-2.1511,-2.1657,-2.1818,-2.1818,-2.1672,-2.1511,-2.1511,-2.135,-2.1203,-2.1203,-2.1203,-2.1203,-2.1203,-2.1816,-2.2312,-2.2312,-2.2825,-2.3567,-2.4375,-2.5528,-2.6762,-2.8026,-2.8938,-2.9116,-2.8265,-2.8938,-2.9608,-3.0098,-3.0157,-3.0392,-3.0879,-3.0898,-3.0898,-3.0898,-3.0898,-3.0898,-3.0898,-3.0898,-3.0898,-3.0898,-3.0898,-3.0898,-3.0898,-3.0898,-3.0898,-3.0898,-3.0898,-3.0898,0.0,-3.0898,-3.0898,-3.0898,-3.0898,-3.0898,-3.0898,-3.0898,-3.0898,-3.0898,-3.0898,-3.0898,-3.0898,-3.0898,-3.0898,-3.0801,-3.0332,-2.959,-2.8867,-2.8594,-2.8418,-2.8301,-2.8301,-2.8301,-2.8301,-2.8301,-2.8301,-2.8301,-2.8301,-2.8301,-2.8223,-2.8002,-2.791,-2.7773,-2.7324,-2.7591,-2.7733,-2.7571,-2.8049,-2.84,-2.84,-2.8556,-2.8958,-2.9555,-2.9988,-3.0441,-3.1092,-3.1472,-3.1717,-3.1717,-3.1717,-3.1717,-3.1717,-3.1717,-3.1717,-3.1717,-3.1717,-3.1717,-3.1717,-3.1629,-3.1825,-3.237,-3.237,-3.2649,0.0,-2.1203,-2.1203,-2.1203,-2.1203,-2.1203,-2.1203,-2.1203,0.0,-2.1203,-2.1203,-2.1203,-2.1203,-2.1203,-2.1218,-2.1247,-2.1774,-2.2198,-2.2213,-2.3871,-2.5562,-2.6719,-2.6961,-2.6961,-2.69,-2.6961,-2.7486,-2.8683,-2.8861,-2.9412,-3.0704,-3.082,-3.0898,-3.0898,-3.0898,-3.0898,-3.0898,-3.0898,-3.0898,-3.0898,-3.0898,-3.0898,-3.0898,-3.0898,-3.0898,-3.0898,-3.0898,-3.0898,-3.0898,-3.0898,-3.0898,-3.0898,-3.0898,-3.0898,-3.0898,-3.0898,-3.0898,-3.0898,-3.0898,-3.0898,-3.0898,-3.0898,-3.0898,-3.082,-3.0371,-2.9668,-2.9004,-2.8945,-2.8633,-2.834,-2.8301,-2.8301,-2.8301,-2.8301,-2.8301,-2.8301,-2.8301,-2.8301,-2.8301,-2.8301,-2.8301,-2.8164,-2.7826,-2.7728,-2.7519,-2.7129,-2.7482,-2.7819,-2.7819,-2.8248,-2.8538,-2.8631,-2.9441,-3.0034,-3.0079,-3.1092,-3.1717,-3.1717,-3.1673,-3.1673,-3.1673,-3.1673,-3.1673,-3.1673,-3.1717,-3.1717,-3.1717,-3.1427,-3.1294,-3.1294,-3.1294,-3.1273,-2.1203,0.0,-2.1203,-2.1203,-2.1203,-2.1203,0.0,-2.1203,-2.1203,-2.1203,-2.1203,-2.1203,-2.1203,-2.1203,-2.1291,-2.154,-2.192,-2.2257,-2.2491,-2.4009,-2.5194,-2.5501,-2.6415,-2.6598,-2.5623,-2.6415,-2.7125,-2.7426,-2.8325,-2.9039,-2.9353,-3.0333,-3.0898,-3.0898,-3.0898,-3.0898,-3.0898,-3.0898,-3.0898,-3.0898,-3.0898,-3.0898,-3.0898,-3.0898,-3.0898,-3.0898,-3.0898,-3.0898,-3.0898,-3.0898,-3.0898,-3.0898,-3.0898,-3.0898,-3.0898,-3.0898,-3.0898,-3.0898,-3.0898,-3.0898,-3.0898,-3.0898,-3.0898,-3.0859,-3.0762,-3.0332,-2.9766,-2.9101,-2.8848,-2.8691,-2.8379,-2.8301,-2.8301,-2.8301,-2.8301,-2.8301,-2.8301,-2.8301,-2.8301,-2.8301,-2.8301,-2.8262,-2.8164,-2.7871,-2.7689,-2.7519,-2.7334,-2.721,-2.721,-2.7063,-2.7224,-2.798,-2.7978,-2.8215,-2.9004,-3.0689,-3.1717,-3.1717,-3.1516,-3.1383,-3.1383,-3.1383,-3.1383,-3.1383,-3.1629,-3.1717,-3.1717,-3.1427,-3.1294,-3.1294,-3.1139,-3.1074,-2.1031,-2.1089,-2.1203,-2.1203,-2.1203,-2.1203,-2.1203,-2.1203,-2.1203,-2.1203,-2.1203,-2.1203,-2.1203,-2.1335,-2.1496,-2.1672,-2.2081,-2.2491,-2.2798,-2.3608,-2.4147,-2.4147,-2.4826,-2.4949,-2.427,-2.4826,-2.5485,-2.6095,-2.6762,-2.7426,-2.8026,-2.8701,-2.9135,-2.9135,-2.9135,-2.9686,-3.0898,-3.0898,-3.0898,-3.0898,-3.0898,-3.0898,-3.0898,-3.0898,-3.0898,-3.0898,-3.0898,-3.0898,-3.0898,-3.0898,-3.0898,-3.0898,-3.0898,-3.0898,-3.0898,-3.0898,-3.0898,-3.0898,-3.0898,-3.0898,-3.0898,-3.0898,-3.0898,-3.0898,-3.0898,-3.0723,-3.0371,-2.9687,-2.9219,-2.8867,-2.8633,-2.8437,-2.8301,-2.8301,-2.8301,-2.8301,-2.8301,-2.8301,-2.8301,-2.8301,-2.8301,-2.8301,-2.8301,-2.8105,-2.8002,-2.8002,-2.7598,-2.7305,-2.7305,-2.6934,-2.6802,-2.7012,-2.7288,-2.7571,-2.7626,-2.928,-3.0531,-3.0958,-3.1205,-3.1294,-3.1294,-3.1229,-3.1139,-3.1139,-3.1318,-3.1407,-3.154,-3.116,-3.1026,-3.1139,-3.0916,-3.0826,-2.0773,-2.0902,-2.1146,-2.1203,-2.1203,-2.1203,-2.1203,-2.1203,-2.1203,-2.1203,-2.1247,-2.1276,-2.1276,-2.1554,-2.1789,-2.1832,-2.2315,-2.2798,-2.3062,-2.3106,-2.3106,-2.3106,-2.3106,-2.3106,-2.3106,-2.3106,-2.3604,-2.4702,-2.501,-2.5562,-2.6641,-2.69,-2.7021,-2.7021,-2.7021,-2.8044,-3.0274,-3.0528,-3.0704,-3.0898,-3.0898,-3.0898,-3.0898,-3.0898,-3.0898,-3.0898,-3.0898,-3.0898,-3.0898,-3.0898,-3.0898,-3.0898,-3.0898,-3.0898,-3.0898,-3.0898,-3.0898,-3.0898,-3.0898,-3.0898,-3.0898,-3.0898,-3.0898,-3.0898,-3.0898,-3.0898,-3.082,-3.041,-2.9726,-2.9082,-2.8945,-2.8652,-2.8379,-2.8301,-2.8301,-2.8301,-2.8301,-2.8301,-2.8301,-2.8301,-2.8301,-2.8301,-2.8301,-2.8301,-2.8301,-2.8301,-2.7988,-2.7806,-2.7806,-2.7383,-2.6871,-2.6249,-2.7082,-2.7284,-2.6335,-2.7615,-2.8792,-2.9555,-3.0509,-3.1071,-3.116,-3.1005,-3.0984,-3.0984,-3.0984,-3.105,-3.1273,-3.0802,-3.0713,-3.0916,-3.0668,-3.0532,-2.0716,-2.0716,-2.0845,-2.1146,-2.1203,-2.1203,-2.1203,-2.1203,-2.1203,-2.1203,-2.1423,-2.1628,-2.1628,-2.1891,-2.2184,-2.2447,-2.2798,-2.3047,-2.3106,-2.3106,-2.3106,-2.3106,-2.3106,-2.3106,-2.3106,-2.3106,-2.3168,-2.3417,-2.4456,-2.5194,-2.5378,-2.6415,-2.7021,-2.7021,-2.7021,-2.7203,-2.7624,-2.8701,-2.9785,-3.0898,-3.0898,-3.0898,-3.0898,-3.0898,-3.0898,-3.0898,-3.0898,-3.0898,-3.0898,-3.0898,-3.0898,-3.0898,-3.0898,-3.0898,-3.0898,-3.0898,-3.0898,-3.0898,-3.0898,-3.0898,-3.0898,-3.0898,-3.0898,-3.0898,-3.0898,-3.0898,-3.0879,-3.0801,-3.041,-2.9824,-2.9101,-2.8867,-2.873,-2.8379,-2.8301,-2.8301,-2.8301,-2.8301,-2.8301,-2.8301,-2.8301,-2.8301,-2.8301,-2.8301,-2.8301,-2.8301,-2.8242,-2.8203,-2.8203,-2.7832,-2.7435,-2.7078,-2.6904,-2.6466,-2.5722,-2.6635,-2.7186,-2.701,-2.8749,-3.008,-3.0668,-3.0668,-3.0781,-3.0984,-3.0984,-3.1029,-3.1074,-3.0781,-3.0623,-3.0668,-3.0397,-3.0261,-2.0328,-2.0558,-2.096,-2.096,-2.0902,-2.1018,-2.138,-2.1467,-2.1525,-2.1701,-2.1862,-2.1964,-2.1964,-2.2213,-2.252,-2.2828,-2.3018,-2.3106,-2.3106,-2.3106,-2.3106,-2.3106,-2.3106,-2.3106,-2.3106,-2.3106,-2.3106,-2.3106,-2.3666,-2.4038,-2.4038,-2.4579,-2.4871,-2.4871,-2.4871,-2.5256,-2.5989,-2.6581,-2.7486,-2.8778,-2.8778,-2.876,-2.8801,-2.876,-2.8778,-2.8778,-2.8778,-2.8778,-2.8778,-2.8778,-2.8778,-2.8778,-2.8778,-2.9194,-2.9903,-3.0645,-3.0898,-3.0898,-3.0898,-3.0898,-3.0898,-3.0898,-3.0898,-3.0898,-3.0898,-3.0898,-3.0898,-3.0898,-3.0547,-3.0098,-2.9707,-2.9258,-2.8867,-2.8672,-2.8457,-2.8301,-2.8301,-2.8301,-2.8301,-2.8301,-2.8301,-2.8301,-2.8301,-2.8301,-2.8301,-2.8301,-2.8301,-2.8301,-2.8301,-2.8019,-2.7593,-2.7046,-2.6803,-2.6361,-2.5517,-2.6072,-2.6715,-2.7173,-2.8516,-2.9417,-2.976,-3.017,-3.0442,-3.0556,-3.0556,-3.0646,-3.0781,-3.0487,-3.0442,-3.0578,-3.0306,-3.0216,-1.9924,-2.0342,-2.0859,-2.0716,-2.0831,-2.1076,-2.1452,-2.1701,-2.1876,-2.2065,-2.2182,-2.2286,-2.2286,-2.2535,-2.2813,-2.3062,-2.3106,-2.3106,-2.3106,-2.3106,-2.3106,-2.3106,-2.3106,-2.3106,-2.3106,-2.3106,-2.3106,-2.3106,-2.3106,-2.3106,-2.3106,-2.3106,-2.3106,-2.3106,-2.3106,-2.3604,-2.4641,-2.4641,-2.5439,-2.7021,-2.7021,-2.7004,-2.6987,-2.7004,-2.7021,-2.7021,-2.7021,-2.7021,-2.7021,-2.7021,-2.7021,-2.7021,-2.7021,-2.7787,-2.8979,-2.9726,-3.0157,-3.0392,-3.0098,-2.9981,-2.9981,-2.9981,-2.9981,-3.0039,-3.0333,-3.045,-3.0528,-3.082,-3.0644,-3.0332,-3.0234,-2.9707,-2.916,-2.8965,-2.8672,-2.8418,-2.832,-2.8301,-2.8301,-2.8301,-2.8301,-2.8301,-2.8228,-2.8247,-2.8301,-2.8228,-2.8247,-2.8301,-2.8301,-2.8067,-2.763,-2.7005,-2.6861,-2.648,-2.5598,-2.5782,-2.6345,-2.7359,-2.8357,-2.8833,-2.8653,-2.9187,-2.9509,-2.9509,-2.9509,-2.9692,-3.0147,-2.9943,-3.008,-3.0487,-3.0306,-3.0216,-1.9809,-1.9866,-2.004,-2.0544,-2.1191,-2.1554,-2.1276,-2.1698,-2.2095,-2.1795,-2.2207,-2.2593,-2.2593,-2.2857,-2.3076,-2.3106,-2.3106,-2.3106,-2.3106,-2.3106,-2.3106,-2.3106,-2.3106,-2.3106,-2.3106,-2.3106,-2.3106,-2.3106,-2.3106,-2.3106,-2.3106,-2.3106,-2.3106,-2.3106,-2.3106,-2.3168,-2.323,-2.323,-2.4517,-2.7021,-2.7021,-2.7021,-2.7004,-2.7021,-2.7021,-2.7021,-2.7021,-2.7021,-2.7021,-2.7021,-2.7021,-2.7021,-2.7021,-2.7787,-2.8742,-2.7667,-2.8026,-2.8861,-2.7684,-2.7263,-2.7263,-2.7263,-2.7263,-2.7504,-2.8683,-2.9039,-2.9294,-3.0528,-3.0859,-3.0742,-3.0312,-3.0156,-2.9902,-2.9101,-2.8906,-2.8769,-2.8379,-2.8301,-2.8301,-2.8301,-2.8301,-2.8228,-2.796,-2.8121,-2.8228,-2.796,-2.8121,-2.8301,-2.8301,-2.8067,-2.7745,-2.7384,-2.7114,-2.673,-2.6002,-2.5635,-2.5604,-2.5961,-2.7429,-2.7971,-2.7342,-2.7369,-2.7416,-2.7416,-2.7416,-2.7908,-2.8817,-2.8817,-2.9279,-3.0216,-3.0216,-3.0216,-1.9591,-1.9822,-2.0197,-2.0625,-2.1083,-2.1384,-2.1503,-2.1987,-2.2384,-2.2281,-2.2595,-2.293,-2.293,-2.3018,-2.3106,-2.3106,-2.3106,-2.3106,-2.3106,-2.3106,-2.3106,-2.3106,-2.3106,-2.3106,-2.3106,-2.3106,-2.3106,-2.3106,-2.3106,-2.3106,-2.3106,-2.3106,-2.3106,-2.3106,-2.3106,-2.3106,-2.3106,-2.3106,-2.3604,-2.4579,-2.4579,-2.4579,-2.4579,-2.4579,-2.4579,-2.4579,-2.4579,-2.4579,-2.4579,-2.4579,-2.4579,-2.4641,-2.5501,-2.6095,-2.6581,-2.6883,-2.7306,-2.7667,-2.7203,-2.7021,-2.7021,-2.7021,-2.7021,-2.7082,-2.7547,-2.8265,-2.8979,-2.953,-3.0274,-3.0859,-3.0684,-3.041,-3.0039,-2.9473,-2.9121,-2.8809,-2.8379,-2.8301,-2.8301,-2.8301,-2.8301,-2.8301,-2.8174,-2.8067,-2.8014,-2.7906,-2.7799,-2.7745,-2.7745,-2.753,-2.7314,-2.7152,-2.6899,-2.6681,-2.6371,-2.6206,-2.6076,-2.5906,-2.6851,-2.7251,-2.6927,-2.7344,-2.7441,-2.72,-2.7179,-2.7389,-2.7767,-2.7767,-2.8283,-2.9279,-2.9279,-2.96,-1.943,-1.9764,-2.0238,-2.0545,-2.103,-2.1389,-2.1608,-2.2184,-2.2595,-2.2438,-2.2731,-2.2918,-2.2918,-2.3043,-2.3106,-2.3106,-2.3106,-2.3106,-2.3106,-2.3106,-2.3106,-2.3106,-2.3106,-2.3106,-2.3106,-2.3106,-2.3106,-2.3106,-2.3106,-2.3106,-2.3106,-2.3106,-2.3106,-2.3106,-2.3106,-2.3106,-2.3106,-2.3106,-2.3106,-2.3106,-2.3106,-2.3106,-2.3106,-2.3106,-2.3106,-2.3106,-2.3106,-2.3106,-2.3106,-2.3106,-2.3106,-2.3168,-2.4085,-2.4702,-2.5133,-2.5607,-2.605,-2.6355,-2.5912,-2.579,-2.579,-2.579,-2.579,-2.5851,-2.6277,-2.7004,-2.7769,-2.8206,-2.8938,-2.9686,-2.9686,-3.0045,-3.0312,-2.9863,-2.9434,-2.9004,-2.8574,-2.8379,-2.8301,-2.8301,-2.8301,-2.8281,-2.8194,-2.8014,-2.7853,-2.7745,-2.753,-2.7368,-2.7368,-2.7152,-2.6989,-2.6899,-2.6682,-2.6591,-2.6591,-2.6591,-2.6463,-2.6223,-2.6563,-2.6666,-2.6311,-2.6793,-2.6873,-2.6463,-2.6463,-2.6528,-2.6723,-2.6723,-2.7247,-2.8236,-2.8236,-2.8609,-1.943,-1.9591,-1.9891,-2.0192,-2.103,-2.1701,-2.1647,-2.2128,-2.248,-2.2167,-2.2355,-2.2606,-2.2606,-2.2856,-2.3106,-2.3106,-2.3106,-2.3106,-2.3106,-2.3106,-2.3106,-2.3106,-2.3106,-2.3106,-2.3106,-2.3106,-2.3106,-2.3106,-2.3106,-2.3106,-2.3106,-2.3106,-2.3106,-2.3106,-2.3106,-2.3106,-2.3106,-2.3106,-2.3106,-2.3106,-2.3106,-2.3106,-2.3106,-2.3106,-2.3106,-2.3106,-2.3106,-2.3106,-2.3106,-2.3106,-2.3106,-2.3106,-2.3106,-2.3899,-2.4949,-2.3604,-2.3961,-2.4887,-2.3542,-2.3106,-2.3106,-2.3106,-2.3106,-2.3355,-2.4702,-2.5071,-2.5378,-2.6658,-2.7021,-2.7021,-2.7021,-2.8957,-3.0723,-3.0312,-2.9883,-2.9453,-2.8949,-2.8594,-2.8301,-2.8301,-2.8301,-2.8228,-2.796,-2.7906,-2.7799,-2.7422,-2.7368,-2.7368,-2.7368,-2.7152,-2.6881,-2.6646,-2.6591,-2.6591,-2.6591,-2.6591,-2.6591,-2.6591,-2.6591,-2.6224,-2.547,-2.5433,-2.5249,-2.4794,-2.4794,-2.5127,-2.5703,-2.5703,-2.6215,-2.7179,-2.7179,-2.7179,-1.943,-1.9578,-1.991,-2.0446,-2.0989,-2.1477,-2.1846,-2.2472,-2.2918,-2.2793,-2.2856,-2.2918,-2.2918,-2.3043,-2.3106,-2.3106,-2.3106,-2.3106,-2.3106,-2.3106,-2.3106,-2.3106,-2.3106,-2.3106,-2.3106,-2.3106,-2.3106,-2.3106,-2.3106,-2.3106,-2.3106,-2.3106,-2.3106,-2.3106,-2.3106,-2.3106,-2.3106,-2.3106,-2.3106,-2.3106,-2.3106,-2.3106,-2.3106,-2.3106,-2.3106,-2.3106,-2.3106,-2.3106,-2.3106,-2.3106,-2.3106,-2.3106,-2.3106,-2.3355,-2.3666,-2.323,-2.3355,-2.3666,-2.323,-2.3106,-2.3106,-2.3106,-2.3106,-2.3168,-2.3604,-2.4332,-2.5194,-2.5562,-2.6294,-2.7021,-2.7021,-2.7564,-2.8057,-2.7646,-2.7468,-2.7373,-2.7512,-2.7492,-2.7599,-2.8179,-2.8301,-2.8228,-2.796,-2.7691,-2.7422,-2.7152,-2.6954,-2.6845,-2.6845,-2.6736,-2.6682,-2.6591,-2.6591,-2.6591,-2.6591,-2.6591,-2.6591,-2.6591,-2.6591,-2.6353,-2.5855,-2.5837,-2.5653,-2.5197,-2.5197,-2.5149,-2.5095,-2.5095,-2.5424,-2.6167,-2.6167,-2.6532,-1.943,-1.969,-2.0104,-2.0402,-2.093,-2.1555,-2.2159,-2.248,-2.2668,-2.2668,-2.2793,-2.2918,-2.2918,-2.2981,-2.3106,-2.3106,-2.3106,-2.3106,-2.3106,-2.3106,-2.3106,-2.3106,-2.3106,-2.3106,-2.3106,-2.3106,-2.3106,-2.3106,-2.3106,-2.3106,-2.3106,-2.3106,-2.3106,-2.3106,-2.3106,-2.3106,-2.3106,-2.3106,-2.3106,-2.3106,-2.3106,-2.3106,-2.3106,-2.3106,-2.3106,-2.3106,-2.3106,-2.3106,-2.3106,-2.3106,-2.3106,-2.3106,-2.3106,-2.3106,-2.3106,-2.3106,-2.3106,-2.3106,-2.3106,-2.3106,-2.3106,-2.3106,-2.3106,-2.3106,-2.3106,-2.3666,-2.4332,-2.4332,-2.4887,-2.5423,-2.5423,-2.5362,-2.5497,-2.6414,-2.6542,-2.6479,-2.6721,-2.7019,-2.7363,-2.7689,-2.8103,-2.828,-2.7945,-2.753,-2.7206,-2.7043,-2.6791,-2.6591,-2.6591,-2.6591,-2.6591,-2.6591,-2.6591,-2.6591,-2.6591,-2.6591,-2.6591,-2.6591,-2.6591,-2.6481,-2.6278,-2.626,-2.6076,-2.5672,-2.5653,-2.547,-2.5014,-2.5014,-2.5242,-2.5564,-2.5412,-2.5662,-1.9372,-1.9834,-2.0251,-2.0234,-2.0897,-2.1692,-2.2361,-2.2292,-2.2104,-2.2167,-2.2418,-2.2606,-2.2606,-2.2856,-2.3043,-2.3043,-2.3106,-2.3106,-2.3106,-2.3106,-2.3106,-2.3106,-2.3106,-2.3106,-2.3106,-2.3106,-2.3106,-2.3106,-2.3106,-2.3106,-2.3106,-2.3106,-2.3106,-2.3106,-2.3106,-2.3106,-2.3106,-2.3106,-2.3106,-2.3106,-2.3106,-2.3106,-2.3106,-2.3106,-2.3106,-2.3106,-2.3106,-2.3106,-2.3106,-2.3106,-2.3106,-2.3106,-2.3106,-2.3106,-2.3106,-2.3106,-2.3106,-2.3106,-2.3106,-2.3106,-2.3106,-2.3106,-2.3106,-2.3106,-2.3106,-2.3106,-2.3106,-2.3106,-2.3106,-2.3106,-2.3106,-2.2856,-2.3278,-2.5973,-2.6311,-2.6058,-2.6143,-2.6691,-2.7143,-2.6859,-2.7623,-2.8153,-2.7752,-2.7333,-2.6989,-2.6989,-2.6736,-2.6591,-2.6591,-2.6591,-2.6591,-2.6591,-2.6591,-2.6591,-2.6591,-2.6591,-2.6591,-2.6591,-2.6591,-2.6591,-2.6591,-2.6591,-2.6408,-2.6076,-2.6076,-2.5874,-2.547,-2.547,-2.547,-2.5414,-2.4996,-2.4831,-1.9127,-1.9805,-2.0221,-2.0214,-2.069,-2.1281,-2.1727,-2.174,-2.1915,-2.2731,-2.2731,-2.2606,-2.2606,-2.2668,-2.2731,-2.2731,-2.2918,-2.3106,-2.3106,-2.3106,-2.3106,-2.3106,-2.3106,-2.3106,-2.3106,-2.3106,-2.3106,-2.3106,-2.3106,-2.3106,-2.3106,-2.3106,-2.3106,-2.3106,-2.3106,-2.3106,-2.3106,-2.3106,-2.3106,-2.3106,-2.3106,-2.3106,-2.3106,-2.3106,-2.3106,-2.3106,-2.3106,-2.3106,-2.3106,-2.3106,-2.3106,-2.3106,-2.3106,-2.3106,-2.3106,-2.3106,-2.3106,-2.3106,-2.3106,-2.3106,-2.3106,-2.3106,-2.3106,-2.3106,-2.3106,-2.3106,-2.3106,-2.3106,-2.3106,-2.3106,-2.3106,-2.2856,-2.2731,-2.3402,-2.3281,-2.3224,-2.393,-2.4168,-2.4471,-2.5094,-2.5953,-2.6529,-2.6142,-2.6628,-2.6935,-2.6736,-2.6646,-2.6591,-2.6591,-2.6591,-2.6591,-2.6591,-2.6591,-2.6591,-2.6591,-2.6591,-2.6591,-2.6591,-2.6591,-2.6591,-2.6591,-2.6591,-2.6554,-2.6463,-2.6444,-2.6243,-2.5892,-2.5892,-2.5727,-2.5414,-2.5289,-2.5286,-1.7493,-1.8479,-1.9489,-2.039,-2.0882,-2.1172,-2.1551,-2.1614,-2.179,-2.248,-2.248,-2.2418,-2.2543,-2.2606,-2.2668,-2.2793,-2.2981,-2.3106,-2.3106,-2.2981,-2.2918,-2.3106,-2.2981,-2.2918,-2.3106,-2.3106,-2.3106,-2.3106,-2.3106,-2.3106,-2.3106,-2.3106,-2.3106,-2.3106,-2.3106,-2.3106,-2.3106,-2.3106,-2.3106,-2.3106,-2.3106,-2.3106,-2.3106,-2.3106,-2.3106,-2.3106,-2.3106,-2.3106,-2.3106,-2.3106,-2.3106,-2.3106,-2.3106,-2.3106,-2.3106,-2.3106,-2.3106,-2.3106,-2.3106,-2.3106,-2.3106,-2.3106,-2.3106,-2.3106,-2.3106,-2.3106,-2.3106,-2.3106,-2.3106,-2.3043,-2.2918,-2.2606,-2.2292,-2.2167,-2.2104,-2.225,-2.2701,-2.3258,-2.3825,-2.4011,-2.4851,-2.5374,-2.4832,-2.4928,-2.5441,-2.6464,-2.5624,-2.5293,-2.6482,-2.6081,-2.5971,-2.6537,-2.6591,-2.6591,-2.6591,-2.6591,-2.6591,-2.6591,-2.6591,-2.6591,-2.6591,-2.6591,-2.6591,-2.6591,-2.6591,-2.6481,-2.6315,-2.6315,-2.6151,-2.5949,-2.58,-2.5708,-1.5675,-1.7028,-1.868,-2.032,-2.0919,-2.1172,-2.1425,-2.1488,-2.1614,-2.1853,-2.1978,-2.2104,-2.2355,-2.2418,-2.2543,-2.2856,-2.2918,-2.2918,-2.2981,-2.2731,-2.2606,-2.2918,-2.2731,-2.2731,-2.2981,-2.3043,-2.3106,-2.3106,-2.3106,-2.3106,-2.3106,-2.3106,-2.3106,-2.3106,-2.3106,-2.3106,-2.3106,-2.3106,-2.3106,-2.3106,-2.3106,-2.3106,-2.3106,-2.3106,-2.3106,-2.3106,-2.3106,-2.3106,-2.3106,-2.3106,-2.3106,-2.3106,-2.3106,-2.3106,-2.3106,-2.3106,-2.3106,-2.3106,-2.3106,-2.3106,-2.3106,-2.3106,-2.3106,-2.3106,-2.3106,-2.3106,-2.3106,-2.3106,-2.3106,-2.3043,-2.2668,-2.2355,-2.2041,-2.1677,-2.179,-2.1915,-2.1915,-2.2779,-2.3499,-2.3108,-2.3778,-2.4352,-2.3809,-2.3358,-2.3729,-2.5697,-2.4278,-2.3704,-2.5734,-2.5293,-2.5183,-2.619,-2.6482,-2.6591,-2.6591,-2.6591,-2.6591,-2.6591,-2.6591,-2.6591,-2.6591,-2.6591,-2.6591,-2.6591,-2.6591,-2.6591,-2.6591,-2.6591,-2.6591,-2.6573,-2.6278,-2.6113,-1.5315,-1.6963,-1.8483,-1.9093,-2.0208,-2.1109,-2.1172,-2.1172,-2.1172,-2.1235,-2.1488,-2.1677,-2.174,-2.174,-2.1853,-2.2167,-2.223,-2.2355,-2.2606,-2.2355,-2.2167,-2.223,-2.2418,-2.2606,-2.2668,-2.2918,-2.3106,-2.3106,-2.3106,-2.3106,-2.3106,-2.3106,-2.3106,-2.3106,-2.3106,-2.3106,-2.3106,-2.3106,-2.3106,-2.3106,-2.3106,-2.3106,-2.3106,-2.3106,-2.3106,-2.3106,-2.3106,-2.3106,-2.3106,-2.3106,-2.3106,-2.3106,-2.3106,-2.3106,-2.3106,-2.3106,-2.3106,-2.3106,-2.3106,-2.3106,-2.3106,-2.3106,-2.3106,-2.3106,-2.3106,-2.3106,-2.3106,-2.3106,-2.3106,-2.3043,-2.2668,-2.2355,-2.2041,-2.1677,-2.1425,-2.1235,-2.1235,-2.1348,-2.1475,-2.1434,-2.2181,-2.2931,-2.3378,-2.3393,-2.3381,-2.3472,-2.3199,-2.3087,-2.3424,-2.4278,-2.4834,-2.5,-2.5971,-2.6591,-2.6591,-2.6591,-2.6591,-2.6591,-2.6591,-2.6591,-2.6591,-2.6591,-2.6591,-2.6591,-2.6591,-2.6591,-2.6591,-2.6591,-2.6591,-2.6591,-2.6536,-2.6499,-1.4507,-1.5587,-1.6475,-1.7599,-1.8908,-1.9941,-1.9941,-2.0526,-2.1109,-2.1109,-2.1235,-2.1362,-2.1551,-2.1614,-2.174,-2.2041,-2.2104,-2.2167,-2.2292,-2.2041,-2.1915,-2.2104,-2.2041,-2.2104,-2.2292,-2.2418,-2.2543,-2.2543,-2.2543,-2.2543,-2.2543,-2.2543,-2.2543,-2.2543,-2.2543,-2.2543,-2.2543,-2.2731,-2.2918,-2.3106,-2.3106,-2.3106,-2.3106,-2.3106,-2.3106,-2.3106,-2.3106,-2.3106,-2.3106,-2.3106,-2.3106,-2.3106,-2.3106,-2.3106,-2.3106,-2.3106,-2.3106,-2.3106,-2.3106,-2.3106,-2.3106,-2.3106,-2.3106,-2.3106,-2.3106,-2.3106,-2.3106,-2.3106,-2.3106,-2.3043,-2.2668,-2.2355,-2.2041,-2.1677,-2.1362,-2.1109,-2.1109,-2.1109,-2.1109,-2.1109,-2.1306,-2.1789,-2.2707,-2.2053,-2.1773,-2.3063,-2.1964,-2.146,-2.2805,-2.2862,-2.303,-2.3704,-2.4278,-2.4834,-2.5514,-2.4944,-2.5183,-2.6537,-2.5971,-2.5898,-2.6591,-2.6591,-2.6591,-2.6591,-2.6591,-2.6591,-2.6591,-2.6591,-2.6591,-2.6591,-2.6591,-2.6591,-1.351,-1.4213,-1.4827,-1.6131,-1.7496,-1.8588,-1.8908,-1.9814,-2.0652,-2.1046,-2.1109,-2.1172,-2.1425,-2.1488,-2.1614,-2.1915,-2.1915,-2.1866,-2.1992,-2.1677,-2.1551,-2.179,-2.1677,-2.1677,-2.1915,-2.2041,-2.2104,-2.2104,-2.2104,-2.2104,-2.2104,-2.2104,-2.2104,-2.2104,-2.2104,-2.2104,-2.2104,-2.2355,-2.2668,-2.2981,-2.2981,-2.2981,-2.2981,-2.2981,-2.2918,-2.2856,-2.2918,-2.3043,-2.3106,-2.2981,-2.3043,-2.3106,-2.3106,-2.3106,-2.3106,-2.3106,-2.3106,-2.3106,-2.2981,-2.2981,-2.2981,-2.2981,-2.2981,-2.2981,-2.3043,-2.3106,-2.3106,-2.3106,-2.3043,-2.2918,-2.2543,-2.223,-2.1915,-2.1551,-2.1299,-2.1109,-2.1109,-2.1109,-2.1109,-2.1109,-2.0935,-2.1072,-2.1902,-2.0901,-2.0585,-2.2361,-2.0812,-2.0164,-2.1979,-2.1618,-2.1517,-2.2467,-2.2805,-2.3368,-2.4278,-2.3536,-2.376,-2.5569,-2.4834,-2.4723,-2.5624,-2.5679,-2.5844,-2.6136,-2.6136,-2.63,-2.6591,-2.6591,-2.6591,-2.6591,-2.6591,-2.6591,-1.2269,-1.3367,-1.4528,-1.4938,-1.6073,-1.7431,-1.8716,-1.9036,-1.9495,-2.0843,-2.1109,-2.1109,-2.1109,-2.1109,-2.1235,-2.1551,-2.1362,-2.1235,-2.1614,-2.1362,-2.1109,-2.1172,-2.1425,-2.1614,-2.1614,-2.1915,-2.2104,-2.2104,-2.2104,-2.2104,-2.2104,-2.2104,-2.2104,-2.2104,-2.2104,-2.2104,-2.2104,-2.2104,-2.2292,-2.2606,-2.2606,-2.2606,-2.2606,-2.2606,-2.2418,-2.2167,-2.248,-2.2793,-2.3106,-2.2731,-2.2793,-2.3106,-2.3106,-2.3106,-2.3106,-2.3106,-2.3106,-2.3043,-2.2731,-2.2606,-2.2606,-2.2606,-2.2606,-2.2668,-2.2981,-2.3106,-2.3106,-2.3106,-2.2856,-2.2543,-2.223,-2.1866,-2.1551,-2.1235,-2.1109,-2.1109,-2.1109,-2.1109,-2.1109,-2.1109,-2.1096,-2.1002,-2.0846,-2.0717,-2.0596,-2.0375,-2.002,-1.9832,-1.9951,-2.0684,-2.1231,-2.1288,-2.2297,-2.303,-2.3087,-2.303,-2.303,-2.3199,-2.3143,-2.3087,-2.3199,-2.3199,-2.372,-2.4889,-2.4889,-2.5459,-2.6591,-2.6591,-2.6591,-2.6591,-2.6591,-2.6591,-1.2207,-1.2683,-1.3147,-1.3453,-1.4586,-1.6009,-1.7431,-1.7753,-1.8075,-1.9495,-1.9036,-1.8716,-1.9623,-2.0462,-2.1172,-2.1235,-2.1172,-2.1172,-2.1235,-2.1172,-2.1109,-2.1109,-2.1235,-2.1299,-2.1299,-2.1425,-2.1488,-2.1488,-2.1488,-2.1488,-2.1488,-2.1488,-2.1488,-2.1488,-2.1488,-2.1551,-2.1803,-2.1803,-2.1915,-2.2292,-2.2292,-2.2292,-2.2292,-2.2292,-2.223,-2.2104,-2.1978,-2.2167,-2.2418,-2.2355,-2.248,-2.2793,-2.2793,-2.2918,-2.3106,-2.3106,-2.2981,-2.2731,-2.2668,-2.248,-2.2292,-2.2292,-2.2292,-2.2292,-2.2418,-2.248,-2.248,-2.248,-2.2355,-2.223,-2.2104,-2.1853,-2.1551,-2.1172,-2.1109,-2.1109,-2.1109,-2.1109,-2.1109,-2.1109,-2.1109,-2.1082,-2.0975,-2.0802,-2.0641,-2.0535,-2.0267,-2.0013,-1.9826,-2.0105,-2.0261,-2.0067,-2.0443,-2.1002,-2.1801,-2.1117,-2.1345,-2.2918,-2.224,-2.2184,-2.2974,-2.2974,-2.3199,-2.3648,-2.3648,-2.4612,-2.6591,-2.6591,-2.6591,-2.6591,-2.6591,-2.6591,-1.2207,-1.2304,-1.2393,-1.2751,-1.3481,-1.4716,-1.6592,-1.698,-1.7367,-1.8716,-1.8267,-1.7946,-1.8844,-1.975,-2.0526,-2.1046,-2.1109,-2.1109,-2.1109,-2.1109,-2.1109,-2.1109,-2.1109,-2.1109,-2.1109,-2.1109,-2.1109,-2.1109,-2.1109,-2.1109,-2.1109,-2.1109,-2.1109,-2.1109,-2.1109,-2.1235,-2.1425,-2.1425,-2.1614,-2.1915,-2.1915,-2.1915,-2.1915,-2.1915,-2.1853,-2.174,-2.1551,-2.1677,-2.2104,-2.1978,-2.2104,-2.2418,-2.2418,-2.2606,-2.2918,-2.2793,-2.2668,-2.2543,-2.2355,-2.2104,-2.1915,-2.1915,-2.1915,-2.1915,-2.2041,-2.2104,-2.2104,-2.2104,-2.2041,-2.1915,-2.1915,-2.1677,-2.1362,-2.1172,-2.1109,-2.1109,-2.1109,-2.1109,-2.1109,-2.1109,-2.1109,-2.1109,-2.1109,-2.0949,-2.0815,-2.0815,-2.0575,-2.0307,-2.012,-2.0,-1.9826,-1.9546,-1.9506,-1.9815,-2.0558,-1.988,-2.0111,-2.1687,-2.106,-2.0945,-2.1744,-2.1801,-2.1957,-2.241,-2.241,-2.3368,-2.5404,-2.5806,-2.6026,-2.6026,-2.6409,-2.6591,0.0,0.0,0.0,-1.2751,-1.2774,-1.3547,-1.6333,-1.6915,-1.7302,-1.8652,-1.8844,-1.8844,-1.8972,-1.8972,-1.9419,-2.0856,-2.1109,-2.1109,-2.1109,-2.1109,-2.1109,-2.1109,-2.1109,-2.1109,-2.1109,-2.1109,-2.1109,-2.1109,-2.1109,-2.1109,-2.1109,-2.1109,-2.1109,-2.1109,-2.1109,-2.1109,-2.1109,-2.1109,-2.1235,-2.1614,-2.1614,-2.1614,-2.1614,-2.1614,-2.1425,-2.1109,-2.1109,-2.1488,-2.2041,-2.174,-2.1803,-2.2118,-2.2118,-2.2292,-2.2543,-2.223,-2.2292,-2.248,-2.1866,-2.1614,-2.1614,-2.1614,-2.1614,-2.1677,-2.1978,-2.2041,-2.2041,-2.2041,-2.1866,-2.1614,-2.1614,-2.1362,-2.1109,-2.1109,-2.1109,-2.1109,-2.1109,-2.1109,-2.1109,-2.1109,-2.1109,-2.1109,-2.1109,-2.1109,-2.1109,-2.1109,-2.0869,-2.0681,-2.0681,-2.0428,-2.0134,-1.984,-1.98,-1.9679,-1.9399,-1.943,-1.943,-1.943,-1.943,-1.943,-1.943,-1.943,-1.9938,-2.1117,-2.1174,-2.1744,-2.2918,-2.4167,-2.4723,-2.4778,-2.5971,-2.6537,-1.2457,0.0,0.0,0.0,0.0,0.0,-1.5043,-1.4716,-1.4651,-1.7044,-1.5944,-1.5424,-1.846,-1.8203,-1.8332,-2.0716,-2.1109,-2.1109,-2.1109,-2.1109,-2.1109,-2.1109,-2.1109,-2.1109,-2.1109,-2.1109,-2.1109,-2.1109,-2.1109,-2.1109,-2.1109,-2.1109,-2.1109,-2.1109,-2.1109,-2.1109,-2.1109,-2.1109,-2.1172,-2.1235,-2.1235,-2.1235,-2.1235,-2.1235,-2.1172,-2.1109,-2.1109,-2.1235,-2.1362,-2.1299,-2.1425,-2.1727,-2.1727,-2.1915,-2.223,-2.2104,-2.1992,-2.1853,-2.1664,-2.1425,-2.1235,-2.1235,-2.1235,-2.1235,-2.1362,-2.1362,-2.1362,-2.1362,-2.1299,-2.1235,-2.1235,-2.1172,-2.1109,-2.1109,-2.1109,-2.1109,-2.1109,-2.1109,-2.1109,-2.1109,-2.1109,-2.1109,-2.1109,-2.1109,-2.1109,-2.1109,-2.1042,-2.0909,-2.0695,-2.0601,-2.0441,-2.0147,-1.992,-1.9773,-1.9693,-1.9492,-1.943,-1.943,-1.943,-1.943,-1.943,-1.943,-1.9533,-1.988,-1.988,-2.0053,-2.0385,-2.2467,-2.348,-2.3536,-2.4723,-2.5293,-1.2599,-1.2361,-1.2483,-1.2767,0.0,0.0,-1.5294,-1.5163,-1.5163,-1.7367,-1.6517,-1.5944,-1.7818,-1.756,-1.7496,-1.9112,-1.9877,-2.0462,-2.1046,-2.1109,-2.1109,-2.1109,-2.1109,-2.1109,-2.1109,-2.1109,-2.1109,-2.1109,-2.1109,-2.1109,-2.1109,-2.1109,-2.1109,-2.1109,-2.1109,-2.1109,-2.1109,-2.1109,-2.1109,-2.1109,-2.1109,-2.1109,-2.1109,-2.1109,-2.1109,-2.1109,-2.1109,-2.1109,-2.1109,-2.1109,-2.1235,-2.1425,-2.1425,-2.1614,-2.1853,-2.174,-2.1677,-2.1614,-2.1425,-2.1235,-2.1109,-2.1109,-2.1109,-2.1109,-2.1109,-2.1109,-2.1109,-2.1109,-2.1109,-2.1109,-2.1109,-2.1109,-2.1109,-2.1109,-2.1109,-2.1109,-2.1109,-2.1109,-2.1109,-2.1109,-2.1109,-2.1109,-2.1109,-2.1109,-2.1109,-2.1109,-2.1109,-2.1042,-2.0882,-2.0855,-2.0748,-2.0454,-2.0267,-2.0067,-1.9826,-1.9639,-1.9492,-1.943,-1.943,-1.943,-1.943,-1.943,-1.943,-1.943,-1.943,-1.943,-1.943,-2.1345,-2.2523,-2.303,-2.3704,-2.4039,-1.2846,-1.257,-1.2605,-1.2791,-1.2774,0.0,-1.5944,-1.6527,-1.6915,-1.8267,-1.8396,-1.8063,-1.7173,-1.685,-1.685,-1.698,-1.8139,-1.9431,-2.0716,-2.0982,-2.1109,-2.1109,-2.1109,-2.1109,-2.1109,-2.1109,-2.1109,-2.1109,-2.1109,-2.1109,-2.1109,-2.1109,-2.1109,-2.1109,-2.1109,-2.1109,-2.1109,-2.1109,-2.1109,-2.1109,-2.1109,-2.1109,-2.1109,-2.1109,-2.1109,-2.1109,-2.1109,-2.1109,-2.1109,-2.1109,-2.1109,-2.1109,-2.1109,-2.1299,-2.1488,-2.1235,-2.1299,-2.1488,-2.1172,-2.1109,-2.1109,-2.1109,-2.1109,-2.1109,-2.1109,-2.1109,-2.1109,-2.1109,-2.1109,-2.1109,-2.1109,-2.1109,-2.1109,-2.1109,-2.1109,-2.1109,-2.1109,-2.1109,-2.1109,-2.1109,-2.1109,-2.1109,-2.1109,-2.1109,-2.1109,-2.1109,-2.1109,-2.1109,-2.1109,-2.1109,-2.1015,-2.0748,-2.0695,-2.0468,-1.9947,-1.984,-1.9693,-1.9439,-1.9444,-1.943,-1.943,-1.943,-1.943,-1.943,-1.943,-1.943,-1.943,-2.05,-2.1574,-2.258,-2.2749,-2.2805,-1.4477,-1.3358,-1.2605,-1.2791,-1.2774,0.0,-1.3481,-1.3613,-1.4006,-1.5424,-1.4782,-1.4651,-1.6656,-1.6073,-1.5684,-1.685,-1.8139,-1.91,-1.9355,-2.0399,-2.1109,-2.1109,-2.1109,-2.1109,-2.1109,-2.1109,-2.1109,-2.1109,-2.1109,-2.1109,-2.1109,-2.1109,-2.1109,-2.1109,-2.1109,-2.1109,-2.1109,-2.1109,-2.1109,-2.1109,-2.1109,-2.1109,-2.1109,-2.1109,-2.1109,-2.1109,-2.1109,-2.1109,-2.1109,-2.1109,-2.1109,-2.1109,-2.1109,-2.1172,-2.1172,-2.1109,-2.1172,-2.1172,-2.1109,-2.1109,-2.1109,-2.1109,-2.1109,-2.1109,-2.1109,-2.1109,-2.1109,-2.1109,-2.1109,-2.1109,-2.1109,-2.1109,-2.1109,-2.1109,-2.1109,-2.1109,-2.1109,-2.1109,-2.1109,-2.1109,-2.1109,-2.1109,-2.1109,-2.1109,-2.1109,-2.1109,-2.1109,-2.1109,-2.1109,-2.1109,-2.1082,-2.1029,-2.0815,-2.0628,-2.0521,-2.0067,-1.9773,-1.972,-1.9492,-1.943,-1.943,-1.943,-1.943,-1.943,-1.943,-1.943,-1.943,-1.9649,-1.988,-2.0097,-2.1117,-2.1574,-1.5125,-1.4153,-1.3622,-1.2939,-1.2774,0.0,0.0,-1.3875,-1.4259,-1.5684,-1.5359,-1.5108,-1.5814,-1.5359,-1.4912,-1.4912,-1.6656,-1.8011,-1.8011,-1.9814,-2.1109,-2.1109,-2.1109,-2.1109,-2.1109,-2.1109,-2.1109,-2.1109,-2.1109,-2.1109,-2.1109,-2.1109,-2.1109,-2.1109,-2.1109,-2.1109,-2.1109,-2.1109,-2.1109,-2.1109,-2.1109,-2.1109,-2.1109,-2.1109,-2.1109,-2.1109,-2.1109,-2.1109,-2.1109,-2.1109,-2.1109,-2.1109,-2.1109,-2.1109,-2.1109,-2.1109,-2.1109,-2.1109,-2.1109,-2.1109,-2.1109,-2.1109,-2.1109,-2.1109,-2.1109,-2.1109,-2.1109,-2.1109,-2.1109,-2.1109,-2.1109,-2.1109,-2.1109,-2.1109,-2.1109,-2.1109,-2.1109,-2.1109,-2.1109,-2.1109,-2.1109,-2.1109,-2.1109,-2.1109,-2.1109,-2.1109,-2.1109,-2.1109,-2.1109,-2.1109,-2.1109,-2.1109,-2.0975,-2.0842,-2.0681,-2.0401,-2.0107,-1.9813,-1.9666,-1.9519,-1.943,-1.943,-1.943,-1.943,-1.943,-1.943,-1.943,-1.943,-1.943,-1.9417,-2.004,-2.027,-1.6043,-1.5351,-1.5033,-1.3875,-1.3613,-1.3809,0.0,0.0,0.0,-1.6009,-1.6203,-1.5814,-1.4716,-1.452,-1.4119,-1.2914,-1.4949,-1.6571,-1.6529,-1.8744,-2.0526,-2.1046,-2.1109,-2.1109,-2.1109,-2.1109,-2.1109,-2.1109,-2.1109,-2.1109,-2.1109,-2.1109,-2.1109,-2.1109,-2.1109,-2.1109,-2.1109,-2.1109,-2.1109,-2.1109,-2.1109,-2.1109,-2.1109,-2.1109,-2.1109,-2.1109,-2.1109,-2.1109,-2.1109,-2.1109,-2.1109,-2.1109,-2.1109,-2.1109,-2.1109,-2.1109,-2.1109,-2.1109,-2.1109,-2.1109,-2.1109,-2.1109,-2.1109,-2.1109,-2.1109,-2.1109,-2.1109,-2.1109,-2.1109,-2.1109,-2.1109,-2.1109,-2.1109,-2.1109,-2.1109,-2.1109,-2.1109,-2.1109,-2.1109,-2.1109,-2.1109,-2.1109,-2.1109,-2.1109,-2.1109,-2.1109,-2.1109,-2.1109,-2.1109,-2.1109,-2.1109,-2.1109,-2.1109,-2.1015,-2.0775,-2.0708,-2.0481,-2.0,-1.9867,-1.9693,-1.9466,-1.9457,-1.943,-1.943,-1.943,-1.943,-1.943,-1.943,-1.943,-1.943,-1.943,-1.943,-1.8605,-1.7667,-1.6721,-1.6592,-1.6527,-1.6268,-1.5173,0.0,-1.4586,-1.3481,0.0,-1.3227,-1.3095,0.0,0.0,-1.2686,-1.4021,-1.5096,-1.4904,-1.6391,-1.8396,-2.0779,-2.1109,-2.1109,-2.1109,-2.1109,-2.1109,-2.1109,-2.1109,-2.1109,-2.1109,-2.1109,-2.1109,-2.1109,-2.1109,-2.1109,-2.1109,-2.1109,-2.1109,-2.1109,-2.1109,-2.1109,-2.1109,-2.1109,-2.1109,-2.1109,-2.1109,-2.1109,-2.1109,-2.1109,-2.1109,-2.1109,-2.1109,-2.1109,-2.1109,-2.1109,-2.1109,-2.1109,-2.1109,-2.1109,-2.1109,-2.1109,-2.1109,-2.1109,-2.1109,-2.1109,-2.1109,-2.1109,-2.1109,-2.1109,-2.1109,-2.1109,-2.1109,-2.1109,-2.1109,-2.1109,-2.1109,-2.1109,-2.1109,-2.1109,-2.1109,-2.1109,-2.1109,-2.1109,-2.1109,-2.1109,-2.1109,-2.1109,-2.1109,-2.1109,-2.1109,-2.1109,-2.1109,-2.1096,-2.1069,-2.0828,-2.0641,-2.0588,-2.0094,-1.9786,-1.976,-1.9506,-1.943,-1.943,-1.943,-1.943,-1.943,-1.943,-1.943,-1.943,-1.943,-1.943,-1.9228,-1.8588,-1.7946,-1.7173,-1.698,-1.685,-1.6268,-1.5489,-1.4716,-1.4137,0.0,0.0,0.0,0.0,0.0,0.0,-1.3944,-1.4874,-1.4789,-1.6077,-1.7431,-1.8588,-1.9431,-2.0208,-2.1046,-2.1109,-2.1109,-2.1109,-2.1109,-2.1109,-2.1109,-2.1109,-2.1109,-2.1109,-2.1109,-2.1109,-2.1109,-2.1109,-2.1109,-2.1109,-2.1109,-2.1109,-2.1109,-2.1109,-2.1109,-2.1109,-2.1109,-2.1109,-2.1109,-2.1109,-2.1109,-2.1109,-2.1109,-2.1109,-2.1109,-2.1109,-2.1109,-2.1109,-2.1109,-2.1109,-2.1109,-2.1109,-2.1109,-2.1109,-2.1109,-2.1109,-2.1109,-2.1109,-2.1109,-2.1109,-2.1109,-2.1109,-2.1109,-2.1109,-2.1109,-2.1109,-2.1109,-2.1109,-2.1109,-2.1109,-2.1109,-2.1109,-2.1109,-2.1109,-2.1109,-2.1109,-2.1109,-2.1109,-2.1109,-2.1109,-2.1109,-2.1109,-2.1109,-2.1109,-2.1109,-2.1002,-2.0855,-2.0681,-2.0281,-2.0054,-2.0054,-1.9933,-1.9786,-1.9626,-1.9626,-1.9533,-1.943,-1.943,-1.943,-1.943,-1.943,-1.943,-1.9877,-1.9559,-1.9367,-1.8396,-1.8139,-1.8011,-1.7625,-1.6786,-1.5944,-1.5554,-1.4324,0.0,0.0,0.0,-1.2824,-1.2767,0.0,-1.4306,-1.4252,-1.519,-1.6138,-1.6915,-1.7882,-1.8844,-1.9877,-2.0335,-2.0526,-2.0526,-2.0856,-2.1109,-2.1109,-2.1109,-2.1109,-2.1109,-2.1109,-2.1109,-2.1109,-2.1109,-2.1109,-2.1109,-2.1109,-2.1109,-2.1109,-2.1109,-2.1109,-2.1109,-2.1109,-2.1109,-2.1109,-2.1109,-2.1109,-2.1109,-2.1109,-2.1109,-2.1109,-2.1109,-2.1109,-2.1109,-2.1109,-2.1109,-2.1109,-2.1109,-2.1109,-2.1109,-2.1109,-2.1109,-2.1109,-2.1109,-2.1109,-2.1109,-2.1109,-2.1109,-2.1109,-2.1109,-2.1109,-2.1109,-2.1109,-2.1109,-2.1109,-2.1109,-2.1109,-2.1109,-2.1109,-2.1109,-2.1109,-2.1109,-2.1109,-2.1109,-2.1109,-2.1109,-2.1109,-2.1109,-2.1109,-2.1109,-2.1109,-2.1109,-2.0989,-2.0695,-2.0468,-2.0321,-2.018,-2.0167,-2.0134,-1.992,-1.992,-1.9813,-1.9599,-1.9599,-1.9559,-1.9479,-1.9399,-1.943,-2.1046,-2.1046,-2.1046,-2.0982,-2.0982,-2.0589,-1.9228,-1.8908,-1.8524,-1.7173,-1.5814,-1.4847,-1.4847,-1.3744,-1.2775,-1.2605,-1.2718,0.0,0.0,-1.2792,-1.394,-1.6656,-1.7044,-1.7109,-1.7109,-1.8332,-1.91,-1.91,-2.0335,-2.1109,-2.1109,-2.1109,-2.1109,-2.1109,-2.1109,-2.1109,-2.1109,-2.1109,-2.1109,-2.1109,-2.1109,-2.1109,-2.1109,-2.1109,-2.1109,-2.1109,-2.1109,-2.1109,-2.1109,-2.1109,-2.1109,-2.1109,-2.1109,-2.1109,-2.1109,-2.1109,-2.1109,-2.1109,-2.1109,-2.1109,-2.1109,-2.1109,-2.1109,-2.1109,-2.1109,-2.1109,-2.1109,-2.1109,-2.1109,-2.1109,-2.1109,-2.1109,-2.1109,-2.1109,-2.1109,-2.1109,-2.1109,-2.1109,-2.1109,-2.1109,-2.1109,-2.1109,-2.1109,-2.1109,-2.1109,-2.1109,-2.1109,-2.1109,-2.1109,-2.1109,-2.1109,-2.1109,-2.1109,-2.1109,-2.1109,-2.1109,-2.0989,-2.0695,-2.0668,-2.0535,-2.018,-2.0167,-2.0227,-2.0214,-2.0214,-2.0153,-2.014,-2.014,-2.0054,-1.9773,-1.9492,-1.943,-2.1109,-2.1109,-2.1109,-2.1109,-2.1109,-2.0982,-2.0526,-1.9686,-1.8844,-1.8396,-1.6517,-1.4912,-1.4912,-1.3744,-1.2816,-1.2751,-1.28,-1.275,0.0,-1.28,-1.3161,-1.4137,-1.5043,-1.6009,-1.6915,-1.8203,-1.8972,-1.8972,-2.0335,-2.1109,-2.1109,-2.1109,-2.1109,-2.1109,-2.1109,-2.1109,-2.1109,-2.1109,-2.1109,-2.1109,-2.1109,-2.1109,-2.1109,-2.1109,-2.1109,-2.1109,-2.1109,-2.1109,-2.1109,-2.1109,-2.1109,-2.1109,-2.1109,-2.1109,-2.1109,-2.1109,-2.1109,-2.1109,-2.1109,-2.1109,-2.1109,-2.1109,-2.1109,-2.1109,-2.1109,-2.1109,-2.1109,-2.1109,-2.1109,-2.1109,-2.1109,-2.1109,-2.1109,-2.1109,-2.1109,-2.1109,-2.1109,-2.1109,-2.1109,-2.1109,-2.1109,-2.1109,-2.1109,-2.1109,-2.1109,-2.1109,-2.1109,-2.1109,-2.1109,-2.1109,-2.1109,-2.1109,-2.1109,-2.1109,-2.1109,-2.1109,-2.1069,-2.0962,-2.0962,-2.0922,-2.0815,-2.0815,-2.0722,-2.0535,-2.0521,-2.0428,-2.0167,-2.0167,-2.0127,-2.008,-1.9987,-1.9733,-2.1109,-2.1109,-2.1109,-2.1109,-2.1109,-2.1109,-2.1109,-2.0399,-1.9623,-1.91,-1.7613,-1.6073,-1.5108,-1.4128,-1.335,-1.2906,-1.2774,-1.2774,0.0,-1.2774,-1.2774,-1.2774,-1.3613,-1.4716,-1.6138,-1.7033,-1.7946,-1.8908,-1.9814,-2.0589,-2.1046,-2.1109,-2.0856,-2.0399,-2.0335,-2.0132,-1.9623,-1.9623,-1.9623,-1.9623,-1.9623,-1.9623,-1.9623,-1.9623,-1.9623,-1.9623,-1.9623,-1.9623,-1.9623,-1.9623,-1.9623,-1.9623,-1.9623,-1.9623,-1.975,-2.0729,-2.1109,-2.1109,-2.1109,-2.1109,-2.1109,-2.1109,-2.1109,-2.1109,-2.1109,-2.1109,-2.1136,-2.1243,-2.1189,-2.1136,-2.1243,-2.1189,-2.1109,-2.1109,-2.1109,-2.1109,-2.1109,-2.1109,-2.1109,-2.1109,-2.1109,-2.1109,-2.1109,-2.1109,-2.1109,-2.1109,-2.1109,-2.1109,-2.1109,-2.1109,-2.1109,-2.1109,-2.1109,-2.1109,-2.1109,-2.1109,-2.1109,-2.1109,-2.1109,-2.1109,-2.1109,-2.1109,-2.1029,-2.0842,-2.0828,-2.0735,-2.0548,-2.0548,-2.0494,-2.0388,-2.0388,-2.0134]},{"header":{"parameterUnit":"m.s-1","parameterCategory":1,"la1":30.6,"la2":29.2853,"lo1":-89.7004,"lo2":-87.6739,"dy":0.0162,"dx":0.0183,"nx":112,"ny":82,"refTime":"2023-05-09T12:00:00:Z","depth":0,"parameterNumber":3,"parameterNumberName":"V-component_of_WINDS"},"data":[0.0,0.0,0.0,0.0,0.0,0.0,0.0,0.0,0.0,0.0,0.0,0.0,0.0,0.0,0.0,0.0,0.0,0.0,0.0,0.0,0.0,0.0,0.0,0.0,0.0,0.0,0.0,0.0,0.0,0.0,0.0,0.0,0.0,0.0,0.0,0.0,0.0,0.0,0.0,0.0,0.0,0.0,0.0,0.0,0.0,0.0,0.0,0.0,0.0,0.0,0.0,0.0,0.0,0.0,0.0,0.0,0.0,0.0,0.0,0.0,0.0,0.0,0.0,0.0,0.0,0.0,0.0,0.0,0.0,0.0,0.0,0.0,0.0,0.0,0.0,0.0,0.0,0.0,0.0,0.0,0.0,0.0,0.0,0.0,0.0,0.0,0.0,0.0,0.0,0.0,1.0743,1.0143,1.003,1.003,1.0067,1.0406,1.0443,1.0105,0.0,0.0,0.0,0.0,0.0,0.0,0.0,0.0,0.0,0.0,0.0,0.0,0.0,0.0,0.0,0.0,0.0,0.0,0.0,0.0,0.0,0.0,0.0,0.0,0.0,0.0,0.0,0.0,0.0,0.0,0.0,0.0,0.0,0.0,0.0,0.0,0.0,0.0,0.0,0.0,0.0,0.0,0.0,0.0,0.0,0.0,0.0,0.0,0.0,0.0,0.0,0.0,0.0,0.0,0.0,0.0,0.0,0.0,0.0,0.0,0.0,0.0,0.0,0.0,0.0,0.0,0.0,0.0,0.0,0.0,0.0,0.0,0.0,0.0,0.0,0.0,0.0,0.0,0.0,0.0,0.0,0.0,0.0,0.0,0.0,0.0,0.0,0.0,0.0,0.0,0.0,0.0,0.0,0.0,0.0,0.0,0.0,0.0,0.0,0.0,0.0,0.0,0.0,0.0,1.1601,1.0968,1.0631,1.0556,1.0893,1.0956,1.0968,1.0931,0.0,0.0,0.0,0.0,0.0,0.0,0.0,0.0,0.0,0.0,0.0,0.0,0.0,0.0,0.0,0.0,0.0,0.0,0.0,0.0,0.0,0.0,0.0,0.0,0.0,0.0,0.0,0.0,0.0,0.0,0.0,0.0,0.0,0.0,0.0,0.0,0.0,0.0,0.0,0.0,0.0,0.0,0.0,0.0,0.0,0.0,0.0,0.0,0.0,0.0,0.0,0.0,0.0,0.0,0.0,0.0,0.0,0.0,0.0,0.0,0.0,0.0,0.0,0.0,0.0,0.0,0.0,0.0,0.0,0.0,0.0,0.0,0.0,0.0,0.0,0.0,0.0,0.0,0.0,0.0,0.0,0.0,0.0,0.0,0.0,0.0,0.0,0.0,0.0,0.0,0.0,0.0,0.0,0.0,0.0,0.0,0.0,0.0,0.0,0.0,0.0,0.0,0.0,1.1935,1.1416,1.1143,1.0919,1.0893,1.108,1.1105,1.1105,1.1105,1.1105,0.0,0.0,0.0,0.0,0.0,0.0,0.0,0.0,0.0,0.0,0.0,0.0,0.0,0.0,0.0,0.0,0.0,0.0,0.0,0.0,0.0,0.0,0.0,0.0,0.0,0.0,0.0,0.0,0.0,0.0,0.0,0.0,0.0,0.0,0.0,0.0,0.0,0.0,0.0,0.0,0.0,0.0,0.0,0.0,0.0,0.0,0.0,0.0,0.0,0.0,0.0,0.0,0.0,0.0,0.0,0.0,0.0,0.0,0.0,0.0,0.0,0.0,0.0,0.0,0.0,0.0,0.0,0.0,0.0,0.0,0.0,0.0,0.0,0.0,0.0,0.0,0.0,0.0,0.0,0.0,0.0,0.0,0.0,0.0,0.0,0.0,0.0,0.0,0.0,0.0,0.0,0.0,0.0,0.0,0.0,0.0,0.0,0.0,0.0,0.0,0.0,0.0,1.2181,1.1515,1.1515,1.1403,1.1292,1.1292,1.118,1.1105,1.1105,1.1105,0.0,0.0,0.0,0.0,0.0,0.0,0.0,0.0,0.0,0.0,0.0,0.0,0.0,0.0,0.0,0.0,0.0,0.0,0.0,0.0,0.0,0.0,0.0,0.0,0.0,0.0,0.0,0.0,0.0,0.0,0.0,0.0,0.0,0.0,0.0,0.0,0.0,0.0,0.0,0.0,0.0,0.0,0.0,0.0,0.0,0.0,0.0,0.0,0.0,0.0,0.0,0.0,0.0,0.0,0.0,0.0,0.0,0.0,0.0,0.0,0.0,0.0,0.0,0.0,0.0,0.0,0.0,0.0,0.0,0.0,0.0,0.0,0.0,0.0,0.0,0.0,0.0,0.0,0.0,0.0,0.0,0.0,0.0,0.0,0.0,0.0,0.0,0.0,0.0,0.0,0.0,0.0,0.0,0.0,0.0,0.0,0.0,0.0,0.0,0.0,0.0,0.0,1.3185,1.2783,1.2783,1.2268,1.1935,1.1935,1.1403,1.1105,1.1105,1.1105,0.0,0.0,0.0,0.0,0.0,0.0,0.0,0.0,0.0,0.0,0.0,0.0,0.0,0.0,0.0,0.0,0.0,0.0,0.0,0.0,0.0,0.0,0.0,0.0,0.0,0.0,0.0,0.0,0.0,0.0,0.0,0.0,0.0,0.0,0.0,0.0,0.0,0.0,0.0,0.0,0.0,0.0,0.0,0.0,0.0,0.0,0.0,0.0,0.0,0.0,0.0,0.0,0.0,0.0,0.0,0.0,0.0,0.0,0.0,0.0,0.0,0.0,0.0,0.0,0.0,0.0,0.0,0.0,0.0,0.0,0.0,0.0,0.0,0.0,0.0,0.0,0.0,0.0,0.0,0.0,0.0,0.0,0.0,0.0,0.0,0.0,0.0,0.0,0.0,0.0,0.0,0.0,0.0,0.0,0.0,0.0,0.0,0.0,0.0,0.0,0.0,0.0,1.3258,1.2893,1.2893,1.2709,1.2673,1.2915,1.2732,1.2498,1.2241,0.0,0.0,0.0,0.0,0.0,0.0,0.0,0.0,0.0,0.0,0.0,0.0,0.0,0.0,0.0,0.0,0.0,0.0,0.0,0.0,0.0,0.0,0.0,0.0,0.0,0.0,0.0,0.0,0.0,0.0,0.0,0.0,0.0,0.0,0.0,0.0,0.0,0.0,0.0,0.0,0.0,0.0,0.0,0.0,0.0,0.0,0.0,0.0,0.0,0.0,0.0,0.0,0.0,0.0,0.0,0.0,0.0,0.0,0.0,0.0,0.0,0.0,0.0,0.0,0.0,0.0,0.0,0.0,0.0,0.0,0.0,0.0,0.0,0.0,0.0,0.0,0.0,0.0,0.0,0.0,0.0,0.0,0.0,0.0,0.0,0.0,0.0,0.0,0.0,0.0,0.0,0.0,0.0,0.0,0.0,0.0,0.0,0.0,0.0,0.0,0.0,0.0,1.4474,1.4078,1.3825,1.3825,1.3644,1.3644,1.3934,1.3774,1.3448,1.2938,0.0,0.0,0.0,0.0,0.0,0.0,0.0,0.0,0.0,0.0,0.0,0.0,0.0,0.0,0.0,0.0,0.0,0.0,0.0,0.0,0.0,0.0,0.0,0.0,0.0,0.0,0.0,0.0,0.0,0.0,0.0,0.0,0.0,0.0,0.0,0.0,0.0,0.0,0.0,0.0,0.0,0.0,0.0,0.0,0.0,0.0,0.0,0.0,0.0,0.0,0.0,0.0,0.0,0.0,0.0,0.0,0.0,0.0,0.0,0.0,0.0,0.0,0.0,0.0,0.0,0.0,0.0,0.0,0.0,0.0,0.0,0.0,0.0,0.0,0.0,0.0,0.0,0.0,0.0,0.0,0.0,0.0,0.0,0.0,0.0,0.0,0.0,0.0,0.0,0.0,0.0,0.0,0.0,0.0,0.0,0.0,0.0,0.0,0.0,0.0,0.0,0.0,1.5806,1.5806,1.5806,1.5806,1.5259,1.4903,1.4939,1.4386,1.3723,0.0,0.0,0.0,0.0,0.0,0.0,0.0,0.0,0.0,0.0,0.0,0.0,0.0,0.0,0.0,0.0,0.0,0.0,0.0,0.0,0.0,0.0,0.0,0.0,0.0,0.0,0.0,0.0,0.0,0.0,0.0,0.0,0.0,0.0,0.0,0.0,0.0,0.0,0.0,0.0,0.0,0.0,0.0,0.0,0.0,0.0,0.0,0.0,0.0,0.0,0.0,0.0,0.0,0.0,0.0,0.0,0.0,0.0,0.0,0.0,0.0,0.0,0.0,0.0,0.0,0.0,0.0,0.0,0.0,0.0,0.0,0.0,0.0,0.0,0.0,0.0,0.0,0.0,0.0,0.0,0.0,0.0,0.0,0.0,0.0,0.0,0.0,0.0,0.0,0.0,0.0,0.0,0.0,0.0,0.0,0.0,0.0,0.0,0.0,0.0,0.0,0.0,0.0,1.5859,1.5806,1.5806,1.5806,1.5648,1.5613,1.5877,1.5719,1.5436,1.4958,0.0,0.0,0.0,0.0,0.0,0.0,0.0,0.0,0.0,0.0,0.0,0.0,0.0,0.0,0.0,0.0,0.0,0.0,0.0,0.0,0.0,0.0,0.0,0.0,0.0,0.0,0.0,0.0,0.0,0.0,0.0,0.0,0.0,0.0,0.0,0.0,0.0,0.0,0.0,0.0,0.0,0.0,0.0,0.0,0.0,0.0,0.0,0.0,0.0,0.0,0.0,0.0,0.0,0.0,0.0,0.0,0.0,0.0,0.0,0.0,0.0,0.0,0.0,0.0,0.0,0.0,0.0,0.0,0.0,0.0,0.0,0.0,0.0,0.0,0.0,0.0,0.0,0.0,0.0,0.0,0.0,0.0,0.0,0.0,0.0,0.0,0.0,0.0,0.0,0.0,0.0,0.0,0.0,0.0,0.0,0.0,0.0,0.0,0.0,0.0,0.0,0.0,1.6683,1.6559,1.6559,1.6559,1.6368,1.6333,1.6525,1.656,1.6333,1.5842,0.0,0.0,0.0,0.0,0.0,0.0,0.0,0.0,0.0,0.0,0.0,0.0,0.0,0.0,0.0,0.0,0.0,0.0,0.0,0.0,0.0,0.0,0.0,0.0,0.0,0.0,0.0,0.0,0.0,0.0,0.0,0.0,0.0,0.0,0.0,0.0,0.0,0.0,0.0,0.0,0.0,0.0,0.0,0.0,0.0,0.0,0.0,0.0,0.0,0.0,0.0,0.0,0.0,0.0,0.0,0.0,0.0,0.0,0.0,0.0,0.0,0.0,0.0,0.0,0.0,0.0,0.0,0.0,0.0,0.0,0.0,0.0,0.0,0.0,0.0,0.0,0.0,0.0,0.0,0.0,0.0,0.0,0.0,0.0,0.0,0.0,0.0,0.0,0.0,0.0,0.0,0.0,0.0,0.0,0.0,0.0,0.0,0.0,0.0,0.0,0.0,0.0,1.791,1.7765,1.7784,1.7823,1.7358,1.7065,1.7033,1.6996,1.6647,1.5947,0.0,0.0,0.0,0.0,0.0,0.0,0.0,0.0,0.0,0.0,0.0,0.0,0.0,0.0,0.0,0.0,0.0,0.0,0.0,0.0,0.0,0.0,0.0,0.0,0.0,0.0,0.0,0.0,0.0,0.0,0.0,0.0,0.0,0.0,0.0,0.0,0.0,0.0,0.0,0.0,0.0,0.0,0.0,0.0,0.0,0.0,0.0,0.0,0.0,0.0,0.0,0.0,0.0,0.0,0.0,0.0,0.0,0.0,0.0,0.0,2.8807,2.832,0.0,0.0,0.0,0.0,0.0,0.0,0.0,0.0,0.0,0.0,0.0,0.0,0.0,0.0,0.0,0.0,0.0,0.0,0.0,0.0,0.0,0.0,0.0,0.0,0.0,0.0,0.0,0.0,0.0,0.0,0.0,0.0,0.0,0.0,0.0,0.0,0.0,0.0,0.0,0.0,1.8441,1.8341,1.848,1.8819,1.8458,1.814,1.8072,1.7735,1.727,1.67,1.6665,0.0,0.0,0.0,0.0,0.0,0.0,0.0,0.0,0.0,0.0,0.0,0.0,0.0,0.0,0.0,0.0,0.0,0.0,0.0,0.0,0.0,0.0,0.0,0.0,0.0,0.0,0.0,0.0,0.0,0.0,0.0,0.0,0.0,0.0,0.0,0.0,0.0,0.0,0.0,0.0,0.0,0.0,0.0,0.0,0.0,0.0,0.0,0.0,0.0,0.0,0.0,0.0,0.0,0.0,0.0,0.0,0.0,0.0,0.0,2.9551,2.903,0.0,0.0,0.0,0.0,0.0,0.0,0.0,0.0,0.0,0.0,0.0,0.0,0.0,0.0,0.0,0.0,0.0,0.0,0.0,0.0,0.0,0.0,0.0,0.0,0.0,0.0,0.0,0.0,0.0,0.0,0.0,0.0,0.0,0.0,0.0,0.0,0.0,0.0,0.0,0.0,1.9047,1.9096,1.9322,1.9569,1.9144,1.8808,1.8769,1.836,1.7867,1.7304,1.7545,0.0,0.0,0.0,0.0,0.0,0.0,0.0,0.0,0.0,0.0,0.0,0.0,0.0,0.0,0.0,0.0,0.0,0.0,0.0,0.0,0.0,0.0,0.0,0.0,0.0,0.0,0.0,0.0,0.0,0.0,0.0,0.0,0.0,0.0,0.0,0.0,0.0,0.0,0.0,0.0,0.0,0.0,0.0,0.0,0.0,0.0,0.0,0.0,0.0,0.0,0.0,0.0,0.0,3.1838,3.1858,3.1857,3.1843,3.185,3.1798,3.0692,3.0102,2.9901,2.978,0.0,0.0,0.0,0.0,0.0,0.0,0.0,0.0,0.0,0.0,0.0,0.0,0.0,0.0,0.0,0.0,0.0,0.0,0.0,0.0,0.0,0.0,2.7888,2.6926,2.6824,2.6756,2.5965,0.0,0.0,0.0,0.0,0.0,0.0,0.0,0.0,0.0,0.0,0.0,1.9868,2.0033,2.0308,2.0371,1.9927,1.9573,1.9504,1.9063,1.8488,1.7886,1.8273,1.8307,0.0,0.0,0.0,0.0,0.0,0.0,0.0,0.0,0.0,0.0,0.0,0.0,0.0,0.0,0.0,0.0,0.0,0.0,0.0,0.0,0.0,0.0,0.0,0.0,0.0,0.0,0.0,0.0,0.0,0.0,0.0,0.0,3.3485,3.3365,0.0,0.0,0.0,0.0,0.0,0.0,0.0,0.0,0.0,0.0,0.0,0.0,0.0,3.3245,3.3245,3.3245,3.3245,3.3245,3.3213,3.3242,3.3242,3.3239,3.324,3.3242,3.3031,0.0,3.0419,3.0569,0.0,0.0,0.0,0.0,0.0,0.0,0.0,0.0,0.0,0.0,0.0,0.0,0.0,0.0,0.0,0.0,0.0,0.0,0.0,0.0,0.0,0.0,2.8216,2.7921,2.7914,2.7881,2.7782,2.6449,2.5264,2.5158,2.5123,2.4909,0.0,0.0,0.0,0.0,0.0,0.0,2.1403,2.1346,2.1542,2.1976,2.1558,2.1089,2.0631,2.0121,1.939,1.8462,1.8476,1.8476,1.8408,1.8408,0.0,0.0,0.0,0.0,0.0,0.0,0.0,0.0,0.0,0.0,0.0,0.0,0.0,0.0,0.0,0.0,0.0,0.0,0.0,0.0,0.0,0.0,0.0,0.0,0.0,0.0,0.0,0.0,0.0,3.4386,3.4053,3.4053,3.3724,3.3484,0.0,0.0,0.0,0.0,0.0,0.0,0.0,0.0,0.0,3.4053,3.4412,3.4622,3.4622,3.4622,3.4622,3.4622,3.5011,3.519,3.519,3.5549,3.5519,3.519,3.519,3.4254,3.2728,3.2434,3.1928,3.1275,0.0,0.0,0.0,0.0,3.0205,3.0237,3.0539,3.0599,3.0569,3.063,0.0,0.0,0.0,0.0,0.0,0.0,0.0,2.8903,2.8551,2.832,2.8151,2.7954,2.7848,2.7782,2.7782,2.7121,2.6483,2.6252,2.607,2.5581,2.4456,2.4564,0.0,0.0,0.0,2.2603,2.1717,2.1822,2.2084,2.2302,2.2127,2.1889,2.1675,2.093,2.0156,1.9403,1.9356,1.9243,1.8977,1.8944,1.8844,0.0,0.0,0.0,0.0,0.0,0.0,0.0,0.0,0.0,0.0,0.0,0.0,0.0,0.0,0.0,0.0,0.0,0.0,0.0,0.0,0.0,0.0,0.0,0.0,0.0,0.0,0.0,0.0,3.5073,3.4773,3.4773,3.4472,3.4262,0.0,0.0,0.0,0.0,0.0,0.0,3.4502,3.4951,3.522,3.522,3.5729,3.5998,3.5998,3.5998,3.5998,3.5998,3.6477,3.6716,3.6746,3.7195,3.7165,3.6716,3.6716,3.6148,3.516,3.4173,3.3396,3.2856,3.2434,3.1987,3.1604,3.1184,3.1032,3.1093,3.1634,3.1782,3.1782,3.187,3.1722,3.1456,3.0923,0.0,0.0,0.0,0.0,2.9942,2.9799,2.9338,2.887,2.8711,2.8412,2.8118,2.7986,2.7859,2.7673,2.7154,2.6858,2.6311,2.5134,2.5276,0.0,2.3064,2.3247,2.3183,2.2103,2.2258,2.2499,2.2499,2.2499,2.2455,2.2324,2.1538,2.089,2.0398,2.0203,1.9976,1.9639,1.954,1.9441,1.9309,0.0,0.0,0.0,0.0,0.0,0.0,0.0,0.0,0.0,0.0,0.0,0.0,0.0,0.0,0.0,0.0,0.0,0.0,0.0,0.0,0.0,0.0,0.0,0.0,0.0,0.0,0.0,0.0,0.0,3.5459,3.5968,0.0,0.0,0.0,0.0,3.7195,3.7195,3.7195,3.7195,3.7255,3.7255,3.7255,3.7285,3.7315,3.7315,3.7315,3.7315,3.7315,3.7345,3.7375,3.7375,3.7404,3.7404,3.7375,3.7375,3.7315,3.7105,3.522,3.4084,3.3455,3.3424,3.3394,3.3395,3.3487,3.3517,3.3578,3.3908,3.3968,3.3909,3.4205,3.3453,3.2437,3.2378,3.1515,0.0,0.0,3.1224,3.1308,3.1725,3.1443,3.1037,3.1037,3.0494,2.9812,2.9248,2.8871,2.8407,2.7628,2.7456,2.7222,2.6414,0.0,2.5802,2.4266,2.4049,2.3795,2.3047,2.2957,2.2957,2.2957,2.2957,2.2783,2.2346,2.1843,2.1501,2.1342,2.0556,2.0237,2.0506,2.0237,1.9824,1.9309,1.9276,0.0,0.0,0.0,0.0,0.0,0.0,0.0,0.0,0.0,0.0,0.0,0.0,0.0,0.0,0.0,0.0,0.0,0.0,0.0,0.0,0.0,0.0,0.0,0.0,0.0,0.0,0.0,0.0,3.6686,3.6926,0.0,3.7075,3.7285,3.7404,3.7404,3.7404,3.7404,3.7404,3.7823,3.8033,3.8033,3.8482,3.8691,3.8691,3.8691,3.8691,3.8691,3.8691,3.8691,3.8691,3.8691,3.8691,3.8691,3.8691,3.8452,3.7973,3.7285,3.642,3.5429,3.5429,3.516,3.4741,3.4355,3.4268,3.4332,3.4121,3.4089,3.4179,3.4417,3.4173,3.3783,3.3783,3.3423,3.3094,3.3306,3.3065,3.2759,3.2904,3.2428,3.1911,3.1911,3.1226,3.0534,3.0315,2.9841,2.9395,2.9088,2.8215,2.7323,2.6688,2.6892,2.6586,2.5099,2.5276,2.5311,2.4587,2.4022,2.3694,2.3694,2.3276,2.2936,2.2761,2.2324,2.1879,2.1535,2.095,2.0632,2.0593,2.027,2.0237,2.0539,2.028,1.9868,0.0,0.0,0.0,0.0,0.0,0.0,0.0,0.0,0.0,0.0,0.0,0.0,0.0,0.0,0.0,0.0,0.0,0.0,0.0,0.0,0.0,0.0,0.0,0.0,0.0,3.7443,3.7295,3.7718,3.7751,3.7734,3.7734,3.7943,3.8287,3.8776,3.8597,3.8617,3.9113,3.9783,4.0147,4.0147,4.1102,4.1454,4.124,4.0739,4.0383,4.0172,3.9637,3.9373,3.9373,3.9373,3.9373,3.9373,3.9373,3.917,3.8751,3.8751,3.8242,3.7434,3.6985,3.6537,3.6088,3.5639,3.5524,3.5593,3.533,3.5368,3.5584,3.5707,3.5645,3.5521,3.5521,3.5367,3.5244,3.546,3.5187,3.4909,3.5151,3.4401,3.3612,3.3612,3.2749,3.1752,3.1191,3.0746,3.0269,2.9794,2.8958,2.82,2.7833,2.8064,2.7859,2.6544,2.6826,2.6787,2.5731,2.5158,2.4764,2.4528,2.3804,2.3423,2.357,2.2783,2.2279,2.2195,2.1381,2.0875,2.0872,2.0488,2.0531,2.1099,2.0937,2.0565,1.9966,0.0,0.0,0.0,0.0,0.0,0.0,0.0,0.0,0.0,0.0,0.0,0.0,0.0,0.0,0.0,0.0,0.0,0.0,0.0,0.0,0.0,0.0,0.0,4.0146,3.9219,3.8604,3.8604,3.858,3.8587,3.8587,3.9152,4.0105,4.1564,4.0946,4.1109,4.2484,4.3241,4.3642,4.3642,4.5101,4.5528,4.4791,4.339,4.2345,4.1692,4.0232,3.9535,3.9535,3.9469,3.9439,3.9439,3.9403,3.9373,3.9373,3.9373,3.9373,3.9254,3.7973,3.7464,3.7464,3.7434,3.7434,3.7439,3.7639,3.7943,3.8213,3.8213,3.7916,3.7523,3.7523,3.7061,3.6692,3.7338,3.7523,3.7677,3.8354,3.7395,3.628,3.628,3.5039,3.351,3.1965,3.1618,3.1167,2.9715,2.9715,2.9969,2.988,2.988,2.9539,2.859,2.86,0.0,2.6432,2.6335,2.6177,2.5407,2.4623,2.4276,2.4636,2.3217,2.2648,2.3372,2.1911,2.114,2.1419,2.0927,2.0719,2.0918,2.1241,2.1062,2.0333,0.0,0.0,0.0,0.0,0.0,0.0,0.0,0.0,0.0,0.0,0.0,0.0,0.0,0.0,0.0,0.0,0.0,0.0,0.0,0.0,0.0,4.3651,4.2731,4.0985,4.0865,4.1082,4.1421,4.1943,4.2247,4.2247,4.2435,4.2692,4.3088,4.2914,4.3192,4.413,4.435,4.4413,4.4353,4.5353,4.5201,4.3731,4.4538,4.457,4.376,4.2861,4.2444,4.2377,4.0842,4.0127,4.0098,3.9619,3.9373,3.9373,3.9373,3.9373,3.9343,3.902,3.8871,3.8811,3.8302,3.7996,3.7873,3.798,3.8213,3.8442,3.8442,3.8319,3.8231,3.8231,3.8108,3.7984,3.8169,3.8231,3.8262,3.8446,3.819,3.7872,3.7872,3.7091,3.6153,3.5238,3.4266,3.3254,3.2324,3.1818,3.111,2.9689,2.9451,2.9381,2.9071,2.9213,2.917,2.8695,2.8298,2.757,2.6237,2.543,2.4779,2.4299,2.3641,2.3415,2.3805,2.3179,2.2617,2.2203,2.1766,2.1518,2.1481,2.1577,2.1507,0.0,0.0,0.0,0.0,0.0,0.0,0.0,0.0,0.0,0.0,0.0,0.0,0.0,0.0,0.0,0.0,0.0,0.0,0.0,0.0,0.0,0.0,4.5169,4.492,4.3926,4.3394,4.3233,4.3585,4.3922,4.4161,4.4161,4.4415,4.4744,4.4989,4.4747,4.4868,4.5629,4.5917,4.6056,4.5966,4.7113,4.7077,4.5739,4.6148,4.5901,4.5115,4.4136,4.3805,4.4055,4.2494,4.194,4.2186,4.151,4.1014,4.0703,4.0446,4.0152,3.9809,0.0,0.0,0.0,0.0,3.8852,3.8724,3.893,3.91,3.9269,3.9269,3.9302,3.937,3.937,3.937,3.937,3.937,3.937,3.937,3.937,3.9087,3.8839,3.8839,3.8226,3.7455,3.6764,3.5956,3.5081,3.4009,3.3286,0.0,3.0976,3.0521,3.0368,3.0296,3.0368,3.0298,2.9881,2.9588,2.897,2.787,2.7051,2.6396,2.5957,2.5266,0.0,0.0,0.0,2.35,2.2803,2.2667,0.0,0.0,0.0,2.2194,2.1925,2.158,0.0,0.0,2.0096,1.9933,0.0,0.0,0.0,0.0,0.0,0.0,0.0,0.0,0.0,0.0,0.0,0.0,0.0,0.0,0.0,0.0,4.6515,4.72,4.7784,4.6481,4.5473,4.5473,4.5459,4.5426,4.5426,4.6,4.6635,4.7227,4.667,4.6596,4.7288,4.7939,0.0,0.0,0.0,4.9853,4.8923,4.7859,4.6902,4.6149,4.4795,4.4519,4.5126,4.4227,4.4193,4.4732,4.4034,4.3334,4.2697,4.2077,4.1395,4.0639,3.9732,3.9409,3.9445,3.9625,3.9732,3.9803,3.9975,0.0,0.0,4.0296,4.0401,4.0505,4.0505,4.0505,4.0505,4.0505,4.0505,4.0505,4.0505,3.9941,3.9443,3.9443,3.8849,3.8091,3.7357,3.7119,3.6669,3.527,3.432,3.3576,3.3004,3.2318,3.1817,3.1633,3.1596,3.1299,3.0404,3.0471,3.0368,2.9689,2.898,0.0,2.8447,2.747,2.6795,2.6653,2.5301,2.4188,2.3465,2.3536,2.3485,2.3087,2.3223,2.2953,2.2366,2.2091,2.1934,2.1934,2.1438,2.1224,0.0,0.0,0.0,0.0,0.0,0.0,0.0,0.0,0.0,0.0,0.0,0.0,0.0,0.0,0.0,4.6583,4.7609,4.8492,4.872,4.9217,4.9293,4.8629,4.9027,4.9288,4.915,4.9281,4.9414,4.9552,4.9449,4.9645,5.0377,5.0577,5.0326,4.9613,5.0563,5.0055,4.7903,4.8996,4.9143,4.8282,4.7464,0.0,4.7232,4.5387,4.4563,4.4693,4.4,4.3619,4.3493,4.3355,4.2877,4.2014,4.0127,3.9481,3.9661,3.9696,3.991,4.0191,4.0226,4.0331,4.047,4.047,4.0505,4.0505,4.0505,4.0505,0.0,4.0505,4.0505,4.0505,4.0505,4.0382,4.0255,4.0255,4.0128,3.9849,3.9161,3.853,3.7874,3.7045,3.5408,3.414,3.3992,3.27,3.1633,3.1596,3.1743,3.179,3.1583,3.1729,3.1351,2.999,2.9694,2.9352,2.8711,2.8196,2.7931,2.8023,2.6644,2.5569,2.4994,2.4607,2.4173,2.3649,2.3679,2.3631,2.3505,2.3415,2.3382,2.3382,2.1891,2.1408,0.0,0.0,0.0,0.0,0.0,0.0,0.0,0.0,0.0,0.0,0.0,4.6244,4.6244,0.0,4.7902,4.7902,4.9092,5.0141,5.0608,5.1155,5.1193,5.0291,5.0627,5.089,5.0855,5.1116,5.1148,5.0783,5.075,5.075,5.075,5.075,5.0544,5.0124,5.0509,5.0136,4.8929,4.9378,4.942,4.8975,4.8289,4.8158,4.8453,4.7033,4.6538,4.6862,4.615,4.5632,4.5242,4.4553,4.3799,4.3045,4.2077,4.1028,4.0091,3.991,3.998,4.0156,4.0331,4.0436,4.0505,4.0505,4.0505,4.0505,4.0505,4.0505,4.0505,4.0505,4.0505,4.0505,4.0505,4.0505,4.0505,4.0505,4.0505,4.0413,4.0074,3.9711,3.9256,3.8588,3.7307,3.6131,3.5456,3.4023,3.2691,3.187,3.1743,3.1743,3.1743,3.1853,3.1646,3.096,3.0897,3.0659,3.0051,2.9556,2.9223,2.9004,2.8028,2.7196,2.6654,2.6089,2.5419,2.4615,2.488,2.4624,2.3794,2.4058,2.4058,2.3794,2.2915,2.2624,0.0,0.0,0.0,0.0,0.0,0.0,0.0,4.55,4.5906,4.5906,4.6616,4.7225,4.7225,4.8443,4.9424,4.9424,5.0541,5.1623,5.2232,5.2435,5.2267,5.1562,5.1698,5.1794,5.1759,5.2186,5.2213,5.1615,5.1514,5.1247,5.0651,5.0651,5.0551,5.0419,5.0419,5.0353,5.022,4.9624,4.9326,4.9326,4.8564,4.8531,4.9094,4.8332,4.8332,4.8862,4.8266,4.7669,4.7041,4.5898,4.498,4.4315,4.4349,4.311,4.1261,4.079,4.055,4.048,4.057,4.0509,4.047,4.047,4.0505,4.0505,4.0505,4.0505,4.0505,4.0505,4.0505,4.0505,4.0505,4.0505,4.0505,4.0505,4.0505,4.0505,4.0505,4.0505,4.032,3.9797,3.8975,3.8072,3.6959,3.5514,3.3972,3.2382,3.189,3.1706,3.1706,3.1706,3.178,3.1927,3.1963,3.1847,3.1504,3.0934,3.0408,2.9962,2.9369,2.8784,2.8265,2.7756,2.7054,2.6079,2.6493,2.6063,2.4768,2.5203,2.5203,2.4792,2.4657,2.4353,4.4615,4.4615,4.4784,4.5399,4.5568,4.5737,0.0,4.6616,4.6684,4.6684,4.7767,4.8748,4.8748,4.9965,5.098,5.098,5.1657,5.2198,5.23,5.2909,5.3348,5.3213,5.3112,5.2941,5.2735,5.2661,5.252,5.2454,5.2348,5.2243,5.2142,5.2142,5.1879,5.1216,5.1183,5.085,5.022,5.0121,5.0088,5.0088,4.9326,4.9028,4.9094,4.8332,4.8067,4.8133,4.8034,4.7968,4.7868,4.7737,4.7209,4.6485,4.5862,4.5076,4.4169,4.3131,4.2475,4.2006,4.1211,4.0681,4.0296,4.0296,4.0401,4.0505,4.0505,4.0505,4.0505,4.0505,4.0505,4.0505,4.0505,4.0505,4.0505,4.0505,4.0505,4.0505,4.0505,4.0505,4.0474,4.0382,3.9308,3.8372,3.8222,3.6516,3.4692,3.329,3.2525,3.2146,3.2146,3.2146,3.2146,3.2146,3.2182,3.2155,3.2074,3.1531,3.1143,3.1108,3.0531,2.9973,2.9451,2.9337,2.9039,2.8431,2.8466,2.8405,2.8247,2.8318,2.8318,2.8247,2.7648,2.6282,4.5128,4.5229,4.5399,4.6143,4.6346,4.6515,4.7293,4.7767,4.8206,4.8612,4.956,5.0304,5.0304,5.115,5.186,5.186,5.2503,5.301,5.301,5.3281,5.3518,5.3518,5.3416,5.3314,5.3076,5.2799,5.2589,5.2589,5.248,5.2409,5.2409,5.2409,5.2277,5.1978,5.1945,5.1777,5.1479,5.1048,5.0817,5.0817,5.0088,4.9756,4.9756,4.9425,4.9061,4.863,4.8199,4.8001,4.8001,4.8001,4.7867,4.7633,4.7438,4.7273,4.6876,4.4592,4.3642,4.3379,4.2778,4.2159,4.1619,4.1148,4.0783,4.0505,4.0505,4.0505,4.0505,4.0505,4.0505,4.0505,4.0505,4.0505,4.0505,4.0505,4.0505,4.0505,4.0505,4.0505,4.0505,4.0505,4.0021,3.9508,3.9112,3.7952,3.662,3.5249,3.3782,3.281,3.281,3.2444,3.2218,3.2218,3.2218,3.2218,3.2218,3.1965,3.1802,3.1802,3.126,3.0802,3.0591,3.0269,2.9802,2.9284,2.9592,2.939,2.8723,2.9071,2.8892,2.8206,2.795,2.7139,4.5805,4.6007,4.6244,4.7158,4.7394,4.7665,4.8612,4.9221,4.9763,5.0304,5.098,5.1522,5.1522,5.2131,5.2638,5.2638,5.3112,5.3518,5.3518,5.3518,5.3518,5.3518,5.3518,5.3416,5.3314,5.2972,5.2764,5.2764,5.2589,5.2516,5.248,5.2445,5.2445,5.2409,5.2409,5.2409,5.2409,5.1879,5.1614,5.1614,5.085,5.0518,5.0485,5.0286,4.9922,4.9359,4.863,4.8299,4.8299,4.8067,4.8066,4.8163,4.8356,4.8483,4.8383,4.6258,4.5211,4.4786,4.4301,4.3718,4.3094,4.2518,4.1767,4.1096,4.1096,4.0835,4.0505,4.0505,4.0505,4.0505,4.0505,4.0505,4.0505,4.0505,4.0505,4.0505,4.0505,4.0505,4.0505,4.0505,4.0505,4.0351,3.9859,3.9207,3.8379,3.7379,3.5585,3.4098,3.3304,3.2596,3.2218,3.2218,3.2218,3.2218,3.2218,3.2218,3.2218,3.2218,3.1775,3.1531,3.1531,3.1124,3.0705,3.0317,3.0705,3.0494,2.9657,3.0077,2.9862,2.9003,2.8819,2.8487,4.6549,4.6752,4.7124,4.8578,4.8951,4.9323,5.0745,5.115,5.115,5.1151,5.1758,5.2266,5.2266,5.2909,5.345,5.345,5.3484,5.3518,5.3518,5.3518,5.3518,5.3518,5.3518,5.3518,5.3518,5.3314,5.3179,5.3179,5.3007,5.2799,5.2589,5.2589,5.2518,5.2409,5.2409,5.2409,5.2409,5.2409,5.2376,5.2376,5.1647,5.1282,5.1249,5.0518,5.0187,5.0154,4.9392,4.9094,4.9028,4.8299,4.8001,4.8033,4.8163,4.8195,4.826,4.8545,4.7758,4.6419,4.5534,4.4886,4.4428,4.4428,4.3613,4.2635,4.2635,4.1622,4.0505,4.0505,4.0505,4.0505,4.0505,4.0505,4.0505,4.0505,4.0505,4.0505,4.0505,4.0505,4.0505,4.0505,4.0505,4.0474,4.0474,3.992,3.9425,3.9428,3.8179,3.6296,3.3529,3.2596,3.2218,3.2218,3.2218,3.2218,3.2218,3.2218,3.2218,3.2218,3.2191,3.2191,3.2191,3.2164,3.2128,3.2128,3.2128,3.2128,3.2092,3.2128,3.2092,3.2055,3.1415,3.1093,4.7936,4.8274,4.8612,5.0101,5.0473,5.0744,5.1725,5.1928,5.2097,5.2638,5.2942,5.3112,5.3112,5.3315,5.3518,5.3518,5.3518,5.3518,5.3518,5.3518,5.3518,5.3518,5.3518,5.3518,5.3518,5.3314,5.3179,5.3179,5.3007,5.2868,5.2799,5.2799,5.2764,5.2729,5.2589,5.2518,5.2518,5.2445,5.2409,5.2409,5.2177,5.208,5.2119,5.1317,5.0916,5.0883,5.0154,4.9856,4.979,4.9028,4.8763,4.8828,4.8524,4.8483,4.8644,4.8863,4.8599,4.8075,4.7275,4.6601,4.6026,4.55,4.4789,4.4071,4.4071,4.3411,4.2545,4.2074,4.1603,4.1124,4.0628,4.0505,4.0505,4.0505,4.0505,4.0505,4.0505,4.0505,4.0505,4.0505,4.0505,4.0505,4.0505,4.029,4.0013,3.9585,3.791,3.6234,3.4773,3.36,3.2854,3.2854,3.248,3.2218,3.2218,3.2218,3.2218,3.2218,3.2218,3.2218,3.2218,3.2218,3.2218,3.2218,3.2218,3.2218,3.2218,3.2218,3.1973,3.1542,3.132,3.0996,4.9052,4.9593,5.0101,5.1319,5.1589,5.1792,5.257,5.2739,5.2875,5.3382,5.3518,5.3518,5.3518,5.3518,5.3518,5.3518,5.3518,5.3518,5.3518,5.3518,5.3518,5.3518,5.3518,5.3518,5.3518,5.3382,5.3314,5.3314,5.3212,5.3076,5.3007,5.3007,5.2972,5.2903,5.2764,5.2694,5.2694,5.2551,5.248,5.248,5.248,5.2553,5.2694,5.2123,5.182,5.1717,5.0987,5.0619,5.0551,4.9857,4.946,4.9227,4.8956,4.8813,4.8707,4.8863,4.8956,4.8951,4.8477,4.8029,4.7552,4.7085,4.6313,4.557,4.557,4.4851,4.3994,4.358,4.2753,4.1887,4.1386,4.09,4.0505,4.0505,4.0505,4.0505,4.0505,4.0505,4.0505,4.0505,4.0505,4.0505,4.0505,4.0505,4.0351,3.992,3.854,3.706,3.5844,3.4652,3.3782,3.3241,3.2818,3.248,3.2218,3.2218,3.2218,3.2218,3.2218,3.2218,3.2218,3.2218,3.2218,3.2218,3.2218,3.2218,3.2218,3.2218,3.1973,3.1542,3.1542,3.1357,4.9999,5.071,5.1454,5.2198,5.2367,5.257,5.3348,5.3518,5.3518,5.3518,5.3518,5.3518,5.3518,5.3518,5.3518,5.3518,5.3518,5.3518,5.3518,5.3518,5.3518,5.3518,5.3518,5.3518,5.3518,5.3518,5.3518,5.3518,5.3518,5.3416,5.3213,5.3213,5.311,5.2938,5.2903,5.2903,5.2903,5.2694,5.2589,5.2624,5.2589,5.2694,5.2903,5.2903,5.2799,5.259,5.1891,5.1522,5.135,5.0724,4.9959,4.9293,4.9558,4.9219,4.8614,4.8805,4.8928,4.9018,4.9018,4.9018,4.9018,4.9018,4.8107,4.7002,4.7002,4.6059,4.4951,4.4919,4.3941,4.2863,4.2768,4.1687,4.0605,4.0574,4.0509,4.0505,4.0505,4.0505,4.0505,4.0505,4.0505,4.0505,4.0505,4.0505,4.0505,4.0505,3.9951,3.8828,3.6824,3.5878,3.4894,3.3501,3.3304,3.2988,3.2327,3.2218,3.2218,3.2218,3.2218,3.2218,3.2218,3.2218,3.2218,3.2218,3.2218,3.2218,3.2218,3.2218,3.2218,3.2218,3.2218,3.2218,5.1386,5.1894,5.2232,5.301,5.3179,5.3247,5.345,5.3518,5.3518,5.3518,5.3518,5.3518,5.3518,5.3518,5.3518,5.3518,5.3518,5.3518,5.3518,5.3518,5.3518,5.3518,5.3518,5.3518,5.3518,5.3518,5.3518,5.3518,5.3518,5.3484,5.3416,5.3416,5.3382,5.3348,5.3179,5.311,5.311,5.2764,5.2729,5.3041,5.2729,5.2764,5.311,5.2972,5.2868,5.2834,5.2633,5.2532,5.243,5.173,5.1295,5.1095,5.0792,5.0186,4.9579,4.9704,4.9427,4.9018,4.9018,4.9018,4.9018,4.9018,4.8757,4.8464,4.8464,4.7825,4.7012,4.6516,4.5702,4.4782,4.3718,4.2809,4.1987,4.1386,4.0854,4.0505,4.0505,4.0505,4.0505,4.0505,4.0505,4.0505,4.0505,4.0505,4.0505,4.0505,4.0351,3.9852,3.8858,3.7639,3.6531,3.5676,3.4657,3.3712,3.2988,3.248,3.2218,3.2218,3.2218,3.2218,3.2218,3.2218,3.2218,3.2218,3.2218,3.2218,3.2218,3.2218,3.2218,3.2218,3.2218,3.2218,5.2097,5.257,5.2942,5.3382,5.3518,5.3518,5.3518,5.3247,5.2976,5.2976,5.2739,5.2503,5.2503,5.2773,5.2976,5.2976,5.3281,5.3518,5.3518,5.3518,5.3518,5.3518,5.3518,5.3518,5.3518,5.3518,5.3518,5.3518,5.3518,5.3518,5.3518,5.3518,5.3518,5.3518,5.3382,5.3314,5.3179,5.2972,5.2972,5.3179,5.2972,5.3007,5.3348,5.3212,5.3144,5.3041,5.3041,5.2972,5.287,5.2571,5.2202,5.1765,5.1597,5.1057,5.0417,5.048,5.0071,4.9492,4.9492,4.9255,4.9018,4.9018,4.9018,4.9018,4.9018,4.8736,4.8286,4.7948,4.7105,4.6094,4.5307,4.4107,4.294,4.2227,4.1478,4.0854,4.0543,4.0505,4.0505,4.0505,4.0505,4.0505,4.0505,4.0505,4.0505,4.0505,4.0505,4.0351,3.9982,3.9001,3.7929,3.6963,3.5859,3.4917,3.4162,3.3233,3.2632,3.2632,3.2372,3.2218,3.2218,3.2218,3.2218,3.2218,3.2218,3.2218,3.2218,3.2218,3.2218,3.2218,3.2218,3.2218,5.2533,5.3009,5.3518,5.3518,5.3518,5.3518,5.3518,5.2875,5.23,5.23,5.1725,5.1185,5.1185,5.1725,5.2198,5.2266,5.2875,5.3382,5.3484,5.3518,5.3518,5.3518,5.3518,5.3518,5.3518,5.3518,5.3518,5.3518,5.3518,5.3518,5.3518,5.3518,5.3518,5.3518,5.3518,5.3416,5.3247,5.3213,5.3213,5.3213,5.3213,5.3314,5.3518,5.3518,5.3382,5.3213,5.3213,5.3144,5.2972,5.3144,5.2774,5.2034,5.2202,5.1831,5.1158,5.1158,5.0784,5.0236,5.0236,4.9763,4.912,4.9052,4.9018,4.9018,4.9018,4.9018,4.9018,4.9018,4.814,4.7163,4.7063,4.5564,4.3945,4.3261,4.2455,4.1617,4.0941,4.067,4.0505,4.0505,4.0505,4.0505,4.0505,4.0505,4.0505,4.0505,4.0505,4.0505,4.0505,3.9982,3.9134,3.7824,3.7087,3.6361,3.5629,3.4288,3.3494,3.3494,3.2759,3.2336,3.2336,3.2255,3.2218,3.2218,3.2218,3.2218,3.2218,3.2218,3.2218,3.2218,3.2218,3.2218,5.3729,5.3778,5.3518,5.3518,5.3518,5.3518,5.3518,5.2875,5.23,5.23,5.1725,5.1185,5.1185,5.1286,5.1589,5.2198,5.2435,5.2739,5.3416,5.3518,5.3518,5.3518,5.3518,5.3518,5.3518,5.3518,5.3518,5.3518,5.3518,5.3518,5.3518,5.3518,5.3518,5.3518,5.3518,5.345,5.345,5.3247,5.3247,5.345,5.3247,5.3314,5.3518,5.3518,5.3484,5.345,5.345,5.3416,5.3382,5.3416,5.3349,5.3214,5.3213,5.2774,5.2098,5.2098,5.1624,5.1014,5.1014,5.0541,4.9796,4.9187,4.9018,4.9018,4.9018,4.9018,4.9018,4.9018,4.879,4.8492,4.7855,4.7053,4.6152,4.5431,4.4266,4.3138,4.2477,4.1358,4.0505,4.0505,4.0505,4.0505,4.0505,4.0505,4.0505,4.0505,4.0505,4.0505,4.0505,4.0382,4.0009,3.9232,3.8508,3.7793,3.7088,3.5751,3.4958,3.4958,3.374,3.303,3.303,3.2516,3.2218,3.2218,3.2218,3.2218,3.2218,3.2218,3.2218,3.2218,3.2218,3.2218,5.4224,5.4203,5.3881,5.3584,5.3518,5.3483,5.3371,5.275,5.2195,5.2123,5.1253,5.053,5.053,5.0558,5.0879,5.1623,5.2063,5.257,5.3382,5.3518,5.3518,5.3518,5.3518,5.3518,5.3518,5.3518,5.3518,5.3518,5.3518,5.3518,5.3518,5.3518,5.3518,5.3518,5.3518,5.3518,5.3518,5.3382,5.3382,5.3518,5.3382,5.3416,5.3518,5.3518,5.3518,5.3518,5.3518,5.3518,5.3518,5.3518,5.3518,5.3518,5.3518,5.3281,5.2909,5.2909,5.2435,5.1792,5.1792,5.1285,5.0541,4.9796,4.9323,4.9018,4.9018,4.9018,4.9018,4.9018,4.9018,4.8917,4.8578,4.7959,4.7247,4.6535,4.4978,4.3622,4.3298,4.2064,4.1024,4.1024,4.0749,4.0505,4.0505,4.0505,4.0505,4.0505,4.0505,4.0505,4.0505,4.0505,4.0382,4.0043,3.9402,3.8831,3.8527,3.7187,3.6389,3.6389,3.5404,3.4554,3.3818,3.3461,3.2954,3.2218,3.2218,3.2218,3.2218,3.2218,3.2218,3.2218,3.2218,3.2218,5.4665,5.4734,5.4454,5.3849,5.3684,5.3612,5.3304,5.2605,5.2057,5.1934,5.0906,5.0045,4.9902,5.0005,5.0258,5.0877,5.1589,5.2334,5.3145,5.3382,5.3518,5.3518,5.3518,5.3518,5.3518,5.3518,5.3518,5.3518,5.3518,5.3518,5.3518,5.3518,5.3518,5.3518,5.3518,5.3518,5.3518,5.3518,5.3518,5.3518,5.3518,5.3518,5.3518,5.3518,5.3518,5.3518,5.3518,5.3518,5.3518,5.3518,5.3518,5.3518,5.3518,5.3518,5.3518,5.3518,5.3112,5.257,5.257,5.2063,5.1352,5.0744,4.9965,4.9221,4.9052,4.9018,4.9018,4.9018,4.9018,4.9018,4.9018,4.8578,4.7983,4.7285,4.5693,4.4299,4.3973,4.288,4.1913,4.1754,4.126,4.0922,4.0922,4.0817,4.0715,4.0715,4.0578,4.0505,4.0505,4.0505,4.0505,4.0505,4.0013,3.9705,3.9705,3.8557,3.7858,3.7858,3.7055,3.6131,3.5003,3.4832,3.4169,3.2891,3.2828,3.2745,3.2562,3.2562,3.2562,3.2562,3.2562,3.2562,5.5624,5.5716,5.5129,5.4485,5.4296,5.4124,5.3366,5.264,5.2057,5.1934,5.1205,5.048,4.9988,4.9913,4.9987,5.0161,5.0811,5.1589,5.23,5.3044,5.3518,5.3518,5.3518,5.3518,5.3518,5.3518,5.3518,5.3518,5.3518,5.3518,5.3518,5.3518,5.3518,5.3518,5.3518,5.3518,5.3518,5.3518,5.3518,5.3518,5.3518,5.3518,5.3518,5.3518,5.3518,5.3518,5.3518,5.3518,5.3518,5.3518,5.3518,5.3518,5.3518,5.3518,5.3518,5.3518,5.345,5.3382,5.3382,5.2875,5.2198,5.2131,5.115,4.9864,4.9187,4.9018,4.9018,4.9018,4.9018,4.9018,4.9018,4.8951,4.8683,4.798,4.7182,4.6245,4.4892,4.4033,4.3298,4.2556,4.2363,4.2332,4.2332,4.1788,4.1393,4.1393,4.0888,4.0505,4.0505,4.0505,4.0505,4.0505,4.0443,4.0413,4.0413,3.9733,3.933,3.933,3.8047,3.7276,3.7118,3.6523,3.5784,3.4927,3.4927,3.4548,3.3745,3.3745,3.3745,3.3745,3.3745,3.3745,5.5355,5.5763,5.5773,5.5159,5.463,5.4161,5.371,5.3021,5.2438,5.2269,5.1714,5.1183,5.0947,5.0384,5.0061,5.0549,5.1302,5.1899,5.2264,5.3305,5.3881,5.3517,5.3518,5.3518,5.3518,5.3518,5.3518,5.3518,5.3518,5.3518,5.3518,5.3518,5.3518,5.3518,5.3518,5.3518,5.3518,5.3518,5.3518,5.3518,5.3518,5.3518,5.3518,5.3518,5.3518,5.3518,5.3518,5.3518,5.3518,5.3518,5.3518,5.3518,5.3518,5.3518,5.3518,5.3518,5.3518,5.3518,5.3518,5.3281,5.2942,5.2469,5.1894,5.1183,4.9999,4.9357,4.9018,4.9018,4.9018,4.9018,4.9018,4.9018,4.8951,4.8646,4.8023,4.7334,4.6733,4.5773,4.4744,4.399,4.3516,4.307,4.2585,4.1949,4.1492,4.1492,4.0922,4.0505,4.0505,4.0505,4.0505,4.0505,4.0505,4.0505,4.0505,4.0259,4.0105,4.0105,3.9589,3.8879,3.8042,3.7734,3.7063,3.5935,3.5935,3.5754,3.539,3.5362,3.5362,3.539,3.491,3.4677,5.4926,5.5444,5.5741,5.5101,5.4536,5.402,5.3646,5.3119,5.2666,5.2508,5.2162,5.1811,5.1626,5.092,5.053,5.0853,5.1789,5.2438,5.2498,5.3613,5.4267,5.3816,5.3618,5.3518,5.3518,5.3518,5.3518,5.3518,5.3518,5.3518,5.3518,5.3518,5.3518,5.3518,5.3518,5.3518,5.3518,5.3518,5.3518,5.3518,5.3518,5.3518,5.3518,5.3518,5.3518,5.3518,5.3518,5.3518,5.3518,5.3518,5.3518,5.3518,5.3518,5.3518,5.3518,5.3518,5.3518,5.3518,5.3518,5.3518,5.3416,5.2841,5.2503,5.2097,5.1048,5.0067,4.9289,4.9052,4.9018,4.9018,4.9018,4.9018,4.9018,4.9018,4.8612,4.8173,4.7939,4.7099,4.6191,4.5457,4.4956,4.4383,4.3565,4.2876,4.2366,4.211,4.136,4.0817,4.0817,4.0612,4.0505,4.0505,4.0505,4.0505,4.0505,4.0505,4.0505,4.0505,4.0505,4.0052,3.9048,3.9048,3.8457,3.7275,3.7239,3.7132,3.6917,3.6852,3.6852,3.6881,3.6335,3.5963,5.4543,5.4919,5.476,5.4096,5.3904,5.369,5.287,5.2692,5.2666,5.2508,5.2516,5.2317,5.1736,5.1576,5.1398,5.0778,5.1969,5.2986,5.2986,5.3823,5.4391,5.4391,5.3848,5.3518,5.3518,5.3518,5.3518,5.3518,5.3518,5.3518,5.3518,5.3518,5.3518,5.3518,5.3518,5.3518,5.3518,5.3518,5.3518,5.3518,5.3518,5.3518,5.3518,5.3518,5.3518,5.3518,5.3518,5.3518,5.3518,5.3518,5.3518,5.3518,5.3518,5.3518,5.3518,5.3518,5.3518,5.3518,5.3518,5.3518,5.3518,5.3484,5.2942,5.23,5.2266,5.1251,4.9932,4.9221,4.9018,4.9018,4.9018,4.9018,4.9018,4.9018,4.8984,4.8781,4.8041,4.7872,4.7669,4.6921,4.6786,4.6519,4.5776,4.5109,4.4423,4.3598,4.2332,4.1492,4.1492,4.0888,4.0505,4.0505,4.0505,4.0505,4.0505,4.0505,4.0505,4.0505,4.0505,4.0474,4.0474,4.0474,4.0095,3.929,3.9254,3.8862,3.8086,3.8086,3.8086,3.8086,3.8086,3.7738,5.3953,5.4472,5.4858,5.465,5.4168,5.3699,5.3447,5.2943,5.2558,5.2529,5.248,5.2434,5.2233,5.1884,5.1525,5.1337,5.2626,5.3548,5.3071,5.4209,5.4918,5.4454,5.3848,5.3685,5.4108,5.375,5.3518,5.3518,5.3518,5.3518,5.3518,5.3518,5.3518,5.3518,5.3518,5.3518,5.3518,5.3518,5.3518,5.3518,5.3518,5.3518,5.3518,5.3518,5.3518,5.3518,5.3518,5.3518,5.3518,5.3518,5.3518,5.3518,5.3518,5.3518,5.3518,5.3518,5.3518,5.3518,5.3518,5.3518,5.3518,5.3518,5.3348,5.301,5.2469,5.1251,4.9932,4.9221,4.9018,4.9018,4.9018,4.9018,4.9018,4.9018,4.9018,4.8951,4.8714,4.8646,4.8443,4.7699,4.7564,4.7327,4.6583,4.5507,4.4589,4.4357,4.3095,4.2173,4.2173,4.1981,4.1689,4.1227,4.116,4.099,4.0509,4.0505,4.0505,4.0505,4.0505,4.0505,4.0505,4.0505,4.037,4.0126,4.0126,3.999,3.9743,3.9743,3.9463,3.8928,3.8928,3.8517,5.3241,5.3603,5.4001,5.4001,5.3639,5.3241,5.3241,5.2842,5.248,5.248,5.248,5.248,5.248,5.2186,5.1933,5.1933,5.3286,5.42,5.3798,5.4902,5.5484,5.4857,5.4425,5.433,5.4734,5.4425,5.4108,5.3882,5.3849,5.3717,5.3484,5.3518,5.3518,5.3518,5.3518,5.3518,5.3518,5.3518,5.3518,5.3518,5.3518,5.3518,5.3518,5.3518,5.3518,5.3518,5.3518,5.3518,0.0,5.3518,5.3518,5.3518,5.3518,5.3518,5.3518,5.3518,5.3518,5.3518,5.3518,5.3518,5.3518,5.3518,5.3518,5.3348,5.2536,5.1251,4.9999,4.9526,4.9221,4.9018,4.9018,4.9018,4.9018,4.9018,4.9018,4.9018,4.9018,4.9018,4.8883,4.8379,4.8342,4.8105,4.7327,4.6492,4.5815,4.5547,4.424,4.3317,4.3317,4.2839,4.2332,4.1917,4.1656,4.1327,4.0888,4.0646,4.0505,4.0505,4.0505,4.0505,4.0505,4.0505,4.0505,4.0505,4.0505,4.0505,4.0505,4.0574,4.037,3.9884,3.9884,3.9606,0.0,5.248,5.248,5.248,5.248,5.248,5.248,5.248,0.0,5.248,5.248,5.248,5.248,5.248,5.2516,5.2589,5.3892,5.4943,5.4979,5.5728,5.609,5.5549,5.5432,5.5432,5.5461,5.5432,5.5129,5.4516,5.4422,5.4171,5.3584,5.3517,5.3518,5.3518,5.3518,5.3518,5.3518,5.3518,5.3518,5.3518,5.3518,5.3518,5.3518,5.3518,5.3518,5.3518,5.3518,5.3518,5.3518,5.3518,5.3518,5.3518,5.3518,5.3518,5.3518,5.3518,5.3518,5.3518,5.3518,5.3518,5.3518,5.3518,5.3518,5.3382,5.2604,5.1386,5.0236,5.0135,4.9593,4.9086,4.9018,4.9018,4.9018,4.9018,4.9018,4.9018,4.9018,4.9018,4.9018,4.9018,4.9018,4.8781,4.8075,4.7906,4.7665,4.6989,4.5738,4.4846,4.4846,4.3602,4.271,4.2648,4.2045,4.1624,4.1591,4.0888,4.0505,4.0505,4.0539,4.0539,4.0539,4.0539,4.0539,4.0539,4.0505,4.0505,4.0505,4.0681,4.0783,4.0783,4.0783,4.0848,5.248,0.0,5.248,5.248,5.248,5.248,0.0,5.248,5.248,5.248,5.248,5.248,5.248,5.248,5.2697,5.3313,5.4255,5.5088,5.5667,5.6051,5.6257,5.6118,5.5694,5.5607,5.6063,5.5694,5.5308,5.5159,5.4703,5.4328,5.4203,5.375,5.3518,5.3518,5.3518,5.3518,5.3518,5.3518,5.3518,5.3518,5.3518,5.3518,5.3518,5.3518,5.3518,5.3518,5.3518,5.3518,5.3518,5.3518,5.3518,5.3518,5.3518,5.3518,5.3518,5.3518,5.3518,5.3518,5.3518,5.3518,5.3518,5.3518,5.3518,5.345,5.3281,5.2536,5.1555,5.0405,4.9965,4.9695,4.9154,4.9018,4.9018,4.9018,4.9018,4.9018,4.9018,4.9018,4.9018,4.9018,4.9018,4.8951,4.8781,4.8274,4.7838,4.7665,4.687,4.6309,4.6309,4.5488,4.4753,4.4238,4.3497,4.2831,4.23,4.1192,4.0505,4.0505,4.0612,4.0715,4.0715,4.0715,4.0715,4.0715,4.0574,4.0505,4.0505,4.0681,4.0783,4.0783,4.095,4.1049,5.2549,5.2526,5.248,5.248,5.248,5.248,5.248,5.248,5.248,5.248,5.248,5.248,5.248,5.2806,5.3204,5.3639,5.4653,5.5667,5.6428,5.6644,5.6714,5.6714,5.642,5.6366,5.6661,5.642,5.6083,5.5801,5.5484,5.5159,5.4857,5.4551,5.4365,5.4365,5.4365,5.411,5.3518,5.3518,5.3518,5.3518,5.3518,5.3518,5.3518,5.3518,5.3518,5.3518,5.3518,5.3518,5.3518,5.3518,5.3518,5.3518,5.3518,5.3518,5.3518,5.3518,5.3518,5.3518,5.3518,5.3518,5.3518,5.3518,5.3518,5.3518,5.3518,5.3213,5.2604,5.142,5.0608,4.9999,4.9593,4.9255,4.9018,4.9018,4.9018,4.9018,4.9018,4.9018,4.9018,4.9018,4.9018,4.9018,4.9018,4.868,4.8379,4.8379,4.78,4.7293,4.7293,4.665,4.5959,4.5291,4.453,4.3803,4.3259,4.2109,4.126,4.099,4.0851,4.0783,4.0783,4.0882,4.095,4.095,4.0814,4.0746,4.0643,4.0885,4.0987,4.095,4.112,4.1187,5.2568,5.2559,5.2503,5.248,5.248,5.248,5.248,5.248,5.248,5.248,5.2589,5.2661,5.2661,5.3349,5.3929,5.4037,5.5233,5.6428,5.708,5.7188,5.7188,5.7188,5.7188,5.7188,5.7188,5.7188,5.6984,5.6474,5.6339,5.609,5.5543,5.5461,5.5402,5.5402,5.5402,5.4892,5.3783,5.3685,5.3584,5.3518,5.3518,5.3518,5.3518,5.3518,5.3518,5.3518,5.3518,5.3518,5.3518,5.3518,5.3518,5.3518,5.3518,5.3518,5.3518,5.3518,5.3518,5.3518,5.3518,5.3518,5.3518,5.3518,5.3518,5.3518,5.3518,5.3518,5.3382,5.2672,5.1488,5.0371,5.0135,4.9627,4.9154,4.9018,4.9018,4.9018,4.9018,4.9018,4.9018,4.9018,4.9018,4.9018,4.9018,4.9018,4.9018,4.9018,4.8477,4.8041,4.8041,4.7428,4.6777,4.6277,4.5522,4.4853,4.4375,4.3452,4.2586,4.1917,4.1325,4.0953,4.0885,4.1052,4.1117,4.1117,4.1117,4.1018,4.0848,4.1156,4.1223,4.112,4.1256,4.1357,5.259,5.259,5.2581,5.2503,5.248,5.248,5.248,5.248,5.248,5.248,5.3023,5.353,5.353,5.4182,5.4907,5.5558,5.6428,5.7043,5.7188,5.7188,5.7188,5.7188,5.7188,5.7188,5.7188,5.7188,5.7163,5.7061,5.6582,5.6257,5.6174,5.5694,5.5402,5.5402,5.5402,5.5313,5.5104,5.4551,5.4011,5.3518,5.3518,5.3518,5.3518,5.3518,5.3518,5.3518,5.3518,5.3518,5.3518,5.3518,5.3518,5.3518,5.3518,5.3518,5.3518,5.3518,5.3518,5.3518,5.3518,5.3518,5.3518,5.3518,5.3518,5.3518,5.3518,5.3518,5.3484,5.3348,5.2672,5.1657,5.0405,4.9999,4.9763,4.9154,4.9018,4.9018,4.9018,4.9018,4.9018,4.9018,4.9018,4.9018,4.9018,4.9018,4.9018,4.9018,4.8917,4.8849,4.8849,4.8206,4.7759,4.7738,4.7073,4.6423,4.5812,4.5105,4.4364,4.3647,4.2522,4.1687,4.1256,4.1256,4.1221,4.1117,4.1117,4.1083,4.1049,4.1221,4.129,4.1256,4.1456,4.1555,5.2783,5.2694,5.2536,5.2536,5.2559,5.2681,5.3083,5.3132,5.3277,5.3711,5.411,5.4363,5.4363,5.4979,5.574,5.65,5.6971,5.7188,5.7188,5.7188,5.7188,5.7188,5.7188,5.7188,5.7188,5.7188,5.7188,5.7188,5.6959,5.6803,5.6803,5.6528,5.6357,5.6357,5.6357,5.6229,5.5894,5.5572,5.5129,5.4554,5.4554,5.452,5.4454,5.452,5.4554,5.4554,5.4554,5.4554,5.4554,5.4554,5.4554,5.4554,5.4554,5.4333,5.3946,5.3618,5.3518,5.3518,5.3518,5.3518,5.3518,5.3518,5.3518,5.3518,5.3518,5.3518,5.3518,5.3518,5.2909,5.2131,5.1454,5.0676,4.9999,4.9661,4.9289,4.9018,4.9018,4.9018,4.9018,4.9018,4.9018,4.9018,4.9018,4.9018,4.9018,4.9018,4.9018,4.9018,4.9018,4.8775,4.8523,4.8294,4.7982,4.7557,4.6996,4.6556,4.5467,4.3591,4.2678,4.211,4.1916,4.1621,4.1423,4.1388,4.1388,4.1321,4.1221,4.139,4.1423,4.1323,4.1522,4.1588,5.2937,5.282,5.2618,5.259,5.2713,5.2994,5.3601,5.388,5.4146,5.4786,5.5076,5.516,5.516,5.5776,5.6464,5.708,5.7188,5.7188,5.7188,5.7188,5.7188,5.7188,5.7188,5.7188,5.7188,5.7188,5.7188,5.7188,5.7188,5.7188,5.7188,5.7188,5.7188,5.7188,5.7188,5.6984,5.6501,5.6501,5.6146,5.5402,5.5402,5.5367,5.5332,5.5367,5.5402,5.5402,5.5402,5.5402,5.5402,5.5402,5.5402,5.5402,5.5402,5.4978,5.4359,5.4044,5.3849,5.3717,5.3882,5.3948,5.3948,5.3948,5.3948,5.3915,5.375,5.3684,5.3685,5.3517,5.3078,5.2536,5.2367,5.1454,5.0507,5.0168,4.9661,4.9221,4.9052,4.9018,4.9018,4.9018,4.9018,4.9018,4.9015,4.9049,4.9018,4.9015,4.9049,4.9018,4.9018,4.9107,4.9086,4.8719,4.8709,4.8517,4.8017,4.7608,4.6447,4.4212,4.3252,4.2747,4.268,4.2269,4.2045,4.2045,4.2045,4.1916,4.159,4.1785,4.1687,4.139,4.1522,4.1588,5.298,5.2959,5.2893,5.2658,5.3116,5.3686,5.3839,5.4386,5.4858,5.4978,5.5487,5.5921,5.5921,5.6573,5.7116,5.7188,5.7188,5.7188,5.7188,5.7188,5.7188,5.7188,5.7188,5.7188,5.7188,5.7188,5.7188,5.7188,5.7188,5.7188,5.7188,5.7188,5.7188,5.7188,5.7188,5.7163,5.7138,5.7138,5.6555,5.5402,5.5402,5.5402,5.5367,5.5402,5.5402,5.5402,5.5402,5.5402,5.5402,5.5402,5.5402,5.5402,5.5402,5.4978,5.4485,5.5039,5.4857,5.4422,5.5074,5.5284,5.5284,5.5284,5.5284,5.5164,5.4516,5.4328,5.4235,5.3685,5.345,5.3247,5.2503,5.2232,5.1792,5.0405,5.0067,4.983,4.9154,4.9018,4.9018,4.9018,4.9018,4.9015,4.9168,4.9077,4.9015,4.9168,4.9077,4.9018,4.9018,4.9107,4.929,4.9402,4.9551,4.936,4.8775,4.8086,4.7526,4.7198,4.5313,4.4012,4.3439,4.3376,4.3347,4.3347,4.3347,4.3078,4.2522,4.2522,4.2206,4.1588,4.1588,4.1588,5.3103,5.3017,5.2959,5.3381,5.4041,5.4636,5.4589,5.5112,5.5752,5.6382,5.6635,5.6754,5.6754,5.6971,5.7188,5.7188,5.7188,5.7188,5.7188,5.7188,5.7188,5.7188,5.7188,5.7188,5.7188,5.7188,5.7188,5.7188,5.7188,5.7188,5.7188,5.7188,5.7188,5.7188,5.7188,5.7188,5.7188,5.7188,5.6984,5.6528,5.6528,5.6528,5.6528,5.6528,5.6528,5.6528,5.6528,5.6528,5.6528,5.6528,5.6528,5.6501,5.6118,5.5801,5.5572,5.5426,5.5219,5.5039,5.5313,5.5402,5.5402,5.5402,5.5402,5.5373,5.5099,5.4734,5.4359,5.4106,5.3783,5.345,5.3145,5.2672,5.2029,5.1048,5.0439,4.9898,4.9154,4.9018,4.9018,4.9018,4.9018,4.9018,4.9046,4.9107,4.9138,4.9199,4.926,4.929,4.929,4.9411,4.953,4.9619,4.9801,4.9786,4.9597,4.9286,4.8913,4.834,4.6743,4.5466,4.4704,4.4404,4.4022,4.3529,4.3495,4.341,4.3169,4.3169,4.2833,4.2206,4.2206,4.1981,5.3203,5.3039,5.3069,5.3872,5.4606,5.5179,5.5387,5.5958,5.6635,5.7328,5.7338,5.7264,5.7264,5.7213,5.7188,5.7188,5.7188,5.7188,5.7188,5.7188,5.7188,5.7188,5.7188,5.7188,5.7188,5.7188,5.7188,5.7188,5.7188,5.7188,5.7188,5.7188,5.7188,5.7188,5.7188,5.7188,5.7188,5.7188,5.7188,5.7188,5.7188,5.7188,5.7188,5.7188,5.7188,5.7188,5.7188,5.7188,5.7188,5.7188,5.7188,5.7163,5.674,5.6474,5.6284,5.6027,5.5865,5.5722,5.5887,5.5943,5.5943,5.5943,5.5943,5.5915,5.5716,5.5367,5.4944,5.4765,5.4425,5.411,5.411,5.3375,5.2503,5.1725,5.098,5.0236,4.9492,4.9154,4.9018,4.9018,4.9018,4.8984,4.908,4.9138,4.9229,4.929,4.9411,4.95,4.95,4.9619,4.9708,4.9801,4.9918,5.0011,5.0011,5.0011,4.9769,4.9189,4.8294,4.7253,4.6152,4.5828,4.5282,4.4481,4.4481,4.426,4.3823,4.3823,4.3499,4.2863,4.2863,4.2615,5.3203,5.3103,5.32,5.4005,5.4606,5.5267,5.621,5.6903,5.7437,5.7559,5.7486,5.7388,5.7388,5.7289,5.7188,5.7188,5.7188,5.7188,5.7188,5.7188,5.7188,5.7188,5.7188,5.7188,5.7188,5.7188,5.7188,5.7188,5.7188,5.7188,5.7188,5.7188,5.7188,5.7188,5.7188,5.7188,5.7188,5.7188,5.7188,5.7188,5.7188,5.7188,5.7188,5.7188,5.7188,5.7188,5.7188,5.7188,5.7188,5.7188,5.7188,5.7188,5.7188,5.6819,5.6366,5.6984,5.6793,5.6393,5.701,5.7188,5.7188,5.7188,5.7188,5.7087,5.6474,5.6311,5.6174,5.5578,5.5402,5.5402,5.5402,5.446,5.3348,5.2503,5.1758,5.1014,5.0268,4.9526,4.9018,4.9018,4.9018,4.9015,4.9168,4.9199,4.926,4.9471,4.95,4.95,4.95,4.9619,4.9767,4.9982,5.0011,5.0011,5.0011,5.0011,5.0011,5.0011,5.0011,4.9321,4.7775,4.7707,4.7362,4.6631,4.6631,4.5918,4.4519,4.4519,4.4174,4.3495,4.3495,4.3495,5.3203,5.3607,5.4151,5.4869,5.5583,5.6317,5.7096,5.7231,5.7264,5.7313,5.7289,5.7264,5.7264,5.7213,5.7188,5.7188,5.7188,5.7188,5.7188,5.7188,5.7188,5.7188,5.7188,5.7188,5.7188,5.7188,5.7188,5.7188,5.7188,5.7188,5.7188,5.7188,5.7188,5.7188,5.7188,5.7188,5.7188,5.7188,5.7188,5.7188,5.7188,5.7188,5.7188,5.7188,5.7188,5.7188,5.7188,5.7188,5.7188,5.7188,5.7188,5.7188,5.7188,5.7087,5.6959,5.7138,5.7087,5.6959,5.7138,5.7188,5.7188,5.7188,5.7188,5.7163,5.6984,5.6635,5.6257,5.609,5.5751,5.5402,5.5402,5.5134,5.4622,5.3823,5.3475,5.2865,5.1202,5.0635,5.0176,4.9178,4.9018,4.9015,4.9168,4.932,4.9471,4.9619,4.9772,4.983,4.983,4.9889,4.9918,5.0011,5.0011,5.0011,5.0011,5.0011,5.0011,5.0011,5.0011,4.9562,4.8499,4.8465,4.812,4.7389,4.7389,4.6928,4.598,4.598,4.5397,4.4202,4.4202,4.3939,5.3203,5.3732,5.4496,5.5302,5.5981,5.6705,5.7352,5.7437,5.7363,5.7363,5.7313,5.7264,5.7264,5.7239,5.7188,5.7188,5.7188,5.7188,5.7188,5.7188,5.7188,5.7188,5.7188,5.7188,5.7188,5.7188,5.7188,5.7188,5.7188,5.7188,5.7188,5.7188,5.7188,5.7188,5.7188,5.7188,5.7188,5.7188,5.7188,5.7188,5.7188,5.7188,5.7188,5.7188,5.7188,5.7188,5.7188,5.7188,5.7188,5.7188,5.7188,5.7188,5.7188,5.7188,5.7188,5.7188,5.7188,5.7188,5.7188,5.7188,5.7188,5.7188,5.7188,5.7188,5.7188,5.6959,5.6635,5.6635,5.6393,5.6111,5.6111,5.6138,5.5948,5.4915,5.4419,5.3841,5.2585,5.1904,5.1193,5.0082,4.9671,4.948,4.9267,4.9411,4.959,4.9679,4.986,5.0011,5.0011,5.0011,5.0011,5.0011,5.0011,5.0011,5.0011,5.0011,5.0011,5.0011,5.0011,4.9804,4.9292,4.9258,4.8913,4.8155,4.812,4.7775,4.7044,4.7044,4.6612,4.5766,4.5493,4.5128,5.3225,5.3763,5.4525,5.5405,5.6077,5.6695,5.7316,5.751,5.7583,5.7559,5.7461,5.7388,5.7388,5.7289,5.7213,5.7213,5.7188,5.7188,5.7188,5.7188,5.7188,5.7188,5.7188,5.7188,5.7188,5.7188,5.7188,5.7188,5.7188,5.7188,5.7188,5.7188,5.7188,5.7188,5.7188,5.7188,5.7188,5.7188,5.7188,5.7188,5.7188,5.7188,5.7188,5.7188,5.7188,5.7188,5.7188,5.7188,5.7188,5.7188,5.7188,5.7188,5.7188,5.7188,5.7188,5.7188,5.7188,5.7188,5.7188,5.7188,5.7188,5.7188,5.7188,5.7188,5.7188,5.7188,5.7188,5.7188,5.7188,5.7188,5.7188,5.7289,5.7076,5.5858,5.5008,5.4479,5.4352,5.3387,5.228,5.1459,5.0875,5.0271,4.9555,4.9564,4.9708,4.9708,4.9889,5.0011,5.0011,5.0011,5.0011,5.0011,5.0011,5.0011,5.0011,5.0011,5.0011,5.0011,5.0011,5.0011,5.0011,5.0011,4.9666,4.8913,4.8913,4.8534,4.7775,4.7775,4.7775,4.7672,4.701,4.67,5.3272,5.4231,5.5368,5.5537,5.6653,5.7684,5.7726,5.7763,5.7655,5.7338,5.7338,5.7388,5.7388,5.7363,5.7338,5.7338,5.7264,5.7188,5.7188,5.7188,5.7188,5.7188,5.7188,5.7188,5.7188,5.7188,5.7188,5.7188,5.7188,5.7188,5.7188,5.7188,5.7188,5.7188,5.7188,5.7188,5.7188,5.7188,5.7188,5.7188,5.7188,5.7188,5.7188,5.7188,5.7188,5.7188,5.7188,5.7188,5.7188,5.7188,5.7188,5.7188,5.7188,5.7188,5.7188,5.7188,5.7188,5.7188,5.7188,5.7188,5.7188,5.7188,5.7188,5.7188,5.7188,5.7188,5.7188,5.7188,5.7188,5.7188,5.7188,5.7289,5.7338,5.7025,5.6906,5.6592,5.5532,5.5088,5.4483,5.3207,5.2053,5.1234,5.1169,5.0345,4.9737,4.9889,4.9982,5.0011,5.0011,5.0011,5.0011,5.0011,5.0011,5.0011,5.0011,5.0011,5.0011,5.0011,5.0011,5.0011,5.0011,5.0011,4.9942,4.9769,4.9735,4.9355,4.8568,4.8568,4.8258,4.7672,4.7562,4.7431,5.4241,5.5027,5.6003,5.6595,5.7373,5.7973,5.7834,5.781,5.7703,5.7437,5.7437,5.7461,5.7412,5.7388,5.7363,5.7313,5.7239,5.7188,5.7188,5.7239,5.7264,5.7188,5.7239,5.7264,5.7188,5.7188,5.7188,5.7188,5.7188,5.7188,5.7188,5.7188,5.7188,5.7188,5.7188,5.7188,5.7188,5.7188,5.7188,5.7188,5.7188,5.7188,5.7188,5.7188,5.7188,5.7188,5.7188,5.7188,5.7188,5.7188,5.7188,5.7188,5.7188,5.7188,5.7188,5.7188,5.7188,5.7188,5.7188,5.7188,5.7188,5.7188,5.7188,5.7188,5.7188,5.7188,5.7188,5.7188,5.7188,5.7213,5.7264,5.7388,5.751,5.7559,5.7583,5.7401,5.672,5.6324,5.579,5.473,5.3752,5.2901,5.2208,5.1251,5.0474,5.0034,5.0425,5.0592,5.0068,5.0235,5.0291,5.004,5.0011,5.0011,5.0011,5.0011,5.0011,5.0011,5.0011,5.0011,5.0011,5.0011,5.0011,5.0011,5.0011,4.9804,4.9361,4.9361,4.9183,4.8803,4.8396,4.8224,5.5119,5.5697,5.6442,5.7781,5.8065,5.7973,5.7881,5.7857,5.781,5.7679,5.7631,5.7583,5.7486,5.7461,5.7412,5.7289,5.7264,5.7264,5.7239,5.7338,5.7388,5.7264,5.7338,5.7338,5.7239,5.7213,5.7188,5.7188,5.7188,5.7188,5.7188,5.7188,5.7188,5.7188,5.7188,5.7188,5.7188,5.7188,5.7188,5.7188,5.7188,5.7188,5.7188,5.7188,5.7188,5.7188,5.7188,5.7188,5.7188,5.7188,5.7188,5.7188,5.7188,5.7188,5.7188,5.7188,5.7188,5.7188,5.7188,5.7188,5.7188,5.7188,5.7188,5.7188,5.7188,5.7188,5.7188,5.7188,5.7188,5.7213,5.7363,5.7486,5.7607,5.7786,5.7703,5.7655,5.7655,5.7277,5.6732,5.6133,5.5512,5.4536,5.2854,5.2157,5.1473,5.0432,5.1044,5.127,5.0369,5.0592,5.0647,5.0178,5.0068,5.0011,5.0011,5.0011,5.0011,5.0011,5.0011,5.0011,5.0011,5.0011,5.0011,5.0011,5.0011,5.0011,5.0011,5.0011,5.0011,4.9976,4.9292,4.8982,5.4531,5.5268,5.6466,5.8116,5.8275,5.7997,5.7973,5.7973,5.7973,5.795,5.7857,5.7786,5.7763,5.7763,5.7679,5.7559,5.7534,5.7486,5.7388,5.7486,5.7559,5.7534,5.7461,5.7388,5.7363,5.7264,5.7188,5.7188,5.7188,5.7188,5.7188,5.7188,5.7188,5.7188,5.7188,5.7188,5.7188,5.7188,5.7188,5.7188,5.7188,5.7188,5.7188,5.7188,5.7188,5.7188,5.7188,5.7188,5.7188,5.7188,5.7188,5.7188,5.7188,5.7188,5.7188,5.7188,5.7188,5.7188,5.7188,5.7188,5.7188,5.7188,5.7188,5.7188,5.7188,5.7188,5.7188,5.7188,5.7188,5.7213,5.7363,5.7486,5.7607,5.7786,5.7881,5.795,5.795,5.7867,5.7821,5.7711,5.6673,5.5191,5.3131,5.2697,5.2361,5.1505,5.15,5.1551,5.1398,5.1044,5.0776,5.0694,5.0291,5.0011,5.0011,5.0011,5.0011,5.0011,5.0011,5.0011,5.0011,5.0011,5.0011,5.0011,5.0011,5.0011,5.0011,5.0011,5.0011,5.0011,4.9907,4.9838,5.5842,5.6685,5.7694,5.8708,5.8628,5.8326,5.8326,5.8164,5.7997,5.7997,5.795,5.7904,5.7834,5.781,5.7763,5.7607,5.7583,5.7559,5.751,5.7607,5.7655,5.7583,5.7607,5.7583,5.751,5.7461,5.7412,5.7412,5.7412,5.7412,5.7412,5.7412,5.7412,5.7412,5.7412,5.7412,5.7412,5.7338,5.7264,5.7188,5.7188,5.7188,5.7188,5.7188,5.7188,5.7188,5.7188,5.7188,5.7188,5.7188,5.7188,5.7188,5.7188,5.7188,5.7188,5.7188,5.7188,5.7188,5.7188,5.7188,5.7188,5.7188,5.7188,5.7188,5.7188,5.7188,5.7188,5.7188,5.7188,5.7213,5.7363,5.7486,5.7607,5.7786,5.7904,5.7997,5.7997,5.7997,5.7997,5.7997,5.7175,5.603,5.4819,5.4074,5.3387,5.2416,5.2378,5.2291,5.1676,5.1651,5.1576,5.127,5.1044,5.0776,5.0481,5.0721,5.0647,5.004,5.0291,5.0285,5.0011,5.0011,5.0011,5.0011,5.0011,5.0011,5.0011,5.0011,5.0011,5.0011,5.0011,5.0011,5.7095,5.781,5.8381,5.9168,5.9065,5.873,5.8628,5.8369,5.8119,5.802,5.7997,5.7973,5.7881,5.7857,5.781,5.7655,5.7655,5.7715,5.7667,5.7786,5.7834,5.7703,5.7786,5.7786,5.7655,5.7607,5.7583,5.7583,5.7583,5.7583,5.7583,5.7583,5.7583,5.7583,5.7583,5.7583,5.7583,5.7486,5.7363,5.7239,5.7239,5.7239,5.7239,5.7239,5.7264,5.7289,5.7264,5.7213,5.7188,5.7239,5.7213,5.7188,5.7188,5.7188,5.7188,5.7188,5.7188,5.7188,5.7239,5.7239,5.7239,5.7239,5.7239,5.7239,5.7213,5.7188,5.7188,5.7188,5.7213,5.7264,5.7412,5.7534,5.7655,5.7834,5.7927,5.7997,5.7997,5.7997,5.7997,5.7997,5.7519,5.6928,5.6321,5.5533,5.4692,5.3652,5.3518,5.3222,5.2414,5.2353,5.2268,5.1824,5.1676,5.1424,5.1044,5.1347,5.1244,5.0453,5.0776,5.083,5.0425,5.0397,5.0313,5.0206,5.0206,5.012,5.0011,5.0011,5.0011,5.0011,5.0011,5.0011,5.7414,5.761,5.7731,5.936,5.9467,5.9084,5.8689,5.8586,5.8476,5.8051,5.7997,5.7997,5.7997,5.7997,5.795,5.7834,5.7904,5.795,5.781,5.7904,5.7997,5.7973,5.7881,5.781,5.781,5.7655,5.7583,5.7583,5.7583,5.7583,5.7583,5.7583,5.7583,5.7583,5.7583,5.7583,5.7583,5.7583,5.751,5.7388,5.7388,5.7388,5.7388,5.7388,5.7461,5.7559,5.7437,5.7313,5.7188,5.7338,5.7313,5.7188,5.7188,5.7188,5.7188,5.7188,5.7188,5.7213,5.7338,5.7388,5.7388,5.7388,5.7388,5.7363,5.7239,5.7188,5.7188,5.7188,5.7289,5.7412,5.7534,5.7715,5.7834,5.795,5.7997,5.7997,5.7997,5.7997,5.7997,5.7997,5.796,5.7703,5.6887,5.6726,5.6396,5.5603,5.4818,5.4304,5.4261,5.319,5.2384,5.2361,5.1897,5.1576,5.1551,5.1576,5.1576,5.15,5.1525,5.1551,5.15,5.15,5.1305,5.0749,5.0749,5.0509,5.0011,5.0011,5.0011,5.0011,5.0011,5.0011,5.7428,5.7805,5.8101,5.9754,5.989,5.9485,5.9084,5.8988,5.889,5.8476,5.8586,5.8689,5.8434,5.8186,5.7973,5.795,5.7973,5.7973,5.795,5.7973,5.7997,5.7997,5.795,5.7927,5.7927,5.7881,5.7857,5.7857,5.7857,5.7857,5.7857,5.7857,5.7857,5.7857,5.7857,5.7834,5.7739,5.7739,5.7655,5.751,5.751,5.751,5.751,5.751,5.7534,5.7583,5.7631,5.7559,5.7461,5.7486,5.7437,5.7313,5.7313,5.7264,5.7188,5.7188,5.7239,5.7338,5.7363,5.7437,5.751,5.751,5.751,5.751,5.7461,5.7437,5.7437,5.7437,5.7486,5.7534,5.7583,5.7679,5.7834,5.7973,5.7997,5.7997,5.7997,5.7997,5.7997,5.7997,5.7997,5.7923,5.7629,5.7152,5.6712,5.6418,5.5684,5.4987,5.4473,5.3954,5.3478,5.2967,5.2739,5.2477,5.215,5.2431,5.2338,5.1626,5.1922,5.1946,5.1601,5.1601,5.15,5.1296,5.1296,5.0884,5.0011,5.0011,5.0011,5.0011,5.0011,5.0011,5.7428,5.7886,5.8307,5.9988,6.0188,5.9858,5.9325,5.9215,5.9103,5.8689,5.8831,5.8929,5.8648,5.8391,5.8164,5.802,5.7997,5.7997,5.7997,5.7997,5.7997,5.7997,5.7997,5.7997,5.7997,5.7997,5.7997,5.7997,5.7997,5.7997,5.7997,5.7997,5.7997,5.7997,5.7997,5.795,5.7881,5.7881,5.781,5.7655,5.7655,5.7655,5.7655,5.7655,5.7679,5.7763,5.7834,5.7786,5.7583,5.7631,5.7583,5.7461,5.7461,5.7388,5.7264,5.7313,5.7363,5.7412,5.7486,5.7583,5.7655,5.7655,5.7655,5.7655,5.7607,5.7583,5.7583,5.7583,5.7607,5.7655,5.7655,5.7786,5.7904,5.7973,5.7997,5.7997,5.7997,5.7997,5.7997,5.7997,5.7997,5.7997,5.7997,5.7556,5.7189,5.7189,5.6528,5.5794,5.528,5.495,5.4473,5.3702,5.3592,5.3353,5.2694,5.2995,5.2908,5.2197,5.2454,5.2499,5.2173,5.215,5.2042,5.1848,5.1848,5.1424,5.0537,5.0376,5.0263,5.0263,5.0063,5.0011,0.0,0.0,0.0,5.9988,6.0422,6.0173,5.9397,5.9234,5.9122,5.871,5.8648,5.8648,5.8607,5.8607,5.8461,5.8088,5.7997,5.7997,5.7997,5.7997,5.7997,5.7997,5.7997,5.7997,5.7997,5.7997,5.7997,5.7997,5.7997,5.7997,5.7997,5.7997,5.7997,5.7997,5.7997,5.7997,5.7997,5.7997,5.795,5.781,5.781,5.781,5.781,5.781,5.7881,5.7997,5.7997,5.7857,5.7607,5.7763,5.7739,5.7619,5.7619,5.751,5.7412,5.7534,5.751,5.7437,5.7715,5.781,5.781,5.781,5.781,5.7786,5.7631,5.7607,5.7607,5.7607,5.7715,5.781,5.781,5.7904,5.7997,5.7997,5.7997,5.7997,5.7997,5.7997,5.7997,5.7997,5.7997,5.7997,5.7997,5.7997,5.7997,5.7997,5.7336,5.6822,5.6822,5.6124,5.5317,5.4509,5.4399,5.4069,5.3298,5.3203,5.3203,5.3203,5.3203,5.3203,5.3203,5.3203,5.2974,5.2431,5.2408,5.2173,5.1626,5.1096,5.083,5.0803,5.0291,5.004,5.7374,0.0,0.0,0.0,0.0,0.0,5.9777,5.9858,5.9874,5.9197,5.9502,5.9639,5.877,5.885,5.8811,5.8097,5.7997,5.7997,5.7997,5.7997,5.7997,5.7997,5.7997,5.7997,5.7997,5.7997,5.7997,5.7997,5.7997,5.7997,5.7997,5.7997,5.7997,5.7997,5.7997,5.7997,5.7997,5.7997,5.7973,5.795,5.795,5.795,5.795,5.795,5.7973,5.7997,5.7997,5.795,5.7904,5.7927,5.7881,5.7726,5.7726,5.7655,5.7534,5.7583,5.7667,5.7679,5.775,5.7881,5.795,5.795,5.795,5.795,5.7904,5.7904,5.7904,5.7904,5.7927,5.795,5.795,5.7973,5.7997,5.7997,5.7997,5.7997,5.7997,5.7997,5.7997,5.7997,5.7997,5.7997,5.7997,5.7997,5.7997,5.7997,5.7813,5.7446,5.6859,5.6602,5.6161,5.5354,5.473,5.4326,5.4106,5.3555,5.3203,5.3203,5.3203,5.3203,5.3203,5.3203,5.3124,5.2995,5.2995,5.293,5.2761,5.1824,5.1373,5.1347,5.083,5.0592,5.7423,5.8154,5.8727,6.0064,0.0,0.0,5.9673,5.9706,5.9706,5.9103,5.9305,5.9502,5.8968,5.9046,5.9065,5.8603,5.8348,5.8186,5.802,5.7997,5.7997,5.7997,5.7997,5.7997,5.7997,5.7997,5.7997,5.7997,5.7997,5.7997,5.7997,5.7997,5.7997,5.7997,5.7997,5.7997,5.7997,5.7997,5.7997,5.7997,5.7997,5.7997,5.7997,5.7997,5.7997,5.7997,5.7997,5.7997,5.7997,5.7997,5.795,5.7881,5.7881,5.781,5.7679,5.7763,5.7786,5.781,5.7881,5.795,5.7997,5.7997,5.7997,5.7997,5.7997,5.7997,5.7997,5.7997,5.7997,5.7997,5.7997,5.7997,5.7997,5.7997,5.7997,5.7997,5.7997,5.7997,5.7997,5.7997,5.7997,5.7997,5.7997,5.7997,5.7997,5.7997,5.7997,5.7813,5.7373,5.7299,5.7005,5.6198,5.5684,5.5133,5.4473,5.3959,5.3555,5.3203,5.3203,5.3203,5.3203,5.3203,5.3203,5.3203,5.3203,5.3203,5.3203,5.2338,5.1799,5.1576,5.127,5.1114,5.7648,5.8509,5.93,6.0179,6.0422,0.0,5.9502,5.9343,5.9234,5.8831,5.8791,5.8853,5.9159,5.9252,5.9252,5.9215,5.887,5.8498,5.8097,5.8042,5.7997,5.7997,5.7997,5.7997,5.7997,5.7997,5.7997,5.7997,5.7997,5.7997,5.7997,5.7997,5.7997,5.7997,5.7997,5.7997,5.7997,5.7997,5.7997,5.7997,5.7997,5.7997,5.7997,5.7997,5.7997,5.7997,5.7997,5.7997,5.7997,5.7997,5.7997,5.7997,5.7997,5.7927,5.7857,5.795,5.7927,5.7857,5.7973,5.7997,5.7997,5.7997,5.7997,5.7997,5.7997,5.7997,5.7997,5.7997,5.7997,5.7997,5.7997,5.7997,5.7997,5.7997,5.7997,5.7997,5.7997,5.7997,5.7997,5.7997,5.7997,5.7997,5.7997,5.7997,5.7997,5.7997,5.7997,5.7997,5.7997,5.7997,5.774,5.7005,5.6859,5.6235,5.4803,5.4509,5.4106,5.3408,5.324,5.3203,5.3203,5.3203,5.3203,5.3203,5.3203,5.3203,5.3203,5.2717,5.2244,5.1775,5.1701,5.1676,5.8066,5.8734,5.93,6.0179,6.0422,0.0,6.0188,6.0159,6.0068,5.9639,5.9842,5.9874,5.9307,5.9467,5.9571,5.9252,5.887,5.8566,5.8482,5.8209,5.7997,5.7997,5.7997,5.7997,5.7997,5.7997,5.7997,5.7997,5.7997,5.7997,5.7997,5.7997,5.7997,5.7997,5.7997,5.7997,5.7997,5.7997,5.7997,5.7997,5.7997,5.7997,5.7997,5.7997,5.7997,5.7997,5.7997,5.7997,5.7997,5.7997,5.7997,5.7997,5.7997,5.7973,5.7973,5.7997,5.7973,5.7973,5.7997,5.7997,5.7997,5.7997,5.7997,5.7997,5.7997,5.7997,5.7997,5.7997,5.7997,5.7997,5.7997,5.7997,5.7997,5.7997,5.7997,5.7997,5.7997,5.7997,5.7997,5.7997,5.7997,5.7997,5.7997,5.7997,5.7997,5.7997,5.7997,5.7997,5.7997,5.7997,5.7923,5.7776,5.7189,5.6675,5.6381,5.5133,5.4326,5.4179,5.3555,5.3203,5.3203,5.3203,5.3203,5.3203,5.3203,5.3203,5.3203,5.3082,5.2995,5.2872,5.2431,5.2244,5.8224,5.895,5.9596,6.0227,6.0422,0.0,0.0,6.0099,5.9969,5.9571,5.9656,5.976,5.9537,5.9656,5.9809,5.9809,5.9307,5.891,5.891,5.8369,5.7997,5.7997,5.7997,5.7997,5.7997,5.7997,5.7997,5.7997,5.7997,5.7997,5.7997,5.7997,5.7997,5.7997,5.7997,5.7997,5.7997,5.7997,5.7997,5.7997,5.7997,5.7997,5.7997,5.7997,5.7997,5.7997,5.7997,5.7997,5.7997,5.7997,5.7997,5.7997,5.7997,5.7997,5.7997,5.7997,5.7997,5.7997,5.7997,5.7997,5.7997,5.7997,5.7997,5.7997,5.7997,5.7997,5.7997,5.7997,5.7997,5.7997,5.7997,5.7997,5.7997,5.7997,5.7997,5.7997,5.7997,5.7997,5.7997,5.7997,5.7997,5.7997,5.7997,5.7997,5.7997,5.7997,5.7997,5.7997,5.7997,5.7997,5.7997,5.7997,5.7629,5.7262,5.6822,5.6051,5.5244,5.4436,5.4032,5.3628,5.3203,5.3203,5.3203,5.3203,5.3203,5.3203,5.3203,5.3203,5.3203,5.3167,5.2893,5.2806,5.8342,5.9093,5.9739,6.0099,6.0159,6.0114,0.0,0.0,0.0,5.9485,5.9432,5.9537,5.9858,5.9906,5.9962,6.0113,5.968,5.925,5.9099,5.8557,5.8164,5.802,5.7997,5.7997,5.7997,5.7997,5.7997,5.7997,5.7997,5.7997,5.7997,5.7997,5.7997,5.7997,5.7997,5.7997,5.7997,5.7997,5.7997,5.7997,5.7997,5.7997,5.7997,5.7997,5.7997,5.7997,5.7997,5.7997,5.7997,5.7997,5.7997,5.7997,5.7997,5.7997,5.7997,5.7997,5.7997,5.7997,5.7997,5.7997,5.7997,5.7997,5.7997,5.7997,5.7997,5.7997,5.7997,5.7997,5.7997,5.7997,5.7997,5.7997,5.7997,5.7997,5.7997,5.7997,5.7997,5.7997,5.7997,5.7997,5.7997,5.7997,5.7997,5.7997,5.7997,5.7997,5.7997,5.7997,5.7997,5.7997,5.7997,5.7997,5.7997,5.774,5.7079,5.6895,5.6271,5.495,5.4583,5.4106,5.3482,5.3277,5.3203,5.3203,5.3203,5.3203,5.3203,5.3203,5.3203,5.3203,5.3203,5.3203,5.8561,5.8932,5.9289,5.9325,5.9343,5.9415,5.9744,0.0,5.989,6.0188,0.0,6.0285,6.0313,0.0,0.0,5.9363,5.9543,5.9441,5.8684,5.8854,5.8791,5.8074,5.7997,5.7997,5.7997,5.7997,5.7997,5.7997,5.7997,5.7997,5.7997,5.7997,5.7997,5.7997,5.7997,5.7997,5.7997,5.7997,5.7997,5.7997,5.7997,5.7997,5.7997,5.7997,5.7997,5.7997,5.7997,5.7997,5.7997,5.7997,5.7997,5.7997,5.7997,5.7997,5.7997,5.7997,5.7997,5.7997,5.7997,5.7997,5.7997,5.7997,5.7997,5.7997,5.7997,5.7997,5.7997,5.7997,5.7997,5.7997,5.7997,5.7997,5.7997,5.7997,5.7997,5.7997,5.7997,5.7997,5.7997,5.7997,5.7997,5.7997,5.7997,5.7997,5.7997,5.7997,5.7997,5.7997,5.7997,5.7997,5.7997,5.7997,5.7997,5.796,5.7886,5.7226,5.6712,5.6565,5.5207,5.4363,5.4289,5.3592,5.3203,5.3203,5.3203,5.3203,5.3203,5.3203,5.3203,5.3203,5.3203,5.3203,5.8524,5.873,5.8929,5.9159,5.9215,5.9252,5.9415,5.9622,5.9858,6.0038,0.0,0.0,0.0,0.0,0.0,0.0,5.9802,5.9658,5.9317,5.9224,5.9084,5.873,5.8498,5.8275,5.802,5.7997,5.7997,5.7997,5.7997,5.7997,5.7997,5.7997,5.7997,5.7997,5.7997,5.7997,5.7997,5.7997,5.7997,5.7997,5.7997,5.7997,5.7997,5.7997,5.7997,5.7997,5.7997,5.7997,5.7997,5.7997,5.7997,5.7997,5.7997,5.7997,5.7997,5.7997,5.7997,5.7997,5.7997,5.7997,5.7997,5.7997,5.7997,5.7997,5.7997,5.7997,5.7997,5.7997,5.7997,5.7997,5.7997,5.7997,5.7997,5.7997,5.7997,5.7997,5.7997,5.7997,5.7997,5.7997,5.7997,5.7997,5.7997,5.7997,5.7997,5.7997,5.7997,5.7997,5.7997,5.7997,5.7997,5.7997,5.7997,5.7997,5.7997,5.7703,5.7299,5.6822,5.5721,5.5097,5.5097,5.4766,5.4363,5.3922,5.3922,5.3665,5.3203,5.3203,5.3203,5.3203,5.3203,5.3203,5.8348,5.8455,5.8519,5.8791,5.887,5.891,5.9026,5.927,5.9502,5.9605,5.9953,0.0,0.0,0.0,6.0332,6.0064,0.0,5.9877,5.9649,5.9538,5.945,5.9234,5.8949,5.8648,5.8348,5.8231,5.8164,5.8164,5.8088,5.7997,5.7997,5.7997,5.7997,5.7997,5.7997,5.7997,5.7997,5.7997,5.7997,5.7997,5.7997,5.7997,5.7997,5.7997,5.7997,5.7997,5.7997,5.7997,5.7997,5.7997,5.7997,5.7997,5.7997,5.7997,5.7997,5.7997,5.7997,5.7997,5.7997,5.7997,5.7997,5.7997,5.7997,5.7997,5.7997,5.7997,5.7997,5.7997,5.7997,5.7997,5.7997,5.7997,5.7997,5.7997,5.7997,5.7997,5.7997,5.7997,5.7997,5.7997,5.7997,5.7997,5.7997,5.7997,5.7997,5.7997,5.7997,5.7997,5.7997,5.7997,5.7997,5.7997,5.7997,5.7997,5.7997,5.7997,5.7666,5.6859,5.6235,5.5831,5.5633,5.5596,5.5317,5.473,5.473,5.4436,5.3849,5.3849,5.3739,5.3518,5.3298,5.3203,5.802,5.802,5.802,5.8042,5.8042,5.8142,5.8524,5.8628,5.875,5.9159,5.9537,5.9826,5.9826,6.0129,6.0102,5.93,5.9835,0.0,0.0,5.9859,6.0084,5.9307,5.9197,5.9178,5.9178,5.8811,5.8566,5.8566,5.8231,5.7997,5.7997,5.7997,5.7997,5.7997,5.7997,5.7997,5.7997,5.7997,5.7997,5.7997,5.7997,5.7997,5.7997,5.7997,5.7997,5.7997,5.7997,5.7997,5.7997,5.7997,5.7997,5.7997,5.7997,5.7997,5.7997,5.7997,5.7997,5.7997,5.7997,5.7997,5.7997,5.7997,5.7997,5.7997,5.7997,5.7997,5.7997,5.7997,5.7997,5.7997,5.7997,5.7997,5.7997,5.7997,5.7997,5.7997,5.7997,5.7997,5.7997,5.7997,5.7997,5.7997,5.7997,5.7997,5.7997,5.7997,5.7997,5.7997,5.7997,5.7997,5.7997,5.7997,5.7997,5.7997,5.7997,5.7997,5.7666,5.6859,5.6785,5.6418,5.5633,5.5596,5.5574,5.5537,5.5537,5.5559,5.5522,5.5522,5.5097,5.4326,5.3555,5.3203,5.7997,5.7997,5.7997,5.7997,5.7997,5.8042,5.8164,5.8412,5.8648,5.8791,5.9305,5.9809,5.9809,6.0129,6.0293,5.9988,6.0217,6.0307,0.0,6.0217,6.0299,6.0038,5.9777,5.9485,5.9234,5.885,5.8607,5.8607,5.8231,5.7997,5.7997,5.7997,5.7997,5.7997,5.7997,5.7997,5.7997,5.7997,5.7997,5.7997,5.7997,5.7997,5.7997,5.7997,5.7997,5.7997,5.7997,5.7997,5.7997,5.7997,5.7997,5.7997,5.7997,5.7997,5.7997,5.7997,5.7997,5.7997,5.7997,5.7997,5.7997,5.7997,5.7997,5.7997,5.7997,5.7997,5.7997,5.7997,5.7997,5.7997,5.7997,5.7997,5.7997,5.7997,5.7997,5.7997,5.7997,5.7997,5.7997,5.7997,5.7997,5.7997,5.7997,5.7997,5.7997,5.7997,5.7997,5.7997,5.7997,5.7997,5.7997,5.7997,5.7997,5.7997,5.7997,5.7997,5.7886,5.7593,5.7593,5.7483,5.7189,5.7189,5.6932,5.6418,5.6381,5.6124,5.5596,5.5596,5.5486,5.517,5.4913,5.4216,5.7997,5.7997,5.7997,5.7997,5.7997,5.7997,5.7997,5.8209,5.8434,5.8566,5.8989,5.9467,5.976,6.0,6.0217,6.0394,6.0422,6.0422,0.0,6.0422,6.0422,6.0422,6.0159,5.9858,5.945,5.9159,5.8929,5.8628,5.8369,5.8142,5.802,5.7997,5.8088,5.8209,5.8231,5.826,5.8434,5.8434,5.8434,5.8434,5.8434,5.8434,5.8434,5.8434,5.8434,5.8434,5.8434,5.8434,5.8434,5.8434,5.8434,5.8434,5.8434,5.8434,5.8391,5.8133,5.7997,5.7997,5.7997,5.7997,5.7997,5.7997,5.7997,5.7997,5.7997,5.7997,5.807,5.8364,5.8217,5.807,5.8364,5.8217,5.7997,5.7997,5.7997,5.7997,5.7997,5.7997,5.7997,5.7997,5.7997,5.7997,5.7997,5.7997,5.7997,5.7997,5.7997,5.7997,5.7997,5.7997,5.7997,5.7997,5.7997,5.7997,5.7997,5.7997,5.7997,5.7997,5.7997,5.7997,5.7997,5.7997,5.7776,5.7262,5.7226,5.6969,5.6455,5.6455,5.6308,5.6014,5.6014,5.5317]}]]